ftp/pub/palmer/observations_modified/2019/August/AR190801_BASE.txt

Download

Sample DateTime	Unit Id	WS Avg 2min	WD Avg 2min	WGS 10min	WGD 10min	Air Temp	Rel Humidity	Dew Point	Pyranometer	Quantum	Air Pressure	Snow Level	Rainfall	PW Current	Visibility	CBase 1	CBase 2	CBase 3	Vert Vis
2019/08/01  00:00:00  BASE  4.0278   102  4.75104  102  -7.8  81    -10.5 0     0     1009.8   NA       0.0000   9999     2620  0     0    
2019/08/01  00:01:00  BASE  3.63384  103  4.75104  102  -7.8  81    -10.5 0     0     1009.8   NA       0.0000   9999     2720  0     0    
2019/08/01  00:02:00  BASE  3.44568  103  4.75104  102  -7.8  81    -10.5 0     0     1009.8   NA       0.0000   9999     2920  0     0    
2019/08/01  00:03:00  BASE  3.06348  102  4.75104  102  -7.7  81    -10.5 0     0     1009.8   NA       0.0000   9999     2950  0     0    
2019/08/01  00:04:00  BASE  2.89884  107  4.75104  102  -7.6  80    -10.4 0     0     1009.8   NA       0.0000   9999     2920  0     0    
2019/08/01  00:05:00  BASE  3.18696  113  4.75104  102  -7.6  80    -10.5 0     0     1009.8   NA       0.0000   9999     2920  0     0    
2019/08/01  00:06:00  BASE  3.08112  113  4.75104  102  -7.5  80    -10.5 0     0     1009.8   NA       0.0000   9999     2920  0     0    
2019/08/01  00:07:00  BASE  2.83416  114  4.75104  102  -7.5  79    -10.4 0     0     1009.8   NA       0.0000   9999     3020  0     0    
2019/08/01  00:08:00  BASE  2.71656  112  4.53936  105  -7.5  79    -10.5 0     0     1009.8   NA       0.0000   9999     2950  0     0    
2019/08/01  00:09:00  BASE  2.50488  97   4.1454   101  -7.5  79    -10.5 0     0     1009.8   NA       0.0000   9999     2760  0     0    
2019/08/01  00:10:00  BASE  2.39904  90   3.69264  104  -7.4  78    -10.5 0     0     1009.8   NA       0.0000   9999     2660  0     0    
2019/08/01  00:11:00  BASE  2.68716  85   3.59856  99   -7.4  78    -10.6 0     0     1009.8   NA       0.0000   9999     2820  0     0    
2019/08/01  00:12:00  BASE  2.74596  69   3.53976  117  -7.4  77    -10.7 0     0     1009.8   NA       0.0000   9999     2950  0     0    
2019/08/01  00:13:00  BASE  2.32848  50   3.53976  117  -7.4  77    -10.8 0     0     1009.8   NA       0.0000   9999     2990  0     0    
2019/08/01  00:14:00  BASE  1.99332  41   3.53976  117  -7.5  77    -10.8 0     0     1009.8   NA       0.0000   9999     2990  0     0    
2019/08/01  00:15:00  BASE  2.22264  58   3.1752   119  -7.5  77    -10.9 0     0     1009.8   NA       0.0000   9999     3020  0     0    
2019/08/01  00:16:00  BASE  2.45196  76   3.087    72   -7.6  77    -11.0 0     0     1009.8   NA       0.0000   9999     3020  0     0    
2019/08/01  00:17:00  BASE  2.36376  71   3.087    72   -7.6  77    -11.0 0     0     1009.8   NA       0.0000   9999     3080  0     0    
2019/08/01  00:18:00  BASE  2.57544  65   3.087    72   -7.6  77    -10.9 0     0     1009.8   NA       0.0000   9999     3080  0     0    
2019/08/01  00:19:00  BASE  2.79888  72   3.087    72   -7.6  77    -10.8 0     0     1009.8   NA       0.0000   9999     3050  0     0    
2019/08/01  00:20:00  BASE  2.72244  70   3.087    72   -7.5  77    -10.8 0     0     1009.8   NA       0.0000   9999     2890  0     0    
2019/08/01  00:21:00  BASE  2.06388  73   3.02232  82   -7.4  77    -10.7 0     0     1009.8   NA       0.0000   9999     2920  0     0    
2019/08/01  00:22:00  BASE  1.57584  89   3.02232  82   -7.3  77    -10.6 0     0     1009.8   NA       0.0000   9999     2890  0     0    
2019/08/01  00:23:00  BASE  1.58172  88   3.02232  82   -7.3  77    -10.6 0     0     1009.8   NA       0.0000   9999     2920  0     0    
2019/08/01  00:24:00  BASE  0.81144  70   3.02232  82   -7.2  77    -10.6 0     0     1009.8   NA       0.0000   9999     2950  0     0    
2019/08/01  00:25:00  BASE  0.45864  64   3.02232  82   -7.2  77    -10.6 0     0     1009.8   NA       0.0000   9999     2920  0     0    
2019/08/01  00:26:00  BASE  0.40572  70   3.02232  82   -7.2  76    -10.6 0     0     1009.8   NA       0.0000   9999     2920  0     0    
2019/08/01  00:27:00  BASE  0        73   3.02232  82   -7.2  76    -10.7 0     0     1009.7   NA       0.0000   9999     2820  0     0    
2019/08/01  00:28:00  BASE  0.46452  75   3.02232  82   -7.2  76    -10.7 0     0     1009.7   NA       0.0000   9999     2890  0     0    
2019/08/01  00:29:00  BASE  1.55232  88   3.1164   144  -7.2  76    -10.7 0     0     1009.7   NA       0.0000   9999     3050  0     0    
2019/08/01  00:30:00  BASE  2.52252  118  3.53976  139  -7.2  76    -10.7 0     0     1009.7   NA       0.0000   9999     3020  0     0    
2019/08/01  00:31:00  BASE  2.5872   123  3.53976  139  -7.2  76    -10.7 0     0     1009.7   NA       0.0000   9999     2850  0     0    
2019/08/01  00:32:00  BASE  2.01684  127  3.53976  139  -7.3  76    -10.7 0     0     1009.7   NA       0.0000   9999     2790  0     0    
2019/08/01  00:33:00  BASE  1.323    135  3.53976  139  -7.3  76    -10.7 0     0     1009.8   NA       0.0000   9999     2950  0     0    
2019/08/01  00:34:00  BASE  0.84084  147  3.53976  139  -7.2  76    -10.7 0     0     1009.8   NA       0.0000   9999     3050  0     0    
2019/08/01  00:35:00  BASE  0.52332  138  3.53976  139  -7.2  76    -10.7 0     0     1009.8   NA       0.0000   9999     3120  0     0    
2019/08/01  00:36:00  BASE  0.7644   73   3.53976  139  -7.2  76    -10.7 0     0     1009.8   NA       0.0000   9999     3080  0     0    
2019/08/01  00:37:00  BASE  1.24656  19   3.53976  139  -7.2  76    -10.8 0     0     1009.8   NA       0.0000   9999     3120  0     0    
2019/08/01  00:38:00  BASE  0.9702   46   3.53976  139  -7.2  76    -10.8 0     0     1009.8   NA       0.0000   9999     3020  0     0    
2019/08/01  00:39:00  BASE  0.51744  122  3.53976  139  -7.2  75    -10.8 0     0     1009.8   NA       0.0000   9999     2990  0     0    
2019/08/01  00:40:00  BASE  0.84084  122  2.90472  125  -7.3  75    -10.9 0     0     1009.8   NA       0.0000   9999     2790  0     0    
2019/08/01  00:41:00  BASE  1.2054   197  2.75184  54   -7.3  75    -11.0 0     0     1009.8   NA       0.0000   9999     2850  0     0    
2019/08/01  00:42:00  BASE  1.029    146  2.75184  54   -7.3  75    -11.0 0     0     1009.8   NA       0.0000   9999     2890  0     0    
2019/08/01  00:43:00  BASE  1.04664  92   2.75184  54   -7.3  75    -11.0 0     0     1009.8   NA       0.0000   9999     2850  0     0    
2019/08/01  00:44:00  BASE  1.81692  47   4.08072  32   -7.4  75    -11.1 0     0     1009.8   NA       0.0000   9999     2850  0     0    
2019/08/01  00:45:00  BASE  1.89924  75   4.08072  32   -7.4  75    -11.1 0     0     1009.8   NA       0.0000   9999     0     0     0    
2019/08/01  00:46:00  BASE  2.01096  88   4.08072  32   -7.4  75    -11.1 0     0     1009.8   NA       0.0000   9999     0     0     0    
2019/08/01  00:47:00  BASE  3.06348  68   5.89764  33   -7.4  75    -11.1 0     0     1009.8   NA       0.0000   9999     0     0     0    
2019/08/01  00:48:00  BASE  3.25752  80   5.89764  33   -7.5  75    -11.1 0     0     1009.8   NA       0.0000   9999     0     0     0    
2019/08/01  00:49:00  BASE  2.63424  101  5.89764  33   -7.5  75    -11.2 0     0     1009.9   NA       0.0000   9999     0     0     0    
2019/08/01  00:50:00  BASE  2.08152  84   5.89764  33   -7.5  75    -11.2 0     0     1009.8   NA       0.0000   9999     3250  0     0    
2019/08/01  00:51:00  BASE  3.11052  50   6.02112  45   -7.5  75    -11.2 0     0     1009.8   NA       0.0000   9999     3220  0     0    
2019/08/01  00:52:00  BASE  4.32768  44   6.02112  19   -7.6  75    -11.2 0     0     1009.8   NA       0.0000   9999     0     0     0    
2019/08/01  00:53:00  BASE  4.79808  58   6.59148  91   -7.6  75    -11.2 0     0     1009.8   NA       0.0000   9999     0     0     0    
2019/08/01  00:54:00  BASE  5.15676  57   6.59148  91   -7.7  75    -11.3 0     0     1009.8   NA       0.0000   9999     3120  0     0    
2019/08/01  00:55:00  BASE  5.30376  50   7.3206   71   -7.7  76    -11.2 0     0     1009.7   NA       0.0000   9999     3120  0     0    
2019/08/01  00:56:00  BASE  5.21556  43   7.3206   71   -7.7  76    -11.2 0     0     1009.8   NA       0.0000   9999     3120  0     0    
2019/08/01  00:57:00  BASE  5.41548  37   7.3206   71   -7.6  76    -11.1 0     0     1009.7   NA       0.0000   9999     3150  0     0    
2019/08/01  00:58:00  BASE  6.48564  36   8.71416  25   -7.6  76    -11.1 0     0     1009.7   NA       0.0000   9999     3180  0     0    
2019/08/01  00:59:00  BASE  7.32648  31   8.71416  25   -7.6  76    -11.1 0     0     1009.6   NA       0.0000   9999     3050  0     0    
2019/08/01  01:00:00  BASE  7.4088   33   8.71416  25   -7.5  76    -11.0 0     0     1009.6   NA       0.0000   9999     3080  0     0    
2019/08/01  01:01:00  BASE  8.13204  35   9.80196  35   -7.5  76    -10.9 0     0     1009.6   NA       0.0000   9999     3120  0     0    
2019/08/01  01:02:00  BASE  8.36136  33   9.80196  35   -7.5  76    -10.9 0     0     1009.6   NA       0.0000   9999     3120  0     0    
2019/08/01  01:03:00  BASE  7.82628  34   9.80196  35   -7.5  76    -10.9 0     0     1009.6   NA       0.0000   9999     3220  0     0    
2019/08/01  01:04:00  BASE  8.03796  37   9.80196  35   -7.5  76    -11.0 0     0     1009.7   NA       0.0000   9999     3150  0     0    
2019/08/01  01:05:00  BASE  8.00268  38   9.80196  35   -7.6  76    -11.1 0     0     1009.7   NA       0.0000   9999     3020  0     0    
2019/08/01  01:06:00  BASE  8.07324  38   9.80196  35   -7.7  76    -11.2 0     0     1009.7   NA       0.0000   9999     2890  0     0    
2019/08/01  01:07:00  BASE  7.83216  41   9.80196  35   -7.8  76    -11.2 0     0     1009.7   NA       0.0000   9999     2890  0     0    
2019/08/01  01:08:00  BASE  7.71456  39   9.80196  35   -7.8  76    -11.3 0     0     1009.7   NA       0.0000   9999     2890  0     0    
2019/08/01  01:09:00  BASE  7.62048  39   9.80196  35   -7.9  76    -11.4 0     0     1009.7   NA       0.0000   9999     2950  0     0    
2019/08/01  01:10:00  BASE  7.78512  36   9.80196  35   -8.0  76    -11.4 0     0     1009.7   NA       0.0000   9999     3020  0     0    
2019/08/01  01:11:00  BASE  7.938    32   9.70788  27   -8.0  76    -11.5 0     0     1009.7   NA       0.0000   9999     3020  0     0    
2019/08/01  01:12:00  BASE  8.01444  30   9.70788  27   -8.0  76    -11.5 0     0     1009.7   NA       0.0000   9999     3050  0     0    
2019/08/01  01:13:00  BASE  7.89684  29   9.70788  27   -8.0  77    -11.4 0     0     1009.8   NA       0.0000   9999     2990  0     0    
2019/08/01  01:14:00  BASE  6.77376  32   9.70788  27   -8.0  77    -11.4 0     0     1009.8   NA       0.0000   9999     2920  0     0    
2019/08/01  01:15:00  BASE  7.2618   32   9.70788  27   -8.0  77    -11.3 0     0     1009.7   NA       0.0000   9999     2950  0     0    
2019/08/01  01:16:00  BASE  8.12028  31   9.70788  27   -8.0  77    -11.2 0     0     1009.7   NA       0.0000   9999     2950  0     0    
2019/08/01  01:17:00  BASE  8.1144   31   9.70788  27   -7.9  77    -11.2 0     0     1009.7   NA       0.0000   9999     3410  0     0    
2019/08/01  01:18:00  BASE  7.97328  34   9.70788  27   -7.9  78    -11.1 0     0     1009.7   NA       0.0000   9999     3410  0     0    
2019/08/01  01:19:00  BASE  7.97916  34   9.408    33   -7.8  78    -11.0 0     0     1009.7   NA       0.0000   9999     2990  3450  0    
2019/08/01  01:20:00  BASE  8.50836  32   9.408    33   -7.7  78    -10.9 0     0     1009.7   NA       0.0000   9999     2990  3510  0    
2019/08/01  01:21:00  BASE  8.6142   32   9.408    33   -7.7  78    -10.8 0     0     1009.8   NA       0.0000   9999     3020  0     0    
2019/08/01  01:22:00  BASE  8.34372  34   9.408    33   -7.7  78    -10.8 0     0     1009.8   NA       0.0000   9999     2950  0     0    
2019/08/01  01:23:00  BASE  7.90272  36   9.408    33   -7.6  78    -10.8 0     0     1009.8   NA       0.0000   9999     3050  0     0    
2019/08/01  01:24:00  BASE  7.47936  36   9.408    33   -7.7  78    -10.8 0     0     1009.8   NA       0.0000   9999     3220  0     0    
2019/08/01  01:25:00  BASE  7.44408  37   9.25512  34   -7.8  78    -10.9 0     0     1009.8   NA       0.0000   9999     3150  0     0    
2019/08/01  01:26:00  BASE  7.2618   37   9.25512  34   -7.9  78    -11.0 0     0     1009.8   NA       0.0000   9999     3220  0     0    
2019/08/01  01:27:00  BASE  7.49112  37   9.25512  34   -8.0  78    -11.1 0     0     1009.8   NA       0.0000   9999     3220  0     0    
2019/08/01  01:28:00  BASE  7.94976  40   9.25512  34   -8.1  78    -11.2 0     0     1009.8   NA       0.0000   9999     3080  0     0    
2019/08/01  01:29:00  BASE  7.72044  41   9.25512  34   -8.2  79    -11.2 0     0     1009.8   NA       0.0000   9999     3150  0     0    
2019/08/01  01:30:00  BASE  7.22652  37   8.92584  41   -8.2  79    -11.2 0     0     1009.8   NA       0.0000   9999     3220  0     0    
2019/08/01  01:31:00  BASE  6.83256  35   8.92584  41   -8.2  79    -11.2 0     0     1009.8   NA       0.0000   9999     3280  0     0    
2019/08/01  01:32:00  BASE  6.7914   35   8.92584  41   -8.1  80    -11.0 0     0     1009.8   NA       0.0000   9999     3350  0     0    
2019/08/01  01:33:00  BASE  6.9678   35   8.92584  41   -8.0  80    -10.8 0     0     1009.8   NA       0.0000   9999     3350  0     0    
2019/08/01  01:34:00  BASE  6.65616  38   8.92584  41   -7.8  80    -10.6 0     0     1009.9   NA       0.0000   9999     3310  0     0    
2019/08/01  01:35:00  BASE  6.7032   41   8.92584  41   -7.7  81    -10.4 0     0     1009.8   NA       0.0000   9999     3350  0     0    
2019/08/01  01:36:00  BASE  7.16184  41   8.92584  41   -7.6  81    -10.4 0     0     1009.9   NA       0.0000   9999     3410  0     0    
2019/08/01  01:37:00  BASE  7.53228  45   8.92584  41   -7.7  80    -10.5 0     0     1009.9   NA       0.0000   9999     3380  0     0    
2019/08/01  01:38:00  BASE  7.54404  48   8.80236  46   -7.7  80    -10.6 0     0     1009.9   NA       0.0000   9999     3450  0     0    
2019/08/01  01:39:00  BASE  7.2618   46   8.80236  46   -7.8  80    -10.7 0     0     1009.9   NA       0.0000   9999     3450  0     0    
2019/08/01  01:40:00  BASE  6.8796   44   8.80236  46   -7.9  80    -10.8 0     0     1009.9   NA       0.0000   9999     3380  0     0    
2019/08/01  01:41:00  BASE  6.81492  40   8.80236  46   -7.9  79    -10.8 0     0     1009.8   NA       0.0000   9999     3350  0     0    
2019/08/01  01:42:00  BASE  7.50876  37   8.80236  46   -7.9  79    -10.9 0     0     1009.8   NA       0.0000   9999     3310  0     0    
2019/08/01  01:43:00  BASE  7.74396  34   8.80236  46   -8.0  79    -11.0 0     0     1009.8   NA       0.0000   9999     3280  0     0    
2019/08/01  01:44:00  BASE  8.14968  34   9.4668   36   -7.9  79    -10.9 0     0     1009.8   NA       0.0000   9999     3310  0     0    
2019/08/01  01:45:00  BASE  8.33196  35   9.4668   36   -7.8  79    -10.8 0     0     1009.8   NA       0.0000   9999     3380  0     0    
2019/08/01  01:46:00  BASE  8.07912  37   9.4668   36   -7.8  79    -10.7 0     0     1009.8   NA       0.0000   9999     3350  0     0    
2019/08/01  01:47:00  BASE  8.15556  36   9.4668   36   -7.7  79    -10.7 0     0     1009.7   NA       0.0000   9999     3280  0     0    
2019/08/01  01:48:00  BASE  8.36136  33   9.4668   36   -7.7  79    -10.7 0     0     1009.7   NA       0.0000   9999     3310  0     0    
2019/08/01  01:49:00  BASE  8.24376  34   9.4668   36   -7.8  79    -10.9 0     0     1009.7   NA       0.0000   9999     3220  0     0    
2019/08/01  01:50:00  BASE  8.01444  37   9.4668   36   -8.0  79    -11.0 0     0     1009.7   NA       0.0000   9999     3280  0     0    
2019/08/01  01:51:00  BASE  8.1144   34   9.4668   36   -8.1  79    -11.1 0     0     1009.7   NA       0.0000   9999     3180  0     0    
2019/08/01  01:52:00  BASE  8.40252  36   9.4668   36   -8.2  79    -11.1 0     0     1009.7   NA       0.0000   9999     3150  0     0    
2019/08/01  01:53:00  BASE  8.42016  41   9.4668   36   -8.2  79    -11.2 0     0     1009.7   NA       0.0000   9999     3180  0     0    
2019/08/01  01:54:00  BASE  8.03796  40   9.31392  34   -8.2  80    -11.1 0     0     1009.7   NA       0.0000   9999     3280  0     0    
2019/08/01  01:55:00  BASE  8.37312  37   9.80196  34   -8.1  80    -11.0 0     0     1009.6   NA       0.0000   9999     3310  0     0    
2019/08/01  01:56:00  BASE  8.35548  39   9.80196  34   -8.1  80    -10.9 0     0     1009.7   NA       0.0000   9999     3250  0     0    
2019/08/01  01:57:00  BASE  7.87332  41   9.80196  34   -8.1  81    -10.8 0     0     1009.7   NA       0.0000   9999     3310  0     0    
2019/08/01  01:58:00  BASE  8.12028  39   9.80196  34   -8.0  81    -10.7 0     0     1009.7   NA       0.0000   9999     3310  0     0    
2019/08/01  01:59:00  BASE  8.10852  39   9.80196  34   -8.0  81    -10.7 0     0     1009.7   NA       0.0000   9999     3310  0     0    
2019/08/01  02:00:00  BASE  7.938    39   9.80196  34   -7.9  81    -10.6 0     0     1009.7   NA       0.0000   9999     3450  0     0    
2019/08/01  02:01:00  BASE  8.8494   39   10.2841  43   -7.9  81    -10.5 0     0     1009.6   NA       0.0000   9999     3380  0     0    
2019/08/01  02:02:00  BASE  9.0258   44   10.2841  43   -7.8  81    -10.5 0     0     1009.7   NA       0.0000   9999     3280  0     0    
2019/08/01  02:03:00  BASE  7.97328  51   10.2841  43   -7.7  81    -10.4 0     0     1009.7   NA       0.0000   9999     3280  0     0    
2019/08/01  02:04:00  BASE  7.54992  53   10.2841  43   -7.7  81    -10.4 0     0     1009.7   NA       0.0000   9999     3220  0     0    
2019/08/01  02:05:00  BASE  7.4382   52   10.2841  43   -7.7  81    -10.4 0     0     1009.7   NA       0.0000   9999     3220  0     0    
2019/08/01  02:06:00  BASE  7.04424  49   10.2841  43   -7.7  81    -10.5 0     0     1009.7   NA       0.0000   9999     3220  0     0    
2019/08/01  02:07:00  BASE  6.75024  45   10.2841  43   -7.8  80    -10.6 0     0     1009.7   NA       0.0000   9999     3280  0     0    
2019/08/01  02:08:00  BASE  6.76788  39   10.2841  43   -7.9  80    -10.7 0     0     1009.7   NA       0.0000   9999     3220  0     0    
2019/08/01  02:09:00  BASE  5.9388   34   10.2841  43   -7.9  80    -10.7 0     0     1009.7   NA       0.0000   9999     3180  0     0    
2019/08/01  02:10:00  BASE  5.49192  32   10.2841  43   -7.9  81    -10.6 0     0     1009.7   NA       0.0000   9999     3150  0     0    
2019/08/01  02:11:00  BASE  6.07992  34   9.4962   46   -7.9  81    -10.6 0     0     1009.7   NA       0.0000   9999     3150  0     0    
2019/08/01  02:12:00  BASE  6.5562   39   8.19672  50   -7.9  81    -10.6 0     0     1009.6   NA       0.0000   9999     3220  0     0    
2019/08/01  02:13:00  BASE  7.06188  39   8.01444  57   -7.9  81    -10.6 0     0     1009.6   NA       0.0000   9999     0     0     0    
2019/08/01  02:14:00  BASE  7.24416  40   8.3202   39   -7.9  81    -10.6 0     0     1009.6   NA       0.0000   9999     0     0     0    
2019/08/01  02:15:00  BASE  7.1736   41   8.3202   39   -7.9  81    -10.6 0     0     1009.6   NA       0.0000   9999     3480  0     0    
2019/08/01  02:16:00  BASE  7.30884  39   8.3202   39   -8.0  81    -10.7 0     0     1009.6   NA       0.0000   9999     3510  0     0    
2019/08/01  02:17:00  BASE  6.67968  36   8.3202   39   -8.0  81    -10.7 0     0     1009.6   NA       0.0000   9999     3510  0     0    
2019/08/01  02:18:00  BASE  6.24456  38   8.3202   39   -8.0  81    -10.7 0     0     1009.6   NA       0.0000   9999     3410  0     0    
2019/08/01  02:19:00  BASE  7.0266   42   8.80236  40   -8.0  81    -10.7 0     0     1009.6   NA       0.0000   9999     3380  0     0    
2019/08/01  02:20:00  BASE  7.49112  41   8.80236  40   -8.0  81    -10.7 0     0     1009.6   NA       0.0000   9999     3380  0     0    
2019/08/01  02:21:00  BASE  7.83216  39   8.80236  40   -8.0  81    -10.8 0     0     1009.6   NA       0.0000   9999     3310  0     0    
2019/08/01  02:22:00  BASE  7.99092  37   9.19632  31   -8.0  80    -10.8 0     0     1009.6   NA       0.0000   9999     3280  0     0    
2019/08/01  02:23:00  BASE  7.54992  35   9.19632  31   -8.0  80    -10.8 0     0     1009.6   NA       0.0000   9999     0     0     0    
2019/08/01  02:24:00  BASE  6.8502   39   9.19632  31   -8.0  80    -10.9 0     0     1009.7   NA       0.0000   9999     0     0     0    
2019/08/01  02:25:00  BASE  7.0854   40   9.19632  31   -8.0  80    -10.8 0     0     1009.7   NA       0.0000   9999     0     0     0    
2019/08/01  02:26:00  BASE  7.72632  35   9.19632  31   -7.9  80    -10.8 0     0     1009.6   NA       0.0000   9999     0     0     0    
2019/08/01  02:27:00  BASE  7.09716  32   9.19632  31   -7.9  80    -10.8 0     0     1009.7   NA       0.0000   9999     0     0     0    
2019/08/01  02:28:00  BASE  6.53268  32   9.19632  31   -7.9  79    -10.8 0     0     1009.7   NA       0.0000   9999     0     0     0    
2019/08/01  02:29:00  BASE  6.5562   36   9.19632  31   -7.8  79    -10.8 0     0     1009.7   NA       0.0000   9999     0     0     0    
2019/08/01  02:30:00  BASE  7.12656  38   9.19632  31   -7.8  79    -10.8 0     0     1009.7   NA       0.0000   9999     0     0     0    
2019/08/01  02:31:00  BASE  7.48524  35   9.19632  31   -7.8  79    -10.8 0     0     1009.7   NA       0.0000   9999     0     0     0    
2019/08/01  02:32:00  BASE  6.87372  33   9.16692  21   -7.8  79    -10.8 0     0     1009.7   NA       0.0000   9999     0     0     0    
2019/08/01  02:33:00  BASE  6.41508  36   9.16692  21   -7.8  79    -10.8 0     0     1009.7   NA       0.0000   9999     3120  0     0    
2019/08/01  02:34:00  BASE  6.69144  38   9.16692  21   -7.8  79    -10.9 0     0     1009.6   NA       0.0000   9999     3150  0     0    
2019/08/01  02:35:00  BASE  7.1736   36   9.16692  21   -7.9  78    -11.0 0     0     1009.6   NA       0.0000   9999     3180  0     0    
2019/08/01  02:36:00  BASE  7.36176  34   8.4084   33   -8.0  78    -11.2 0     0     1009.6   NA       0.0000   9999     3150  0     0    
2019/08/01  02:37:00  BASE  7.203    32   8.4084   33   -8.2  78    -11.4 0     0     1009.6   NA       0.0000   9999     3050  0     0    
2019/08/01  02:38:00  BASE  6.3504   33   8.4084   33   -8.3  78    -11.5 0     0     1009.7   NA       0.0000   9999     3080  0     0    
2019/08/01  02:39:00  BASE  5.7624   40   8.4084   33   -8.4  78    -11.6 0     0     1009.7   NA       0.0000   9999     3150  0     0    
2019/08/01  02:40:00  BASE  6.62088  45   8.50248  32   -8.5  78    -11.7 0     0     1009.6   NA       0.0000   9999     3120  0     0    
2019/08/01  02:41:00  BASE  7.47348  45   8.50248  32   -8.5  78    -11.7 0     0     1009.7   NA       0.0000   9999     3180  0     0    
2019/08/01  02:42:00  BASE  7.40292  51   8.50248  32   -8.5  78    -11.6 0     0     1009.7   NA       0.0000   9999     3250  0     0    
2019/08/01  02:43:00  BASE  6.9972   56   8.50248  32   -8.5  79    -11.6 0     0     1009.7   NA       0.0000   9999     3180  0     0    
2019/08/01  02:44:00  BASE  5.88     63   8.50248  32   -8.5  79    -11.5 0     0     1009.7   NA       0.0000   9999     3220  0     0    
2019/08/01  02:45:00  BASE  5.06268  64   8.50248  32   -8.5  79    -11.6 0     0     1009.8   NA       0.0000   9999     3220  0     0    
2019/08/01  02:46:00  BASE  4.998    57   8.50248  32   -8.6  79    -11.6 0     0     1009.8   NA       0.0000   9999     3220  0     0    
2019/08/01  02:47:00  BASE  5.65068  51   8.50248  32   -8.6  78    -11.7 0     0     1009.8   NA       0.0000   9999     3150  0     0    
2019/08/01  02:48:00  BASE  6.43272  52   8.50248  32   -8.6  78    -11.7 0     0     1009.8   NA       0.0000   9999     3120  0     0    
2019/08/01  02:49:00  BASE  6.03288  61   8.50248  32   -8.6  78    -11.7 0     0     1009.8   NA       0.0000   9999     3050  0     0    
2019/08/01  02:50:00  BASE  4.57464  68   8.25552  39   -8.5  78    -11.6 0     0     1009.8   NA       0.0000   9999     3020  0     0    
2019/08/01  02:51:00  BASE  3.53976  80   7.68516  56   -8.4  78    -11.5 0     0     1009.8   NA       0.0000   9999     3020  0     0    
2019/08/01  02:52:00  BASE  3.4986   77   7.3794   49   -8.3  78    -11.4 0     0     1009.8   NA       0.0000   9999     3020  0     0    
2019/08/01  02:53:00  BASE  3.19284  59   7.3794   49   -8.2  78    -11.3 0     0     1009.8   NA       0.0000   9999     3020  0     0    
2019/08/01  02:54:00  BASE  3.38688  63   7.3794   49   -8.1  78    -11.3 0     0     1009.8   NA       0.0000   9999     0     0     0    
2019/08/01  02:55:00  BASE  3.82788  70   7.3794   49   -8.2  77    -11.4 0     0     1009.8   NA       0.0000   9999     2990  0     0    
2019/08/01  02:56:00  BASE  5.42136  56   7.83216  45   -8.3  77    -11.6 0     0     1009.7   NA       0.0000   9999     0     0     0    
2019/08/01  02:57:00  BASE  7.09716  44   7.83216  45   -8.4  77    -11.8 0     0     1009.6   NA       0.0000   9999     0     0     0    
2019/08/01  02:58:00  BASE  7.00896  42   7.83216  45   -8.6  76    -12.1 0     0     1009.6   NA       0.0000   9999     0     0     0    
2019/08/01  02:59:00  BASE  6.4974   46   7.83216  45   -8.8  76    -12.3 0     0     1009.7   NA       0.0000   9999     0     0     0    
2019/08/01  03:00:00  BASE  4.96272  61   7.83216  45   -8.9  77    -12.2 0     0     1009.7   NA       0.0000   9999     0     0     0    
2019/08/01  03:01:00  BASE  4.09836  83   7.83216  45   -8.9  77    -12.2 0     0     1009.7   NA       0.0000   9999     0     0     0    
2019/08/01  03:02:00  BASE  4.1454   93   7.83216  45   -8.8  77    -12.1 0     0     1009.7   NA       0.0000   9999     0     0     0    
2019/08/01  03:03:00  BASE  4.06896  85   7.83216  45   -8.7  78    -11.9 0     0     1009.7   NA       0.0000   9999     0     0     0    
2019/08/01  03:04:00  BASE  3.9984   71   7.83216  45   -8.6  78    -11.8 0     0     1009.7   NA       0.0000   9999     0     0     0    
2019/08/01  03:05:00  BASE  4.57464  55   7.83216  45   -8.6  78    -11.8 0     0     1009.5   NA       0.0000   9999     0     0     0    
2019/08/01  03:06:00  BASE  6.09756  43   7.86744  34   -8.6  77    -11.8 0     0     1009.5   NA       0.0000   9999     0     0     0    
2019/08/01  03:07:00  BASE  7.23828  36   8.19672  32   -8.6  77    -11.9 0     0     1009.4   NA       0.0000   9999     0     0     0    
2019/08/01  03:08:00  BASE  7.42644  34   8.19672  32   -8.7  77    -12.0 0     0     1009.4   NA       0.0000   9999     0     0     0    
2019/08/01  03:09:00  BASE  6.52092  38   8.19672  32   -8.8  77    -12.0 0     0     1009.5   NA       0.0000   9999     0     0     0    
2019/08/01  03:10:00  BASE  5.62716  41   8.19672  32   -8.8  77    -12.1 0     0     1009.5   NA       0.0000   9999     0     0     0    
2019/08/01  03:11:00  BASE  5.50956  39   8.19672  32   -8.8  78    -12.0 0     0     1009.4   NA       0.0000   9999     0     0     0    
2019/08/01  03:12:00  BASE  6.22692  41   8.19672  32   -8.8  78    -11.9 0     0     1009.4   NA       0.0000   9999     0     0     0    
2019/08/01  03:13:00  BASE  6.74436  41   8.19672  32   -8.7  79    -11.8 0     0     1009.4   NA       0.0000   9999     0     0     0    
2019/08/01  03:14:00  BASE  6.42096  41   8.19672  32   -8.7  79    -11.7 0     0     1009.4   NA       0.0000   9999     0     0     0    
2019/08/01  03:15:00  BASE  5.96232  47   8.19672  32   -8.6  79    -11.6 0     0     1009.4   NA       0.0000   9999     0     0     0    
2019/08/01  03:16:00  BASE  6.22692  47   8.19672  32   -8.6  79    -11.6 0     0     1009.4   NA       0.0000   9999     0     0     0    
2019/08/01  03:17:00  BASE  6.91488  45   8.13792  48   -8.6  79    -11.6 0     0     1009.4   NA       0.0000   9999     0     0     0    
2019/08/01  03:18:00  BASE  7.54992  46   9.25512  54   -8.7  79    -11.6 0     0     1009.4   NA       0.0000   9999     0     0     0    
2019/08/01  03:19:00  BASE  7.67928  39   9.25512  54   -8.8  79    -11.8 0     0     1009.3   NA       0.0000   9999     0     0     0    
2019/08/01  03:20:00  BASE  7.80864  35   9.80196  33   -8.8  79    -11.9 0     0     1009.3   NA       0.0000   9999     0     0     0    
2019/08/01  03:21:00  BASE  7.93212  36   9.80196  33   -8.9  79    -11.9 0     0     1009.4   NA       0.0000   9999     0     0     0    
2019/08/01  03:22:00  BASE  7.80864  35   9.80196  33   -8.9  79    -12.0 0     0     1009.4   NA       0.0000   9999     0     0     0    
2019/08/01  03:23:00  BASE  7.87332  31   9.80196  33   -9.0  79    -12.0 0     0     1009.4   NA       0.0000   9999     0     0     0    
2019/08/01  03:24:00  BASE  7.1148   32   9.80196  33   -8.9  79    -11.9 0     0     1009.5   NA       0.0000   9999     0     0     0    
2019/08/01  03:25:00  BASE  6.027    34   9.80196  33   -8.9  79    -11.9 0     0     1009.6   NA       0.0000   9999     0     0     0    
2019/08/01  03:26:00  BASE  5.97996  34   9.80196  33   -8.9  79    -11.9 0     0     1009.5   NA       0.0000   9999     0     0     0    
2019/08/01  03:27:00  BASE  5.7036   36   9.80196  33   -8.9  79    -11.9 0     0     1009.6   NA       0.0000   9999     0     0     0    
2019/08/01  03:28:00  BASE  5.3214   40   9.80196  33   -8.9  79    -11.9 0     0     1009.6   NA       0.0000   9999     0     0     0    
2019/08/01  03:29:00  BASE  5.41548  38   9.80196  33   -8.9  79    -11.9 0     0     1009.6   NA       0.0000   9999     0     0     0    
2019/08/01  03:30:00  BASE  4.93332  41   9.70788  28   -8.8  79    -11.8 0     0     1009.6   NA       0.0000   9999     0     0     0    
2019/08/01  03:31:00  BASE  5.59776  46   9.70788  28   -8.8  79    -11.8 0     0     1009.6   NA       0.0000   9999     0     0     0    
2019/08/01  03:32:00  BASE  6.98544  38   9.70788  28   -8.8  79    -11.8 0     0     1009.6   NA       0.0000   9999     0     0     0    
2019/08/01  03:33:00  BASE  6.96192  32   8.04384  36   -8.7  79    -11.8 0     0     1009.6   NA       0.0000   9999     0     0     0    
2019/08/01  03:34:00  BASE  6.48564  39   8.04384  36   -8.7  78    -11.8 0     0     1009.6   NA       0.0000   9999     0     0     0    
2019/08/01  03:35:00  BASE  6.8502   39   8.59068  31   -8.8  78    -11.9 0     0     1009.5   NA       0.0000   9999     0     0     0    
2019/08/01  03:36:00  BASE  7.36176  33   8.59068  31   -8.9  78    -12.0 0     0     1009.5   NA       0.0000   9999     0     0     0    
2019/08/01  03:37:00  BASE  7.13244  32   8.59068  31   -9.0  79    -12.0 0     0     1009.5   NA       0.0000   9999     0     0     0    
2019/08/01  03:38:00  BASE  6.57972  35   8.59068  31   -9.0  79    -12.1 0     0     1009.5   NA       0.0000   9999     0     0     0    
2019/08/01  03:39:00  BASE  6.77964  36   8.59068  31   -9.0  79    -12.0 0     0     1009.5   NA       0.0000   9999     0     0     0    
2019/08/01  03:40:00  BASE  7.13832  34   8.59068  31   -9.0  79    -11.9 0     0     1009.6   NA       0.0000   9999     0     0     0    
2019/08/01  03:41:00  BASE  6.79728  34   8.59068  31   -9.0  79    -12.0 0     0     1009.6   NA       0.0000   9999     0     0     0    
2019/08/01  03:42:00  BASE  6.12696  35   8.59068  31   -9.0  79    -12.0 0     0     1009.6   NA       0.0000   9999     0     0     0    
2019/08/01  03:43:00  BASE  5.68596  34   8.59068  31   -9.1  78    -12.1 0     0     1009.6   NA       0.0000   9999     0     0     0    
2019/08/01  03:44:00  BASE  5.80356  33   8.59068  31   -9.1  78    -12.2 0     0     1009.6   NA       0.0000   9999     0     0     0    
2019/08/01  03:45:00  BASE  5.36256  34   8.19672  28   -9.1  78    -12.2 0     0     1009.6   NA       0.0000   9999     0     0     0    
2019/08/01  03:46:00  BASE  5.12736  36   7.86744  33   -9.0  79    -12.1 0     0     1009.7   NA       0.0000   9999     0     0     0    
2019/08/01  03:47:00  BASE  6.19752  34   7.92624  25   -8.9  79    -12.0 0     0     1009.6   NA       0.0000   9999     0     0     0    
2019/08/01  03:48:00  BASE  7.35     31   8.77296  30   -8.9  79    -11.9 0     0     1009.6   NA       0.0000   9999     0     0     0    
2019/08/01  03:49:00  BASE  8.19672  32   9.22572  24   -8.9  78    -12.0 0     0     1009.5   NA       0.0000   9999     0     0     0    
2019/08/01  03:50:00  BASE  8.526    29   9.59028  27   -8.9  78    -12.0 0     0     1009.5   NA       0.0000   9999     0     0     0    
2019/08/01  03:51:00  BASE  8.526    25   9.59028  27   -8.9  78    -12.1 0     0     1009.5   NA       0.0000   9999     0     0     0    
2019/08/01  03:52:00  BASE  8.36136  28   9.59028  27   -8.9  78    -12.1 0     0     1009.5   NA       0.0000   9999     0     0     0    
2019/08/01  03:53:00  BASE  8.01444  29   9.59028  27   -8.9  78    -12.0 0     0     1009.5   NA       0.0000   9999     0     0     0    
2019/08/01  03:54:00  BASE  7.44996  31   9.59028  27   -8.9  78    -11.9 0     0     1009.6   NA       0.0000   9999     0     0     0    
2019/08/01  03:55:00  BASE  7.69692  32   9.59028  27   -8.9  78    -11.9 0     0     1009.4   NA       0.0000   9999     0     0     0    
2019/08/01  03:56:00  BASE  8.46132  32   9.77256  35   -8.9  78    -12.0 0     0     1009.4   NA       0.0000   9999     0     0     0    
2019/08/01  03:57:00  BASE  7.74984  37   9.77256  35   -8.9  78    -12.1 0     0     1009.5   NA       0.0000   9999     0     0     0    
2019/08/01  03:58:00  BASE  7.6146   35   9.77256  35   -9.0  78    -12.2 0     0     1009.4   NA       0.0000   9999     0     0     0    
2019/08/01  03:59:00  BASE  8.4672   30   9.77256  35   -9.0  78    -12.1 0     0     1009.4   NA       0.0000   9999     0     0     0    
2019/08/01  04:00:00  BASE  8.7612   28   9.77256  35   -9.0  78    -12.1 0     0     1009.4   NA       0.0000   9999     0     0     0    
2019/08/01  04:01:00  BASE  8.54952  28   9.77256  35   -9.0  79    -12.0 0     0     1009.4   NA       0.0000   9999     0     0     0    
2019/08/01  04:02:02  BASE  8.54364  29   9.77256  35   -8.9  79    -11.9 0     0     M        NA       0.0000   M        0     0     0    
2019/08/01  04:03:00  BASE  8.63184  33   9.80196  33   -8.9  79    -11.9 0     0     1009.4   NA       0.0000   9999     0     0     0    
2019/08/01  04:04:00  BASE  8.89644  35   9.80196  33   -8.9  79    -11.9 0     0     1009.4   NA       0.0000   9999     0     0     0    
2019/08/01  04:05:00  BASE  7.97328  34   9.80196  33   -8.9  79    -11.9 0     0     1009.5   NA       0.0000   9999     0     0     0    
2019/08/01  04:06:00  BASE  6.82668  31   9.80196  33   -9.0  79    -12.0 0     0     1009.5   NA       0.0000   9999     0     0     0    
2019/08/01  04:07:00  BASE  7.30296  29   9.80196  33   -9.0  79    -11.9 0     0     1009.4   NA       0.0000   9999     0     0     0    
2019/08/01  04:08:00  BASE  8.1144   31   9.80196  33   -9.0  79    -12.0 0     0     1009.4   NA       0.0000   9999     0     0     0    
2019/08/01  04:09:00  BASE  7.82628  32   9.80196  33   -9.1  79    -12.0 0     0     1009.4   NA       0.0000   9999     0     0     0    
2019/08/01  04:10:00  BASE  7.67928  34   9.80196  33   -9.1  79    -12.0 0     0     1009.4   NA       0.0000   9999     0     0     0    
2019/08/01  04:11:00  BASE  8.24964  34   9.80196  33   -9.1  79    -12.1 0     0     1009.3   NA       0.0000   9999     0     0     0    
2019/08/01  04:12:00  BASE  8.7612   33   9.91956  31   -9.2  79    -12.1 0     0     1009.2   NA       0.0000   9999     0     0     0    
2019/08/01  04:13:01  BASE  9.07872  30   9.91956  31   -9.2  79    -12.1 0     0     1009.2   NA       0.0000   9999     0     0     0    
2019/08/01  04:14:01  BASE  9.07284  29   9.91956  31   -9.3  80    -12.2 0     0     1009.2   NA       0.0000   9999     0     0     0    
2019/08/01  04:15:01  BASE  8.56128  31   9.91956  31   -9.4  80    -12.3 0     0     1009.2   NA       0.0000   9999     0     0     0    
2019/08/01  04:16:01  BASE  8.13792  29   9.91956  31   -9.5  80    -12.3 0     0     1009.2   NA       0.0000   9999     0     0     0    
2019/08/01  04:17:01  BASE  7.83216  29   9.91956  31   -9.6  80    -12.4 0     0     1009.2   NA       0.0000   9999     0     0     0    
2019/08/01  04:18:01  BASE  7.65576  30   9.91956  31   -9.6  80    -12.4 0     0     1009.2   NA       0.0000   9999     0     0     0    
2019/08/01  04:19:01  BASE  7.62636  32   9.91956  31   -9.6  80    -12.3 0     0     1009.2   NA       0.0000   9999     0     0     0    
2019/08/01  04:20:01  BASE  7.42644  36   9.91956  31   -9.6  81    -12.3 0     0     1009.2   NA       0.0000   9999     0     0     0    
2019/08/01  04:21:01  BASE  8.22612  38   9.91956  35   -9.5  81    -12.2 0     0     1009.2   NA       0.0000   9999     0     0     0    
2019/08/01  04:22:01  BASE  8.89056  38   9.91956  35   -9.5  81    -12.1 0     0     1009.2   NA       0.0000   9999     0     0     0    
2019/08/01  04:23:01  BASE  8.57304  41   9.91956  35   -9.5  82    -12.0 0     0     1009.3   NA       0.0000   9999     0     0     0    
2019/08/01  04:24:01  BASE  8.379    40   9.91956  35   -9.5  82    -12.0 0     0     1009.2   NA       0.0000   9999     0     0     0    
2019/08/01  04:25:01  BASE  8.16732  38   9.91956  35   -9.5  82    -12.0 0     0     1009.3   NA       0.0000   9999     0     0     0    
2019/08/01  04:26:01  BASE  8.41428  39   9.91956  35   -9.5  82    -12.0 0     0     1009.3   NA       0.0000   9999     0     0     0    
2019/08/01  04:27:01  BASE  8.83176  38   9.91956  33   -9.6  82    -12.1 0     0     1009.2   NA       0.0000   9999     0     0     0    
2019/08/01  04:28:01  BASE  8.33196  35   9.91956  33   -9.6  82    -12.1 0     0     1009.3   NA       0.0000   9999     2300  0     0    
2019/08/01  04:29:01  BASE  7.6734   36   9.91956  33   -9.6  82    -12.0 0     0     1009.4   NA       0.0000   9999     2170  0     0    
2019/08/01  04:30:01  BASE  7.54992  37   9.91956  33   -9.6  82    -12.0 0     0     1009.4   NA       0.0000   9999     2230  0     0    
2019/08/01  04:31:01  BASE  7.70868  36   9.91956  33   -9.6  82    -12.0 0     0     1009.4   NA       0.0000   9999     2200  0     0    
2019/08/01  04:32:01  BASE  8.22612  35   9.91956  33   -9.6  83    -12.0 0     0     1009.4   NA       0.0000   9999     2230  0     0    
2019/08/01  04:33:01  BASE  8.33196  36   9.91956  33   -9.6  83    -12.0 0     0     1009.4   NA       0.0000   9999     2330  0     0    
2019/08/01  04:34:01  BASE  8.22612  37   9.91956  33   -9.6  83    -12.0 0     0     1009.4   NA       0.0000   9999     2360  0     0    
2019/08/01  04:35:01  BASE  7.76748  36   9.91956  33   -9.6  83    -12.0 0     0     1009.4   NA       0.0000   9999     2070  0     0    
2019/08/01  04:36:01  BASE  7.7322   33   9.91956  33   -9.6  83    -11.9 0     0     1009.4   NA       0.0000   9999     2230  0     0    
2019/08/01  04:37:01  BASE  8.14968  32   9.59028  35   -9.6  83    -12.0 0     0     1009.4   NA       0.0000   9999     2260  0     0    
2019/08/01  04:38:01  BASE  8.3496   31   9.59028  35   -9.5  83    -11.9 0     0     1009.4   NA       0.0000   9999     2230  0     0    
2019/08/01  04:39:01  BASE  8.30256  33   9.59028  35   -9.5  83    -11.8 0     0     1009.4   NA       0.0000   9999     0     0     0    
2019/08/01  04:40:01  BASE  7.41468  35   9.59028  35   -9.5  83    -11.8 0     0     1009.5   NA       0.0000   9999     0     0     0    
2019/08/01  04:41:01  BASE  6.7326   36   9.59028  35   -9.4  84    -11.7 0     0     1009.5   NA       0.0000   9999     0     0     0    
2019/08/01  04:42:01  BASE  6.65616  35   9.5256   32   -9.4  84    -11.6 0     0     1009.5   NA       0.0000   9999     0     0     0    
2019/08/01  04:43:01  BASE  6.80316  34   9.5256   32   -9.4  84    -11.6 0     0     1009.5   NA       0.0000   9999     0     0     0    
2019/08/01  04:44:01  BASE  6.81492  36   9.5256   32   -9.4  84    -11.6 0     0     1009.5   NA       0.0000   9999     0     0     0    
2019/08/01  04:45:01  BASE  6.52092  35   9.5256   32   -9.4  84    -11.6 0     0     1009.5   NA       0.0000   9999     0     0     0    
2019/08/01  04:46:01  BASE  6.75612  31   9.5256   32   -9.4  84    -11.6 0     0     1009.5   NA       0.0000   9999     0     0     0    
2019/08/01  04:47:01  BASE  7.22064  25   9.5256   32   -9.4  84    -11.6 0     0     1009.4   NA       0.0000   9999     0     0     0    
2019/08/01  04:48:01  BASE  7.13832  25   8.71416  29   -9.4  84    -11.6 0     0     1009.4   NA       0.0000   9999     0     0     0    
2019/08/01  04:49:01  BASE  7.62636  27   8.77296  28   -9.4  84    -11.5 0     0     1009.4   NA       0.0000   9999     0     0     0    
2019/08/01  04:50:01  BASE  7.85568  29   8.77296  28   -9.3  84    -11.5 0     0     1009.5   NA       0.0000   9999     0     0     0    
2019/08/01  04:51:01  BASE  7.1442   31   8.77296  28   -9.4  84    -11.5 0     0     1009.4   NA       0.0000   9999     0     0     0    
2019/08/01  04:52:01  BASE  6.4386   31   8.77296  28   -9.4  84    -11.6 0     0     1009.5   NA       0.0000   9999     0     0     0    
2019/08/01  04:53:01  BASE  6.10932  32   8.77296  28   -9.5  84    -11.7 0     0     1009.5   NA       0.0000   9999     0     0     0    
2019/08/01  04:54:01  BASE  5.89176  32   8.77296  28   -9.5  84    -11.7 0     0     1009.5   NA       0.0000   9999     0     0     0    
2019/08/01  04:55:00  BASE  5.56836  35   8.77296  28   -9.5  84    -11.7 0     0     1009.5   NA       0.0000   9999     0     0     0    
2019/08/01  04:56:00  BASE  5.59776  38   8.77296  28   -9.5  84    -11.7 0     0     1009.5   NA       0.0000   9999     0     0     0    
2019/08/01  04:57:00  BASE  5.84472  38   8.77296  28   -9.6  84    -11.8 0     0     1009.5   NA       0.0000   9999     0     0     0    
2019/08/01  04:58:00  BASE  5.72124  40   8.77296  28   -9.7  84    -11.9 0     0     1009.4   NA       0.0000   9999     0     0     0    
2019/08/01  04:59:01  BASE  5.4096   38   8.16732  26   -9.7  84    -11.9 0     0     1009.4   NA       0.0000   9999     0     0     0    
2019/08/01  05:00:00  BASE  4.97448  35   7.47348  35   -9.7  84    -11.9 0     0     1009.5   NA       0.0000   9999     0     0     0    
2019/08/01  05:01:00  BASE  4.72164  34   6.71496  27   -9.7  84    -11.9 0     0     1009.5   NA       0.0000   9999     0     0     0    
2019/08/01  05:02:00  BASE  4.53348  31   6.65616  28   -9.6  84    -11.8 0     0     1009.5   NA       0.0000   9999     0     0     0    
2019/08/01  05:03:00  BASE  4.38648  30   6.44448  39   -9.5  84    -11.7 0     0     1009.5   NA       0.0000   9999     0     0     0    
2019/08/01  05:04:00  BASE  4.22772  30   6.44448  39   -9.5  84    -11.7 0     0     1009.5   NA       0.0000   9999     0     0     0    
2019/08/01  05:05:01  BASE  4.06308  34   6.44448  39   -9.4  84    -11.7 0     0     1009.5   NA       0.0000   9999     0     0     0    
2019/08/01  05:06:00  BASE  4.2042   36   6.44448  39   -9.3  83    -11.6 0     0     1009.5   NA       0.0000   9999     0     0     0    
2019/08/01  05:07:00  BASE  4.27476  33   5.89764  38   -9.3  83    -11.7 0     0     1009.5   NA       0.0000   9999     0     0     0    
2019/08/01  05:08:00  BASE  4.4394   33   5.86824  34   -9.3  83    -11.7 0     0     1009.5   NA       0.0000   9999     0     0     0    
2019/08/01  05:09:00  BASE  4.60404  35   5.1744   34   -9.4  82    -11.8 0     0     1009.6   NA       0.0000   9999     0     0     0    
2019/08/01  05:10:00  BASE  4.3512   35   4.93332  32   -9.4  82    -11.9 0     0     1009.6   NA       0.0000   9999     0     0     0    
2019/08/01  05:11:00  BASE  3.86316  37   4.89804  31   -9.5  82    -12.1 0     0     1009.6   NA       0.0000   9999     0     0     0    
2019/08/01  05:12:00  BASE  3.53976  38   4.86864  34   -9.6  82    -12.1 0     0     1009.6   NA       0.0000   9999     0     0     0    
2019/08/01  05:13:00  BASE  3.40452  37   4.86864  34   -9.6  82    -12.1 0     0     1009.6   NA       0.0000   9999     0     0     0    
2019/08/01  05:14:00  BASE  3.1752   34   4.86864  34   -9.6  82    -12.1 0     0     1009.6   NA       0.0000   9999     0     0     0    
2019/08/01  05:15:00  BASE  3.21048  31   4.86864  34   -9.6  82    -12.1 0     0     1009.6   NA       0.0000   9999     0     0     0    
2019/08/01  05:16:00  BASE  3.46332  33   4.86864  34   -9.6  82    -12.1 0     0     1009.6   NA       0.0000   9999     0     0     0    
2019/08/01  05:17:00  BASE  3.48096  36   4.86864  34   -9.6  82    -12.1 0     0     1009.6   NA       0.0000   9999     0     0     0    
2019/08/01  05:18:00  BASE  3.39276  38   4.86864  34   -9.6  82    -12.2 0     0     1009.6   NA       0.0000   9999     0     0     0    
2019/08/01  05:19:00  BASE  2.8518   45   4.38648  38   -9.6  82    -12.2 0     0     1009.6   NA       0.0000   9999     0     0     0    
2019/08/01  05:20:00  BASE  2.39904  54   3.96312  41   -9.6  82    -12.1 0     0     1009.6   NA       0.0000   9999     0     0     0    
2019/08/01  05:21:00  BASE  2.51076  63   3.90432  40   -9.6  82    -12.1 0     0     1009.6   NA       0.0000   9999     0     0     0    
2019/08/01  05:22:00  BASE  2.38728  67   3.90432  40   -9.5  82    -12.0 0     0     1009.6   NA       0.0000   9999     0     0     0    
2019/08/01  05:23:00  BASE  2.1462   70   3.90432  40   -9.4  82    -11.9 0     0     1009.6   NA       0.0000   9999     0     0     0    
2019/08/01  05:24:00  BASE  2.18736  75   3.90432  40   -9.4  82    -11.9 0     0     1009.6   NA       0.0000   9999     0     0     0    
2019/08/01  05:25:00  BASE  2.32848  77   3.90432  40   -9.4  82    -11.9 0     0     1009.6   NA       0.0000   9999     0     0     0    
2019/08/01  05:26:00  BASE  2.5872   75   3.90432  40   -9.3  81    -11.9 0     0     1009.6   NA       0.0000   9999     0     0     0    
2019/08/01  05:27:00  BASE  2.66952  69   3.72204  38   -9.2  81    -11.9 0     0     1009.6   NA       0.0000   9999     0     0     0    
2019/08/01  05:28:00  BASE  2.38728  72   3.02232  65   -9.2  81    -11.9 0     0     1009.6   NA       0.0000   9999     0     0     0    
2019/08/01  05:29:00  BASE  2.06976  82   3.02232  65   -9.2  80    -12.0 0     0     1009.6   NA       0.0000   9999     0     0     0    
2019/08/01  05:30:00  BASE  2.15208  80   3.02232  65   -9.3  80    -12.1 0     0     1009.6   NA       0.0000   9999     0     0     0    
2019/08/01  05:31:00  BASE  2.37552  76   2.90472  82   -9.3  80    -12.2 0     0     1009.6   NA       0.0000   9999     0     0     0    
2019/08/01  05:32:00  BASE  2.38728  84   2.90472  82   -9.4  79    -12.4 0     0     1009.6   NA       0.0000   9999     0     0     0    
2019/08/01  05:33:00  BASE  2.35788  90   2.90472  82   -9.5  78    -12.6 0     0     1009.6   NA       0.0000   9999     0     0     0    
2019/08/01  05:34:00  BASE  2.49312  84   3.087    78   -9.6  78    -12.7 0     0     1009.6   NA       0.0000   9999     0     0     0    
2019/08/01  05:35:00  BASE  2.7048   77   3.1458   77   -9.7  78    -12.9 0     0     1009.7   NA       0.0000   9999     0     0     0    
2019/08/01  05:36:00  BASE  2.98704  76   3.53976  77   -9.8  77    -13.0 0     0     1009.7   NA       0.0000   9999     0     0     0    
2019/08/01  05:37:00  BASE  3.27516  77   3.62796  75   -9.8  77    -13.1 0     0     1009.7   NA       0.0000   9999     0     0     0    
2019/08/01  05:38:00  BASE  3.37512  75   3.69264  65   -9.9  77    -13.2 0     0     1009.7   NA       0.0000   9999     0     0     0    
2019/08/01  05:39:00  BASE  3.43392  75   3.69264  77   -9.9  77    -13.2 0     0     1009.7   NA       0.0000   9999     0     0     0    
2019/08/01  05:40:00  BASE  3.34572  76   3.69264  77   -9.9  77    -13.2 0     0     1009.7   NA       0.0000   9999     0     0     0    
2019/08/01  05:41:00  BASE  3.48684  80   3.93372  87   -9.9  77    -13.2 0     0     1009.7   NA       0.0000   9999     0     0     0    
2019/08/01  05:42:00  BASE  3.675    87   3.93372  87   -10.0 77    -13.3 0     0     1009.7   NA       0.0000   9999     0     0     0    
2019/08/01  05:43:00  BASE  3.44568  87   3.93372  87   -10.0 77    -13.3 0     0     1009.7   NA       0.0000   9999     0     0     0    
2019/08/01  05:44:00  BASE  3.31044  87   3.93372  87   -10.0 77    -13.3 0     0     1009.7   NA       0.0000   9999     0     0     0    
2019/08/01  05:45:00  BASE  3.19284  87   3.93372  87   -9.9  77    -13.2 0     0     1009.7   NA       0.0000   9999     0     0     0    
2019/08/01  05:46:00  BASE  2.95176  87   3.93372  87   -9.9  77    -13.1 0     0     1009.7   NA       0.0000   9999     0     0     0    
2019/08/01  05:47:00  BASE  2.77536  89   3.93372  87   -9.8  77    -13.0 0     0     1009.7   NA       0.0000   9999     0     0     0    
2019/08/01  05:48:00  BASE  2.8812   89   3.93372  87   -9.8  78    -13.0 0     0     1009.7   NA       0.0000   9999     0     0     0    
2019/08/01  05:49:00  BASE  2.92824  79   3.93372  87   -9.7  78    -12.8 0     0     1009.7   NA       0.0000   9999     0     0     0    
2019/08/01  05:50:00  BASE  2.80476  69   3.93372  87   -9.6  78    -12.8 0     0     1009.7   NA       0.0000   9999     0     0     0    
2019/08/01  05:51:00  BASE  3.1458   64   3.93372  87   -9.6  78    -12.7 0     0     1009.7   NA       0.0000   9999     0     0     0    
2019/08/01  05:52:00  BASE  3.60444  61   4.2042   52   -9.6  78    -12.7 0     0     1009.7   NA       0.0000   9999     0     0     0    
2019/08/01  05:53:00  BASE  3.822    63   4.263    64   -9.5  78    -12.6 0     0     1009.7   NA       0.0000   9999     0     0     0    
2019/08/01  05:54:00  BASE  3.82788  69   4.44528  75   -9.5  79    -12.5 0     0     1009.7   NA       0.0000   9999     0     0     0    
2019/08/01  05:55:00  BASE  3.73968  75   4.44528  75   -9.5  79    -12.5 0     0     1009.7   NA       0.0000   9999     0     0     0    
2019/08/01  05:56:00  BASE  3.85728  81   4.53936  92   -9.5  79    -12.5 0     0     1009.7   NA       0.0000   9999     0     0     0    
2019/08/01  05:57:00  BASE  4.06896  86   4.62756  90   -9.5  79    -12.4 0     0     1009.6   NA       0.0000   9999     0     0     0    
2019/08/01  05:58:00  BASE  3.9102   80   4.62756  90   -9.6  79    -12.5 0     0     1009.6   NA       0.0000   9999     0     0     0    
2019/08/01  05:59:00  BASE  3.86316  78   4.62756  90   -9.7  79    -12.7 0     0     1009.6   NA       0.0000   9999     0     0     0    
2019/08/01  06:00:00  BASE  4.12776  85   4.93332  87   -9.9  79    -12.8 0     0     1009.6   NA       0.0000   9999     0     0     0    
2019/08/01  06:01:00  BASE  4.23948  83   5.2038   82   -9.9  79    -12.8 0     0     1009.6   NA       0.0000   9999     0     0     0    
2019/08/01  06:02:00  BASE  4.29828  84   5.2038   82   -9.8  80    -12.7 0     0     1009.7   NA       0.0000   9999     0     0     0    
2019/08/01  06:03:00  BASE  4.22184  84   5.2038   82   -9.7  80    -12.6 0     0     1009.7   NA       0.0000   9999     0     0     0    
2019/08/01  06:04:00  BASE  4.2336   80   5.2038   82   -9.6  80    -12.4 0     0     1009.7   NA       0.0000   9999     0     0     0    
2019/08/01  06:05:00  BASE  4.42176  78   5.2038   82   -9.5  80    -12.3 0     0     1009.7   NA       0.0000   9999     0     0     0    
2019/08/01  06:06:00  BASE  4.4394   81   5.2038   82   -9.4  80    -12.2 0     0     1009.7   NA       0.0000   9999     0     0     0    
2019/08/01  06:07:00  BASE  4.40412  83   5.2038   82   -9.4  80    -12.2 0     0     1009.7   NA       0.0000   9999     2590  0     0    
2019/08/01  06:08:00  BASE  4.48056  84   5.2038   82   -9.5  80    -12.3 0     0     1009.7   NA       0.0000   9999     2560  0     0    
2019/08/01  06:09:00  BASE  4.81572  81   5.38608  82   -9.5  80    -12.3 0     0     1009.7   NA       0.0000   9999     2490  0     0    
2019/08/01  06:10:00  BASE  4.65108  76   5.38608  82   -9.5  80    -12.3 0     0     1009.7   NA       0.0000   9999     2490  0     0    
2019/08/01  06:11:00  BASE  4.36296  78   5.38608  82   -9.5  80    -12.3 0     0     1009.7   NA       0.0000   9999     2460  0     0    
2019/08/01  06:12:00  BASE  4.29828  82   5.38608  82   -9.5  80    -12.3 0     0     1009.7   NA       0.0000   9999     2460  0     0    
2019/08/01  06:13:00  BASE  3.94548  83   5.38608  82   -9.5  80    -12.4 0     0     1009.7   NA       0.0000   9999     2560  0     0    
2019/08/01  06:14:00  BASE  4.03368  83   5.38608  82   -9.5  79    -12.4 0     0     1009.7   NA       0.0000   9999     2460  0     0    
2019/08/01  06:15:00  BASE  4.21008  83   5.38608  82   -9.6  79    -12.5 0     0     1009.7   NA       0.0000   9999     2490  0     0    
2019/08/01  06:16:00  BASE  4.12188  79   5.38608  82   -9.6  79    -12.6 0     0     1009.7   NA       0.0000   9999     0     0     0    
2019/08/01  06:17:00  BASE  3.99252  82   5.38608  82   -9.6  79    -12.6 0     0     1009.7   NA       0.0000   9999     2460  0     0    
2019/08/01  06:18:00  BASE  3.8808   82   5.38608  82   -9.6  79    -12.6 0     0     1009.7   NA       0.0000   9999     2490  0     0    
2019/08/01  06:19:00  BASE  3.82788  77   5.02152  76   -9.6  79    -12.5 0     0     1009.7   NA       0.0000   9999     0     0     0    
2019/08/01  06:20:00  BASE  3.49272  81   5.02152  76   -9.6  79    -12.5 0     0     1009.7   NA       0.0000   9999     2490  0     0    
2019/08/01  06:21:00  BASE  3.087    83   5.02152  76   -9.6  79    -12.6 0     0     1009.7   NA       0.0000   9999     2490  0     0    
2019/08/01  06:22:00  BASE  3.31044  78   5.02152  76   -9.6  79    -12.6 0     0     1009.7   NA       0.0000   9999     0     0     0    
2019/08/01  06:23:00  BASE  3.74556  75   5.02152  76   -9.6  79    -12.6 0     0     1009.7   NA       0.0000   9999     0     0     0    
2019/08/01  06:24:00  BASE  3.98664  77   5.02152  76   -9.7  79    -12.7 0     0     1009.7   NA       0.0000   9999     0     0     0    
2019/08/01  06:25:00  BASE  3.92784  76   4.93332  70   -9.8  79    -12.8 0     0     1009.7   NA       0.0000   9999     2530  0     0    
2019/08/01  06:26:00  BASE  3.82788  73   4.65696  74   -9.7  79    -12.6 0     0     1009.7   NA       0.0000   9999     2460  0     0    
2019/08/01  06:27:00  BASE  3.90432  73   4.65696  74   -9.7  79    -12.7 0     0     1009.6   NA       0.0000   9999     0     0     0    
2019/08/01  06:28:00  BASE  3.65736  73   4.65696  74   -9.9  79    -12.8 0     0     1009.6   NA       0.0000   9999     0     0     0    
2019/08/01  06:29:00  BASE  3.75144  75   4.68636  74   -9.8  79    -12.7 0     0     1009.6   NA       0.0000   9999     2460  0     0    
2019/08/01  06:30:00  BASE  4.22184  75   4.72164  68   -9.8  79    -12.7 0     0     1009.5   NA       0.0000   9999     0     0     0    
2019/08/01  06:31:00  BASE  4.09836  75   4.72164  68   -9.9  79    -12.8 0     0     1009.5   NA       0.0000   9999     0     0     0    
2019/08/01  06:32:00  BASE  4.13364  77   4.72164  68   -9.9  80    -12.8 0     0     1009.5   NA       0.0000   9999     0     0     0    
2019/08/01  06:33:00  BASE  4.40412  74   4.80984  68   -9.9  80    -12.7 0     0     1009.5   NA       0.0000   9999     0     0     0    
2019/08/01  06:34:00  BASE  4.16304  76   4.80984  68   -9.9  80    -12.7 0     0     1009.5   NA       0.0000   9999     0     0     0    
2019/08/01  06:35:00  BASE  4.28652  79   5.145    79   -10.0 80    -12.8 0     0     1009.5   NA       0.0000   9999     0     0     0    
2019/08/01  06:36:00  BASE  4.53348  78   5.2038   74   -10.0 80    -12.9 0     0     1009.5   NA       0.0000   9999     0     0     0    
2019/08/01  06:37:00  BASE  4.15716  79   5.2038   74   -10.0 80    -12.8 0     0     1009.5   NA       0.0000   9999     0     0     0    
2019/08/01  06:38:00  BASE  3.7632   81   5.2038   74   -10.1 80    -12.9 0     0     1009.5   NA       0.0000   9999     0     0     0    
2019/08/01  06:39:00  BASE  3.83376  77   5.2038   74   -10.1 80    -12.9 0     0     1009.5   NA       0.0000   9999     0     0     0    
2019/08/01  06:40:00  BASE  3.93372  76   5.2038   74   -10.0 80    -12.8 0     0     1009.6   NA       0.0000   9999     0     0     0    
2019/08/01  06:41:00  BASE  3.9396   79   5.2038   74   -10.0 80    -12.8 0     0     1009.6   NA       0.0000   9999     0     0     0    
2019/08/01  06:42:00  BASE  4.16892  82   5.2038   74   -9.9  80    -12.7 0     0     1009.6   NA       0.0000   9999     0     0     0    
2019/08/01  06:43:00  BASE  4.18068  77   5.2038   74   -9.8  80    -12.6 0     0     1009.5   NA       0.0000   9999     0     0     0    
2019/08/01  06:44:00  BASE  4.06896  74   5.2038   74   -9.7  80    -12.5 0     0     1009.6   NA       0.0000   9999     0     0     0    
2019/08/01  06:45:00  BASE  4.05132  71   5.2038   74   -9.7  80    -12.5 0     0     1009.6   NA       0.0000   9999     0     0     0    
2019/08/01  06:46:00  BASE  3.7044   69   4.86864  77   -9.7  80    -12.5 0     0     1009.6   NA       0.0000   9999     0     0     0    
2019/08/01  06:47:00  BASE  3.43392  70   4.86864  77   -9.7  80    -12.6 0     0     1009.6   NA       0.0000   9999     0     0     0    
2019/08/01  06:48:00  BASE  3.381    70   4.86864  77   -9.8  80    -12.6 0     0     1009.6   NA       0.0000   9999     0     0     0    
2019/08/01  06:49:00  BASE  3.16932  72   4.86864  77   -9.8  80    -12.6 0     0     1009.6   NA       0.0000   9999     0     0     0    
2019/08/01  06:50:00  BASE  3.00468  78   4.86864  77   -9.9  80    -12.8 0     0     1009.5   NA       0.0000   9999     0     0     0    
2019/08/01  06:51:00  BASE  3.087    84   4.86864  77   -10.1 80    -12.9 0     0     1009.5   NA       0.0000   9999     0     0     0    
2019/08/01  06:52:00  BASE  3.234    79   4.86864  77   -10.1 80    -12.9 0     0     1009.5   NA       0.0000   9999     0     0     0    
2019/08/01  06:53:00  BASE  3.40452  75   4.86864  77   -10.1 80    -12.9 0     0     1009.5   NA       0.0000   9999     0     0     0    
2019/08/01  06:54:00  BASE  3.53976  70   4.53936  72   -10.1 80    -12.8 0     0     1009.5   NA       0.0000   9999     0     0     0    
2019/08/01  06:55:00  BASE  3.25164  67   4.29828  69   -9.9  81    -12.6 0     0     1009.5   NA       0.0000   9999     0     0     0    
2019/08/01  06:56:00  BASE  2.65188  69   4.29828  69   -9.8  81    -12.5 0     0     1009.4   NA       0.0000   9999     0     0     0    
2019/08/01  06:57:00  BASE  2.4402   75   4.29828  69   -9.9  81    -12.6 0     0     1009.4   NA       0.0000   9999     0     0     0    
2019/08/01  06:58:00  BASE  2.59308  81   4.29828  69   -9.9  81    -12.6 0     0     1009.4   NA       0.0000   9999     0     0     0    
2019/08/01  06:59:00  BASE  3.02232  77   4.29828  69   -9.8  81    -12.5 0     0     1009.4   NA       0.0000   9999     0     0     0    
2019/08/01  07:00:00  BASE  3.46332  70   4.29828  69   -9.8  81    -12.5 0     0     1009.4   NA       0.0000   9999     0     0     0    
2019/08/01  07:01:00  BASE  3.45156  67   4.29828  69   -9.7  81    -12.4 0     0     1009.4   NA       0.0000   9999     0     0     0    
2019/08/01  07:02:00  BASE  3.1164   68   4.29828  69   -9.6  81    -12.2 0     0     1009.4   NA       0.0000   9999     0     0     0    
2019/08/01  07:03:00  BASE  2.78124  75   4.1454   66   -9.5  81    -12.2 0     0     1009.4   NA       0.0000   9999     0     0     0    
2019/08/01  07:04:00  BASE  2.78124  83   3.90432  71   -9.6  81    -12.3 0     0     1009.3   NA       0.0000   9999     0     0     0    
2019/08/01  07:05:00  BASE  2.8224   86   3.90432  71   -9.7  81    -12.4 0     0     1009.2   NA       0.0000   9999     0     0     0    
2019/08/01  07:06:00  BASE  3.01056  80   3.90432  71   -9.9  81    -12.6 0     0     1009.2   NA       0.0000   9999     0     0     0    
2019/08/01  07:07:00  BASE  3.28104  71   3.90432  71   -10.0 81    -12.7 0     0     1009.2   NA       0.0000   9999     0     0     0    
2019/08/01  07:08:00  BASE  3.35748  68   3.90432  71   -10.0 81    -12.7 0     0     1009.2   NA       0.0000   9999     0     0     0    
2019/08/01  07:09:00  BASE  3.381    68   3.81024  74   -10.0 81    -12.6 0     0     1009.2   NA       0.0000   9999     0     0     0    
2019/08/01  07:10:00  BASE  3.18108  67   3.62796  69   -9.9  81    -12.5 0     0     1009.2   NA       0.0000   9999     0     0     0    
2019/08/01  07:11:00  BASE  3.12816  70   3.62796  69   -9.8  81    -12.4 0     0     1009.1   NA       0.0000   9999     0     0     0    
2019/08/01  07:12:00  BASE  3.28692  70   3.81024  62   -9.9  81    -12.5 0     0     1009.1   NA       0.0000   9999     0     0     0    
2019/08/01  07:13:00  BASE  3.39864  65   3.81024  62   -9.9  81    -12.5 0     0     1009.1   NA       0.0000   9999     0     0     0    
2019/08/01  07:14:00  BASE  3.22224  65   3.81024  62   -10.0 81    -12.6 0     0     1009.1   NA       0.0000   9999     0     0     0    
2019/08/01  07:15:00  BASE  3.00468  69   3.81024  62   -10.1 81    -12.6 0     0     1009.1   NA       0.0000   9999     0     0     0    
2019/08/01  07:16:00  BASE  2.99292  74   3.81024  62   -10.1 82    -12.7 0     0     1009.1   NA       0.0000   9999     0     0     0    
2019/08/01  07:17:00  BASE  2.8518   77   3.81024  62   -10.1 82    -12.6 0     0     1009.1   NA       0.0000   9999     0     0     0    
2019/08/01  07:18:00  BASE  2.80476  74   3.81024  62   -10.0 82    -12.4 0     0     1009.1   NA       0.0000   9999     0     0     0    
2019/08/01  07:19:00  BASE  3.21636  70   3.99252  71   -10.0 83    -12.3 0     0     1009.1   NA       0.0000   9999     0     0     0    
2019/08/01  07:20:00  BASE  3.55152  67   3.99252  71   -9.9  83    -12.3 0     0     1009.1   NA       0.0000   9999     0     0     0    
2019/08/01  07:21:00  BASE  3.36336  66   3.99252  71   -9.8  83    -12.2 0     0     1009.1   NA       0.0000   9999     0     0     0    
2019/08/01  07:22:00  BASE  3.01644  67   3.99252  71   -9.8  83    -12.2 0     0     1009.1   NA       0.0000   9999     0     0     0    
2019/08/01  07:23:00  BASE  2.83416  70   3.99252  71   -9.8  83    -12.2 0     0     1009.1   NA       0.0000   9999     0     0     0    
2019/08/01  07:24:00  BASE  2.99292  71   3.99252  71   -9.8  83    -12.1 0     0     1009.1   NA       0.0000   9999     0     0     0    
2019/08/01  07:25:00  BASE  2.94588  70   3.99252  71   -9.7  83    -12.0 0     0     1009.1   NA       0.0000   9999     0     0     0    
2019/08/01  07:26:00  BASE  2.5872   70   3.99252  71   -9.6  83    -11.9 0     0     1009.1   NA       0.0000   9999     0     0     0    
2019/08/01  07:27:00  BASE  2.46372  69   3.99252  71   -9.6  83    -11.9 0     0     1009.1   NA       0.0000   9999     0     0     0    
2019/08/01  07:28:00  BASE  2.43432  73   3.99252  71   -9.5  83    -11.9 0     0     1009.1   NA       0.0000   9999     0     0     0    
2019/08/01  07:29:00  BASE  2.3226   80   3.93372  61   -9.5  83    -11.8 0     0     1009.0   NA       0.0000   9999     2430  0     0    
2019/08/01  07:30:00  BASE  2.36964  82   3.59856  66   -9.6  83    -11.9 0     0     1009.0   NA       0.0000   9999     2330  0     0    
2019/08/01  07:31:00  BASE  2.46372  82   3.35748  68   -9.6  83    -11.9 0     0     1009.0   NA       0.0000   9999     2260  0     0    
2019/08/01  07:32:00  BASE  2.38728  80   3.35748  68   -9.7  83    -12.0 0     0     1009.0   NA       0.0000   9999     2260  0     0    
2019/08/01  07:33:00  BASE  2.46372  75   3.35748  68   -9.7  83    -12.0 0     0     1009.0   NA       0.0000   9999     2260  0     0    
2019/08/01  07:34:00  BASE  2.76948  72   3.32808  70   -9.8  83    -12.1 0     0     1009.0   NA       0.0000   9999     2260  0     0    
2019/08/01  07:35:00  BASE  2.92824  71   3.32808  70   -9.8  84    -12.1 0     0     1008.9   NA       0.0000   9999     0     0     0    
2019/08/01  07:36:00  BASE  3.087    71   3.41628  68   -9.8  84    -12.0 0     0     1008.9   NA       0.0000   9999     0     0     0    
2019/08/01  07:37:00  BASE  3.32808  69   3.56916  62   -9.7  84    -11.9 0     0     1008.9   NA       0.0000   9999     0     0     0    
2019/08/01  07:38:00  BASE  3.30456  65   3.56916  62   -9.7  84    -11.9 0     0     1008.9   NA       0.0000   9999     0     0     0    
2019/08/01  07:39:00  BASE  3.24576  67   3.56916  62   -9.7  84    -11.8 0     0     1008.9   NA       0.0000   9999     0     0     0    
2019/08/01  07:40:00  BASE  3.33396  71   3.56916  62   -9.7  84    -11.9 0     0     1008.8   NA       0.0000   9999     1740  0     0    
2019/08/01  07:41:00  BASE  3.37512  68   3.56916  62   -9.7  84    -11.9 0     0     1008.8   NA       0.0000   9999     1770  0     0    
2019/08/01  07:42:00  BASE  3.28692  64   3.59856  58   -9.7  85    -11.8 0     0     1008.8   NA       0.0000   9999     1840  0     0    
2019/08/01  07:43:00  BASE  3.22224  63   3.75144  69   -9.6  85    -11.7 0     0     1008.8   NA       0.0000   9999     1870  0     0    
2019/08/01  07:44:00  BASE  3.36924  64   3.75144  69   -9.6  85    -11.7 0     0     1008.8   NA       0.0000   9999     1800  0     0    
2019/08/01  07:45:00  BASE  3.35748  63   3.75144  69   -9.5  85    -11.5 0     0     1008.8   NA       0.0000   9999     1770  0     0    
2019/08/01  07:46:00  BASE  3.234    64   3.75144  70   -9.4  86    -11.4 0     0     1008.8   NA       0.0000   9999     1570  0     0    
2019/08/01  07:47:00  BASE  3.2634   67   3.75144  70   -9.4  86    -11.3 0     0     1008.7   NA       0.0000   9999     1540  0     0    
2019/08/01  07:48:00  BASE  3.27516  66   3.75144  70   -9.4  86    -11.3 0     0     1008.7   NA       0.0000   9999     1540  0     0    
2019/08/01  07:49:00  BASE  3.26928  65   3.75144  70   -9.3  86    -11.2 0     0     1008.7   NA       0.0000   9999     1640  0     0    
2019/08/01  07:50:00  BASE  3.11052  65   3.75144  70   -9.2  86    -11.1 0     0     1008.7   NA       0.0000   9999     1670  0     0    
2019/08/01  07:51:00  BASE  2.90472  69   3.75144  70   -9.2  86    -11.1 0     0     1008.7   NA       0.0000   9999     1710  0     0    
2019/08/01  07:52:00  BASE  2.9694   73   3.75144  70   -9.1  86    -11.1 0     0     1008.7   NA       0.0000   9999     1640  0     0    
2019/08/01  07:53:00  BASE  3.15168  71   3.75144  70   -9.2  86    -11.1 0     0     1008.7   NA       0.0000   9999     1740  0     0    
2019/08/01  07:54:00  BASE  3.1164   71   3.75144  70   -9.2  86    -11.2 0     0     1008.7   NA       0.0000   9999     1710  0     0    
2019/08/01  07:55:00  BASE  3.35748  72   4.32768  71   -9.3  86    -11.2 0     0     1008.7   NA       0.0000   9999     1770  0     0    
2019/08/01  07:56:00  BASE  3.4692   68   4.32768  71   -9.4  86    -11.2 0     0     1008.7   NA       0.0000   9999     1740  0     0    
2019/08/01  07:57:00  BASE  3.21636  64   4.32768  71   -9.4  86    -11.3 0     0     1008.7   NA       0.0000   9999     1670  0     0    
2019/08/01  07:58:00  BASE  3.19284  65   4.32768  71   -9.4  87    -11.2 0     0     1008.7   NA       0.0000   9999     1640  0     0    
2019/08/01  07:59:00  BASE  3.39864  71   4.32768  71   -9.4  87    -11.2 0     0     1008.7   NA       0.0000   9999     1570  0     0    
2019/08/01  08:00:00  BASE  3.26928  78   4.32768  71   -9.4  87    -11.2 0     0     1008.7   NA       0.0000   9999     1640  0     0    
2019/08/01  08:01:00  BASE  2.96352  80   4.32768  71   -9.5  87    -11.3 0     0     1008.7   NA       0.0000   9999     1610  0     0    
2019/08/01  08:02:00  BASE  2.9694   82   4.32768  71   -9.6  87    -11.4 0     0     1008.7   NA       0.0000   9999     1610  0     0    
2019/08/01  08:03:00  BASE  3.10464  81   4.32768  71   -9.7  87    -11.5 0     0     1008.6   NA       0.0000   9999     1540  0     0    
2019/08/01  08:04:00  BASE  3.087    75   4.32768  71   -9.8  87    -11.6 0     0     1008.6   NA       0.0000   9999     1510  0     0    
2019/08/01  08:05:00  BASE  2.8518   79   4.263    64   -9.9  87    -11.7 0     0     1008.6   NA       0.0000   9999     1410  0     0    
2019/08/01  08:06:00  BASE  2.66364  82   4.263    64   -9.9  87    -11.6 0     0     1008.7   NA       0.0000   9999     1350  0     0    
2019/08/01  08:07:00  BASE  2.80476  77   4.263    64   -9.9  87    -11.6 0     0     1008.6   NA       0.0000   9999     1510  0     0    
2019/08/01  08:08:00  BASE  3.06936  76   4.263    64   -9.9  87    -11.6 0     0     1008.6   NA       0.0000   9999     1610  0     0    
2019/08/01  08:09:00  BASE  2.63424  72   3.86904  80   -9.8  87    -11.5 0     0     1008.6   NA       0.0000   9999     1610  0     0    
2019/08/01  08:10:00  BASE  2.04036  74   3.86904  80   -9.7  88    -11.4 0     0     1008.6   NA       0.0000   9999     1670  0     0    
2019/08/01  08:11:00  BASE  2.22264  80   3.86904  80   -9.7  88    -11.3 0     0     1008.6   NA       0.0000   9999     1640  0     0    
2019/08/01  08:12:00  BASE  2.59896  68   3.86904  80   -9.6  88    -11.2 0     0     1008.5   NA       0.0000   9999     1570  0     0    
2019/08/01  08:13:00  BASE  2.65776  67   3.86904  80   -9.6  88    -11.2 0     0     1008.4   NA       0.0000   9999     1640  0     0    
2019/08/01  08:14:00  BASE  2.62836  72   3.86904  80   -9.6  88    -11.2 0     0     1008.4   NA       0.0000   9999     1610  0     0    
2019/08/01  08:15:00  BASE  2.499    66   3.86904  80   -9.6  88    -11.1 0     0     1008.4   NA       0.0000   9999     1540  0     0    
2019/08/01  08:16:00  BASE  2.33436  68   3.86904  80   -9.5  89    -11.1 0     0     1008.4   NA       0.0000   9999     1540  0     0    
2019/08/01  08:17:00  BASE  2.34612  65   3.86904  80   -9.5  89    -11.0 0     0     1008.4   NA       0.0000   9999     1570  0     0    
2019/08/01  08:18:00  BASE  2.43432  60   3.087    48   -9.4  89    -10.9 0     0     1008.4   NA       0.0000   9999     1570  0     0    
2019/08/01  08:19:00  BASE  2.44608  60   3.087    48   -9.4  89    -10.9 0     0     1008.4   NA       0.0000   9999     1610  0     0    
2019/08/01  08:20:00  BASE  2.40492  59   3.087    48   -9.4  89    -10.9 0     0     1008.4   NA       0.0000   9999     0     0     0    
2019/08/01  08:21:00  BASE  2.28732  63   3.087    48   -9.4  89    -10.9 0     0     1008.4   NA       0.0000   9999     1540  0     0    
2019/08/01  08:22:00  BASE  2.28144  69   2.90472  52   -9.5  89    -10.9 0     0     1008.4   NA       0.0000   9999     1510  0     0    
2019/08/01  08:23:00  BASE  2.3814   73   2.93412  71   -9.5  89    -11.0 0     0     1008.4   NA       0.0000   9999     1510  0     0    
2019/08/01  08:24:00  BASE  2.57544  69   2.93412  71   -9.6  89    -11.1 0     0     1008.4   NA       0.0000   9999     1670  0     0    
2019/08/01  08:25:00  BASE  2.7048   69   3.087    81   -9.7  89    -11.2 0     0     1008.4   NA       0.0000   9999     1610  0     0    
2019/08/01  08:26:00  BASE  2.80476  67   3.35748  56   -9.8  89    -11.3 0     0     1008.4   NA       0.0000   9999     1540  0     0    
2019/08/01  08:27:00  BASE  2.75184  62   3.35748  56   -9.8  89    -11.3 0     0     1008.4   NA       0.0000   9999     1510  0     0    
2019/08/01  08:28:00  BASE  2.46372  66   3.35748  56   -9.8  89    -11.3 0     0     1008.4   NA       0.0000   9999     1540  0     0    
2019/08/01  08:29:00  BASE  2.48136  69   3.35748  56   -9.8  89    -11.2 0     0     1008.3   NA       0.0000   9999     1570  0     0    
2019/08/01  08:30:00  BASE  2.52252  72   3.35748  56   -9.8  89    -11.2 0     0     1008.3   NA       0.0000   9999     1570  0     0    
2019/08/01  08:31:00  BASE  2.4402   73   3.35748  56   -9.8  89    -11.2 0     0     1008.3   NA       0.0000   9999     1640  0     0    
2019/08/01  08:32:00  BASE  2.34612  74   3.35748  56   -9.8  89    -11.2 0     0     1008.2   NA       0.0000   9999     1670  0     0    
2019/08/01  08:33:00  BASE  2.33436  76   3.35748  56   -9.8  90    -11.1 0     0     1008.2   NA       0.0000   9999     1670  0     0    
2019/08/01  08:34:00  BASE  2.42256  77   3.35748  56   -9.8  90    -11.1 0     0     1008.2   NA       0.0000   9999     1640  0     0    
2019/08/01  08:35:00  BASE  2.29908  77   3.35748  56   -9.7  90    -11.1 0     0     1008.2   NA       0.0000   9999     0     0     0    
2019/08/01  08:36:00  BASE  2.2638   80   2.93412  53   -9.8  90    -11.1 0     0     1008.0   NA       0.0000   9999     0     0     0    
2019/08/01  08:37:00  BASE  2.4696   76   3.02232  68   -9.8  90    -11.1 0     0     1008.0   NA       0.0000   9999     1640  0     0    
2019/08/01  08:38:00  BASE  2.57544  71   3.02232  68   -9.7  90    -11.1 0     0     1008.0   NA       0.0000   9999     1640  0     0    
2019/08/01  08:39:00  BASE  2.7636   70   3.26928  62   -9.7  90    -11.0 0     0     1008.0   NA       0.0000   9999     1610  0     0    
2019/08/01  08:40:00  BASE  3.01056  68   3.48096  73   -9.7  90    -11.0 0     0     1008.0   NA       0.0000   9999     1610  0     0    
2019/08/01  08:41:00  BASE  2.97528  69   3.48096  73   -9.7  90    -11.0 0     0     1007.9   NA       0.0000   9999     0     0     0    
2019/08/01  08:42:00  BASE  2.9106   64   3.48096  73   -9.7  90    -11.0 0     0     1007.9   NA       0.0000   9999     0     0     0    
2019/08/01  08:43:00  BASE  2.79888  63   3.48096  73   -9.7  90    -11.0 0     0     1007.9   NA       0.0000   9999     1710  0     0    
2019/08/01  08:44:00  BASE  2.646    69   3.48096  73   -9.7  90    -11.0 0     0     1007.9   NA       0.0000   9999     0     0     0    
2019/08/01  08:45:00  BASE  2.47548  73   3.48096  73   -9.7  90    -11.0 0     0     1007.9   NA       0.0000   9999     1670  0     0    
2019/08/01  08:46:00  BASE  2.56368  70   3.48096  73   -9.7  90    -11.0 0     0     1007.9   NA       0.0000   9999     1610  0     0    
2019/08/01  08:47:00  BASE  2.62836  72   3.48096  73   -9.7  90    -11.0 0     0     1007.9   NA       0.0000   9999     0     0     0    
2019/08/01  08:48:00  BASE  2.60484  75   3.48096  73   -9.8  90    -11.1 0     0     1007.8   NA       0.0000   9999     0     0     0    
2019/08/01  08:49:00  BASE  2.7342   68   3.48096  73   -9.8  90    -11.0 0     0     1007.8   NA       0.0000   9999     0     0     0    
2019/08/01  08:50:00  BASE  2.68128  63   3.32808  69   -9.7  91    -11.0 0     0     1007.8   NA       0.0000   9999     1640  0     0    
2019/08/01  08:51:00  BASE  2.66364  62   3.26928  73   -9.7  91    -10.9 0     0     1007.8   NA       0.0000   9999     1610  0     0    
2019/08/01  08:52:00  BASE  2.71068  59   3.26928  73   -9.6  91    -10.8 0     0     1007.8   NA       0.0000   9999     0     0     0    
2019/08/01  08:53:00  BASE  2.69304  56   3.26928  73   -9.6  91    -10.8 0     0     1007.8   NA       0.0000   9999     0     0     0    
2019/08/01  08:54:00  BASE  2.49312  59   3.26928  73   -9.5  91    -10.7 0     0     1007.8   NA       0.0000   9999     0     0     0    
2019/08/01  08:55:00  BASE  2.22852  61   3.26928  73   -9.5  91    -10.7 0     0     1007.8   NA       0.0000   9999     0     0     0    
2019/08/01  08:56:00  BASE  2.21088  60   3.26928  73   -9.6  91    -10.8 0     0     1007.8   NA       0.0000   9999     0     0     0    
2019/08/01  08:57:00  BASE  2.15208  60   3.26928  73   -9.6  91    -10.8 0     0     1007.8   NA       0.0000   9999     0     0     0    
2019/08/01  08:58:00  BASE  2.0286   57   3.1458   60   -9.6  91    -10.8 0     0     1007.8   NA       0.0000   9999     0     0     0    
2019/08/01  08:59:00  BASE  2.058    54   3.1458   60   -9.6  91    -10.8 0     0     1007.8   NA       0.0000   9999     0     0     0    
2019/08/01  09:00:00  BASE  2.24028  54   3.1458   60   -9.6  91    -10.8 0     0     1007.8   NA       0.0000   9999     0     0     0    
2019/08/01  09:01:00  BASE  2.42256  58   3.1458   60   -9.6  91    -10.8 0     0     1007.8   NA       0.0000   9999     1570  0     0    
2019/08/01  09:02:00  BASE  2.33436  61   2.93412  52   -9.6  91    -10.8 0     0     1007.8   NA       0.0000   9999     0     0     0    
2019/08/01  09:03:00  BASE  2.19912  58   2.81064  56   -9.6  91    -10.8 0     0     1007.8   NA       0.0000   9999     0     0     0    
2019/08/01  09:04:00  BASE  2.09328  55   2.81064  56   -9.6  91    -10.8 0     0     1007.8   NA       0.0000   9999     0     0     0    
2019/08/01  09:05:00  BASE  2.06976  50   2.81064  56   -9.6  91    -10.8 0     0     1007.8   NA       0.0000   9999     0     0     0    
2019/08/01  09:06:00  BASE  2.02272  51   2.81064  56   -9.6  91    -10.8 0     0     1007.8   NA       0.0000   9999     0     0     0    
2019/08/01  09:07:00  BASE  1.97568  58   2.81064  56   -9.7  91    -10.8 0     0     1007.8   NA       0.0000   9999     0     0     0    
2019/08/01  09:08:00  BASE  2.24616  61   2.81064  56   -9.7  91    -10.9 0     0     1007.8   NA       0.0000   9999     0     0     0    
2019/08/01  09:09:00  BASE  2.45784  60   2.87532  57   -9.7  91    -10.9 0     0     1007.8   NA       0.0000   9999     0     0     0    
2019/08/01  09:10:00  BASE  2.3226   59   2.87532  57   -9.7  91    -10.9 0     0     1007.8   NA       0.0000   9999     0     0     0    
2019/08/01  09:11:00  BASE  2.13444  56   2.87532  57   -9.7  91    -10.9 0     0     1007.8   NA       0.0000   9999     1640  0     0    
2019/08/01  09:12:00  BASE  2.18736  54   2.87532  57   -9.7  91    -10.9 0     0     1007.8   NA       0.0000   9999     1670  0     0    
2019/08/01  09:13:00  BASE  2.36376  55   2.87532  57   -9.6  91    -10.9 0     0     1007.8   NA       0.0000   9999     1670  0     0    
2019/08/01  09:14:00  BASE  2.34612  48   2.87532  57   -9.7  90    -10.9 0     0     1007.8   NA       0.0000   9999     0     0     0    
2019/08/01  09:15:00  BASE  2.00508  38   2.87532  57   -9.7  90    -11.0 0     0     1007.8   NA       0.0000   9999     1610  0     0    
2019/08/01  09:16:00  BASE  1.75224  41   2.87532  57   -9.8  90    -11.1 0     0     1007.8   NA       0.0000   9999     1610  0     0    
2019/08/01  09:17:00  BASE  1.6464   42   2.87532  57   -9.8  90    -11.1 0     0     1007.8   NA       0.0000   9999     1540  0     0    
2019/08/01  09:18:00  BASE  1.44648  36   2.87532  57   -9.8  90    -11.1 0     0     1007.8   NA       0.0000   9999     1570  0     0    
2019/08/01  09:19:00  BASE  1.37004  34   2.59896  55   -9.7  90    -11.0 0     0     1007.8   NA       0.0000   9999     0     0     0    
2019/08/01  09:20:00  BASE  1.30536  36   2.59896  55   -9.7  90    -11.0 0     0     1007.7   NA       0.0000   9999     0     0     0    
2019/08/01  09:21:00  BASE  1.22892  40   2.59896  55   -9.6  90    -10.9 0     0     1007.7   NA       0.0000   9999     0     0     0    
2019/08/01  09:22:00  BASE  1.35828  45   2.59896  55   -9.6  90    -10.9 0     0     1007.7   NA       0.0000   9999     0     0     0    
2019/08/01  09:23:00  BASE  1.39944  44   2.48136  49   -9.5  90    -10.8 0     0     1007.7   NA       0.0000   9999     1610  0     0    
2019/08/01  09:24:00  BASE  1.21716  46   2.1462   50   -9.5  90    -10.8 0     0     1007.7   NA       0.0000   9999     1540  0     0    
2019/08/01  09:25:00  BASE  1.07604  51   2.1462   50   -9.5  91    -10.7 0     0     1007.6   NA       0.0000   9999     1570  0     0    
2019/08/01  09:26:00  BASE  1.10544  48   1.63464  39   -9.5  91    -10.7 0     0     1007.6   NA       0.0000   9999     1540  0     0    
2019/08/01  09:27:00  BASE  1.2054   38   1.63464  39   -9.4  91    -10.6 0     0     1007.6   NA       0.0000   9999     1540  0     0    
2019/08/01  09:28:00  BASE  1.29948  30   1.63464  39   -9.4  91    -10.7 0     0     1007.6   NA       0.0000   9999     1510  0     0    
2019/08/01  09:29:00  BASE  1.34064  31   1.63464  26   -9.4  90    -10.7 0     0     1007.6   NA       0.0000   9999     1540  0     0    
2019/08/01  09:30:00  BASE  1.49352  33   1.81692  47   -9.5  90    -10.8 0     0     1007.6   NA       0.0000   9999     1570  0     0    
2019/08/01  09:31:00  BASE  1.6464   36   1.87572  30   -9.5  90    -10.8 0     0     1007.6   NA       0.0000   9999     1570  0     0    
2019/08/01  09:32:00  BASE  1.72284  39   2.058    49   -9.5  90    -10.9 0     0     1007.6   NA       0.0000   9999     1540  0     0    
2019/08/01  09:33:03  BASE  1.8522   41   2.0874   43   -9.6  90    -10.9 0     0     1007.6   NA       0.0000   9999     1540  0     0    
2019/08/01  09:34:00  BASE  2.10504  39   2.69304  31   -9.6  90    -10.9 0     0     1007.5   NA       0.0000   9999     1570  0     0    
2019/08/01  09:35:00  BASE  2.5578   32   3.0576   25   -9.7  90    -11.0 0     0     1007.5   NA       0.0000   9999     1570  0     0    
2019/08/01  09:36:00  BASE  2.7342   31   3.234    33   -9.8  90    -11.1 0     0     1007.5   NA       0.0000   9999     1510  0     0    
2019/08/01  09:37:00  BASE  2.793    36   3.234    33   -9.9  90    -11.2 0     0     1007.5   NA       0.0000   9999     1480  0     0    
2019/08/01  09:38:00  BASE  2.7342   36   3.234    33   -10.0 90    -11.3 0     0     1007.5   NA       0.0000   9999     1440  0     0    
2019/08/01  09:39:00  BASE  2.30496  33   3.234    33   -10.1 90    -11.4 0     0     1007.5   NA       0.0000   9999     1410  0     0    
2019/08/01  09:40:00  BASE  2.02272  39   3.234    33   -10.1 90    -11.5 0     0     1007.5   NA       0.0000   9999     1440  0     0    
2019/08/01  09:41:00  BASE  1.90512  48   3.234    33   -10.2 90    -11.5 0     0     1007.4   NA       0.0000   9999     1480  0     0    
2019/08/01  09:42:00  BASE  1.90512  53   3.234    33   -10.1 90    -11.5 0     0     1007.3   NA       0.0000   9999     1480  0     0    
2019/08/01  09:43:00  BASE  2.04036  56   3.234    33   -10.0 90    -11.4 0     0     1007.3   NA       0.0000   9999     1480  0     0    
2019/08/01  09:44:00  BASE  2.14032  59   3.234    33   -10.0 90    -11.3 0     0     1007.3   NA       0.0000   9999     0     0     0    
2019/08/01  09:45:00  BASE  2.15796  60   3.234    33   -9.9  90    -11.2 0     0     1007.3   NA       0.0000   9999     0     0     0    
2019/08/01  09:46:00  BASE  1.91688  58   3.1752   33   -9.8  90    -11.2 0     0     1007.3   NA       0.0000   9999     1410  0     0    
2019/08/01  09:47:00  BASE  1.62876  55   2.96352  29   -9.8  90    -11.2 0     0     1007.3   NA       0.0000   9999     1410  0     0    
2019/08/01  09:48:00  BASE  1.5876   49   2.81064  39   -9.8  89    -11.2 0     0     1007.3   NA       0.0000   9999     0     0     0    
2019/08/01  09:49:00  BASE  1.74048  44   2.51076  61   -9.8  89    -11.2 0     0     1007.2   NA       0.0000   9999     0     0     0    
2019/08/01  09:50:00  BASE  1.83456  42   2.51076  61   -9.8  89    -11.3 0     0     1007.2   NA       0.0000   9999     0     0     0    
2019/08/01  09:51:00  BASE  1.69344  46   2.51076  61   -9.7  89    -11.2 0     0     1007.2   NA       0.0000   9999     0     0     0    
2019/08/01  09:52:00  BASE  1.66992  46   2.51076  61   -9.7  89    -11.2 0     0     1007.2   NA       0.0000   9999     0     0     0    
2019/08/01  09:53:00  BASE  1.66992  45   2.51076  61   -9.7  89    -11.2 0     0     1007.2   NA       0.0000   9999     0     0     0    
2019/08/01  09:54:00  BASE  1.72284  44   2.45196  42   -9.6  88    -11.2 0     0     1007.2   NA       0.0000   9999     0     0     0    
2019/08/01  09:55:00  BASE  1.63464  36   2.45196  42   -9.6  88    -11.2 0     0     1007.2   NA       0.0000   9999     0     0     0    
2019/08/01  09:56:00  BASE  1.19952  40   2.45196  42   -9.5  88    -11.2 0     0     1007.2   NA       0.0000   9999     1440  0     0    
2019/08/01  09:57:00  BASE  1.07604  50   2.45196  42   -9.5  88    -11.1 0     0     1007.2   NA       0.0000   9999     1510  0     0    
2019/08/01  09:58:00  BASE  1.21716  52   2.45196  42   -9.5  88    -11.2 0     0     1007.2   NA       0.0000   9999     0     0     0    
2019/08/01  09:59:00  BASE  1.27596  43   2.45196  42   -9.5  87    -11.2 0     0     1007.2   NA       0.0000   9999     1510  0     0    
2019/08/01  10:00:00  BASE  1.22304  40   2.32848  60   -9.5  87    -11.2 0     0     1007.2   NA       0.0000   9999     1440  0     0    
2019/08/01  10:01:00  BASE  1.25244  42   2.29908  32   -9.5  87    -11.3 0     0     1007.2   NA       0.0000   9999     1440  0     0    
2019/08/01  10:02:00  BASE  1.34652  42   2.29908  32   -9.5  87    -11.3 0     0     1007.2   NA       0.0000   9999     1410  0     0    
2019/08/01  10:03:00  BASE  1.38768  46   2.29908  32   -9.5  87    -11.3 0     0     1007.2   NA       0.0000   9999     1350  0     0    
2019/08/01  10:04:00  BASE  1.48176  49   1.78752  37   -9.5  87    -11.3 0     0     1007.1   NA       0.0000   9999     1480  0     0    
2019/08/01  10:05:00  BASE  1.48176  47   1.66404  43   -9.5  87    -11.3 0     0     1007.1   NA       0.0000   9999     1480  0     0    
2019/08/01  10:06:00  BASE  1.48176  46   1.66404  43   -9.5  87    -11.3 0     0     1007.1   NA       0.0000   9999     1440  0     0    
2019/08/01  10:07:00  BASE  1.49352  45   1.66404  43   -9.5  87    -11.3 0     0     1007.1   NA       0.0000   9999     1410  0     0    
2019/08/01  10:08:00  BASE  1.54056  43   1.66404  43   -9.5  87    -11.3 0     0     1007.1   NA       0.0000   9999     1440  0     0    
2019/08/01  10:09:00  BASE  1.4994   42   1.66404  43   -9.5  87    -11.3 0     0     1007.1   NA       0.0000   9999     0     0     0    
2019/08/01  10:10:00  BASE  1.47588  45   1.66404  43   -9.5  87    -11.3 0     0     1007.1   NA       0.0000   9999     1540  0     0    
2019/08/01  10:11:00  BASE  1.48176  49   1.66404  43   -9.5  87    -11.2 0     0     1007.1   NA       0.0000   9999     1510  0     0    
2019/08/01  10:12:00  BASE  1.22304  47   1.66404  43   -9.5  88    -11.2 0     0     1007.1   NA       0.0000   9999     1410  0     0    
2019/08/01  10:13:00  BASE  1.01724  45   1.66404  43   -9.5  88    -11.1 0     0     1007.1   NA       0.0000   9999     1510  0     0    
2019/08/01  10:14:00  BASE  0.92316  43   1.66404  43   -9.5  88    -11.1 0     0     1007.1   NA       0.0000   9999     1510  0     0    
2019/08/01  10:15:00  BASE  0.85848  46   1.63464  51   -9.4  88    -11.0 0     0     1007.1   NA       0.0000   9999     1480  0     0    
2019/08/01  10:16:00  BASE  0.84672  44   1.63464  51   -9.4  88    -11.0 0     0     1007.1   NA       0.0000   9999     1480  0     0    
2019/08/01  10:17:00  BASE  0.80556  43   1.63464  51   -9.4  88    -11.0 0     0     1007.1   NA       0.0000   9999     1540  0     0    
2019/08/01  10:18:00  BASE  0.82908  46   1.63464  51   -9.4  89    -10.9 0     0     1007.1   NA       0.0000   9999     1570  0     0    
2019/08/01  10:19:00  BASE  0.92904  46   1.63464  51   -9.4  89    -10.9 0     0     1007.1   NA       0.0000   9999     1610  0     0    
2019/08/01  10:20:00  BASE  1.05252  48   1.54056  51   -9.4  89    -10.8 0     0     1007.1   NA       0.0000   9999     1570  0     0    
2019/08/01  10:21:00  BASE  1.00548  50   1.24068  49   -9.4  89    -10.8 0     0     1007.1   NA       0.0000   9999     1540  0     0    
2019/08/01  10:22:00  BASE  0.88788  49   1.24068  49   -9.3  89    -10.8 0     0     1007.1   NA       0.0000   9999     1570  0     0    
2019/08/01  10:23:00  BASE  0.88788  46   1.24068  49   -9.3  89    -10.8 0     0     1007.1   NA       0.0000   9999     1610  0     0    
2019/08/01  10:24:00  BASE  0.8232   37   1.24068  49   -9.3  89    -10.7 0     0     1007.1   NA       0.0000   9999     1610  0     0    
2019/08/01  10:25:00  BASE  0.62328  36   1.24068  49   -9.3  90    -10.7 0     0     1007.1   NA       0.0000   9999     1610  0     0    
2019/08/01  10:26:00  BASE  0.48216  41   1.24068  49   -9.3  90    -10.6 0     0     1007.0   NA       0.0000   9999     1610  0     0    
2019/08/01  10:27:00  BASE  0.65856  45   1.24068  49   -9.3  90    -10.6 0     0     1007.0   NA       0.0000   9999     1610  0     0    
2019/08/01  10:28:00  BASE  0.90552  49   1.24068  49   -9.3  90    -10.6 0     0     1007.0   NA       0.0000   9999     1570  0     0    
2019/08/01  10:29:00  BASE  0.94668  49   1.24068  49   -9.3  90    -10.6 0     0     1007.0   NA       0.0000   9999     1480  0     0    
2019/08/01  10:30:00  BASE  0.86436  49   1.029    49   -9.3  90    -10.6 0     0     1007.0   NA       0.0000   9999     1510  0     0    
2019/08/01  10:31:00  BASE  0.77028  50   1.029    49   -9.3  90    -10.6 0     0     1007.0   NA       0.0000   9999     1570  0     0    
2019/08/01  10:32:00  BASE  0.7938   55   1.029    49   -9.3  90    -10.6 0     0     1007.0   NA       0.0000   9999     1570  0     0    
2019/08/01  10:33:00  BASE  0.97608  67   1.24068  74   -9.3  90    -10.7 0     0     1006.9   NA       0.0000   9999     1540  0     0    
2019/08/01  10:34:00  BASE  1.24656  72   1.57584  71   -9.4  90    -10.7 0     0     1006.9   NA       0.0000   9999     1570  0     0    
2019/08/01  10:35:00  BASE  1.47588  71   1.90512  81   -9.4  90    -10.8 0     0     1006.9   NA       0.0000   9999     1570  0     0    
2019/08/01  10:36:00  BASE  1.51116  68   1.90512  81   -9.5  90    -10.8 0     0     1006.9   NA       0.0000   9999     1540  0     0    
2019/08/01  10:37:00  BASE  1.74636  64   2.24028  58   -9.5  90    -10.8 0     0     1006.8   NA       0.0000   9999     1540  0     0    
2019/08/01  10:38:00  BASE  2.21676  64   2.63424  62   -9.5  90    -10.9 0     0     1006.8   NA       0.0000   9999     1480  0     0    
2019/08/01  10:39:00  BASE  2.42844  64   2.69304  62   -9.5  90    -10.9 0     0     1006.7   NA       0.0000   9999     1540  0     0    
2019/08/01  10:40:00  BASE  2.51076  64   2.75184  60   -9.5  90    -10.8 0     0     1006.7   NA       0.0000   9999     1570  0     0    
2019/08/01  10:41:00  BASE  2.31672  65   2.75184  60   -9.6  90    -10.8 0     0     1006.7   NA       0.0000   9999     1540  0     0    
2019/08/01  10:42:00  BASE  2.00508  65   2.75184  60   -9.6  91    -10.8 0     0     1006.7   NA       0.0000   9999     1350  0     0    
2019/08/01  10:43:00  BASE  1.9404   64   2.75184  60   -9.5  91    -10.7 0     0     1006.7   NA       0.0000   9999     1440  0     0    
2019/08/01  10:44:00  BASE  1.74048  62   2.75184  60   -9.5  91    -10.7 0     0     1006.7   NA       0.0000   9999     1350  0     0    
2019/08/01  10:45:00  BASE  1.53468  58   2.75184  60   -9.5  92    -10.6 0     0     1006.7   NA       0.0000   9999     1510  0     0    
2019/08/01  10:46:00  BASE  1.62288  59   2.75184  60   -9.4  92    -10.5 0     0     1006.7   NA       0.0000   9999     1540  0     0    
2019/08/01  10:47:00  BASE  1.84632  61   2.75184  60   -9.5  92    -10.5 0     0     1006.7   NA       0.0000   9999     1510  0     0    
2019/08/01  10:48:00  BASE  1.82868  57   2.75184  60   -9.5  92    -10.6 0     0     1006.7   NA       0.0000   9999     1510  0     0    
2019/08/01  10:49:00  BASE  1.39944  61   2.75184  60   -9.6  92    -10.6 0     0     1006.6   NA       0.0000   9999     1350  0     0    
2019/08/01  10:50:00  BASE  1.18188  76   2.35788  64   -9.7  92    -10.8 0     0     1006.6   NA       0.0000   9999     1510  0     0    
2019/08/01  10:51:00  BASE  1.39356  85   2.24028  63   -9.8  92    -10.9 0     0     1006.6   NA       0.0000   9999     1610  0     0    
2019/08/01  10:52:00  BASE  1.62876  83   2.24028  63   -9.8  92    -10.9 0     0     1006.6   NA       0.0000   9999     0     0     0    
2019/08/01  10:53:00  BASE  1.8228   76   2.24028  63   -9.8  92    -10.9 0     0     1006.6   NA       0.0000   9999     0     0     0    
2019/08/01  10:54:00  BASE  1.83456  71   2.24028  63   -9.8  92    -10.9 0     0     1006.6   NA       0.0000   9999     0     0     0    
2019/08/01  10:55:00  BASE  1.81104  70   2.24028  63   -9.7  92    -10.8 0     0     1006.6   NA       0.0000   9999     0     0     0    
2019/08/01  10:56:00  BASE  1.86984  69   2.24028  63   -9.6  92    -10.7 0     0     1006.6   NA       0.0000   9999     0     0     0    
2019/08/01  10:57:00  BASE  1.87572  71   2.1168   70   -9.6  92    -10.6 0     0     1006.6   NA       0.0000   9999     0     0     0    
2019/08/01  10:58:00  BASE  1.84044  68   2.1168   70   -9.5  92    -10.5 0     0     1006.6   NA       0.0000   9999     0     0     0    
2019/08/01  10:59:00  BASE  1.74048  67   2.1168   70   -9.5  93    -10.4 0     0     1006.6   NA       0.0000   9999     0     0     0    
2019/08/01  11:00:00  BASE  1.51704  66   2.1168   70   -9.4  93    -10.3 0     0     1006.6   NA       0.0000   9999     0     0     0    
2019/08/01  11:01:00  BASE  1.4112   64   2.1168   70   -9.3  93    -10.3 0     0     1006.6   NA       0.0000   9999     0     0     0    
2019/08/01  11:02:00  BASE  1.42884  70   2.1168   70   -9.3  93    -10.2 0     0     1006.6   NA       0.0000   9999     0     0     0    
2019/08/01  11:03:00  BASE  1.34064  75   2.1168   70   -9.2  93    -10.1 0     0     1006.6   NA       0.0000   9999     0     0     0    
2019/08/01  11:04:00  BASE  1.19364  78   2.1168   70   -9.2  93    -10.1 0     0     1006.6   NA       0.0000   9999     0     0     0    
2019/08/01  11:05:01  BASE  1.01136  89   1.9992   77   -9.1  93    -10.1 0     0     1006.6   NA       0.0000   9999     0     0     0    
2019/08/01  11:06:01  BASE  0.48216  107  1.9992   77   -9.1  93    -10.1 0     0     1006.6   NA       0.0000   9999     0     0     0    
2019/08/01  11:07:01  BASE  0.34692  116  1.93452  62   -9.1  93    -10.1 0     0     1006.6   NA       0.0000   9999     0     0     0    
2019/08/01  11:08:01  BASE  0.81732  123  1.84632  71   -9.2  92    -10.2 0     0     1006.6   NA       0.0000   9999     0     0     0    
2019/08/01  11:09:06  BASE  0.87612  139  1.51116  75   -9.4  92    -10.5 0     0     1006.6   NA       0.0000   9999     0     0     0    
2019/08/01  11:10:01  BASE  0.45864  147  1.51116  75   -9.5  92    -10.6 0     0     1006.6   NA       0.0000   9999     0     0     0    
2019/08/01  11:11:01  BASE  0.08232  161  1.51116  75   -9.6  92    -10.7 0     0     1006.6   NA       0.0000   9999     0     0     0    
2019/08/01  11:12:01  BASE  0        184  1.39356  77   -9.6  92    -10.7 0     0     1006.6   NA       0.0000   9999     0     0     0    
2019/08/01  11:13:01  BASE  0        204  1.24068  78   -9.6  92    -10.7 0     0     1006.6   NA       0.0000   9999     0     0     0    
2019/08/01  11:14:01  BASE  0        220  1.1466   123  -9.5  92    -10.5 0     0     1006.6   NA       0.0000   9999     0     0     0    
2019/08/01  11:15:01  BASE  0        226  1.1466   123  -9.5  92    -10.5 0     0     1006.5   NA       0.0000   9999     0     0     0    
2019/08/01  11:16:01  BASE  0        227  1.1466   123  -9.5  92    -10.5 0     0     1006.4   NA       0.0000   9999     0     0     0    
2019/08/01  11:17:01  BASE  0        229  1.1466   123  -9.5  92    -10.5 0     0     1006.4   NA       0.0000   9999     0     0     0    
2019/08/01  11:18:01  BASE  0        250  0.81732  144  -9.4  93    -10.4 0     0     1006.4   NA       0.0000   9999     0     0     0    
2019/08/01  11:19:01  BASE  0        292  0.69384  144  -9.4  93    -10.3 0     0     1006.4   NA       0.0000   9999     0     0     0    
2019/08/01  11:20:01  BASE  0.05292  330  0.60564  16   -9.3  93    -10.2 0     0     1006.4   NA       0.0000   9999     0     0     0    
2019/08/01  11:21:01  BASE  0.42924  3    0.90552  9    -9.3  93    -10.2 0     0     1006.4   NA       0.0000   9999     0     0     0    
2019/08/01  11:22:01  BASE  0.79968  19   1.029    29   -9.3  93    -10.2 0     0     1006.4   NA       0.0000   9999     0     0     0    
2019/08/01  11:23:01  BASE  1.09956  19   1.63464  8    -9.3  93    -10.2 0     0     1006.4   NA       0.0000   9999     0     0     0    
2019/08/01  11:24:01  BASE  1.41708  10   1.63464  8    -9.3  93    -10.2 0     0     1006.4   NA       0.0000   9999     0     0     0    
2019/08/01  11:25:01  BASE  1.24656  7    1.63464  8    -9.3  93    -10.3 0     0     1006.4   NA       0.0000   9999     0     0     0    
2019/08/01  11:26:01  BASE  1.00548  13   1.63464  8    -9.3  93    -10.2 0     0     1006.4   NA       0.0000   9999     0     0     0    
2019/08/01  11:27:01  BASE  1.00548  14   1.63464  8    -9.3  93    -10.3 0     0     1006.4   NA       0.0000   9999     0     0     0    
2019/08/01  11:28:01  BASE  1.03488  14   1.63464  8    -9.4  93    -10.3 0     0     1006.3   NA       0.0000   9999     0     0     0    
2019/08/01  11:29:01  BASE  1.22892  19   1.63464  8    -9.4  93    -10.3 0     0     1006.3   NA       0.0000   9999     0     0     0    
2019/08/01  11:30:01  BASE  1.48176  22   1.75224  19   -9.4  93    -10.3 0     0     1006.3   NA       0.0000   9999     0     0     0    
2019/08/01  11:31:01  BASE  1.55232  22   1.75224  19   -9.5  93    -10.4 0     0     1006.3   NA       0.0000   9999     0     0     0    
2019/08/01  11:32:01  BASE  1.45236  23   1.75224  19   -9.5  93    -10.4 0     0     1006.2   NA       0.0000   9999     0     0     0    
2019/08/01  11:33:01  BASE  1.44648  27   1.75224  19   -9.5  93    -10.4 0     0     1006.1   NA       0.0000   9999     0     0     0    
2019/08/01  11:34:01  BASE  1.55232  31   1.75224  31   -9.6  94    -10.4 0     0     1006.1   NA       0.0000   9999     0     0     0    
2019/08/01  11:35:00  BASE  1.53468  36   1.75224  31   -9.7  94    -10.5 0     0     1006.1   NA       0.0000   9999     0     0     0    
2019/08/01  11:36:00  BASE  1.59348  44   1.84632  50   -9.7  94    -10.5 0     0     1006.1   NA       0.0000   9999     0     0     0    
2019/08/01  11:37:00  BASE  1.617    50   1.84632  50   -9.8  94    -10.5 0     0     1006.1   NA       0.0000   9999     0     0     0    
2019/08/01  11:38:00  BASE  1.4406   50   1.84632  50   -9.8  94    -10.6 0     0     1006.1   NA       0.0000   9999     0     0     0    
2019/08/01  11:39:00  BASE  1.2642   47   1.84632  50   -9.8  95    -10.6 0     0     1006.1   NA       0.0000   9999     0     0     0    
2019/08/01  11:40:00  BASE  1.31124  47   1.84632  50   -9.8  95    -10.5 0     0     1006.1   NA       0.0000   9999     0     0     0    
2019/08/01  11:41:00  BASE  1.43472  46   1.84632  50   -9.8  95    -10.5 0     0     1006.1   NA       0.0000   9999     0     0     0    
2019/08/01  11:42:00  BASE  1.40532  40   1.84632  50   -9.8  95    -10.4 0     0     1006.1   NA       0.0000   9999     0     0     0    
2019/08/01  11:43:00  BASE  1.39944  37   1.84632  50   -9.8  95    -10.4 0     0     1006.1   NA       0.0000   9999     0     0     0    
2019/08/01  11:44:00  BASE  1.33476  35   1.84632  50   -9.8  95    -10.3 0     0     1006.1   NA       0.0000   9999     0     0     0    
2019/08/01  11:45:00  BASE  1.19364  32   1.84632  50   -9.8  96    -10.3 0     0     1006.1   NA       0.0000   9999     0     0     0    
2019/08/01  11:46:00  BASE  1.1172   27   1.81692  55   -9.8  96    -10.3 0     0     1006.1   NA       0.0000   9999     1350  0     0    
2019/08/01  11:47:01  BASE  1.03488  23   1.57584  49   -9.8  96    -10.4 0     0     1006.1   NA       0.0000   9999     0     0     0    
2019/08/01  11:48:01  BASE  0.9114   26   1.57584  49   -9.8  96    -10.3 0     0     1006.1   NA       0.0000   9999     1310  0     0    
2019/08/01  11:49:01  BASE  0.74088  27   1.57584  49   -9.8  96    -10.3 0     0     1006.0   NA       0.0000   9999     0     0     0    
2019/08/01  11:50:01  BASE  0.4998   33   1.57584  49   -9.8  96    -10.3 0     0     1005.9   NA       0.0000   9999     0     0     0    
2019/08/01  11:51:01  BASE  0.24696  35   1.48176  37   -9.8  96    -10.3 0     0     1005.9   NA       0.0000   9999     0     0     0    
2019/08/01  11:52:01  BASE  0.31752  34   1.48176  37   -9.7  96    -10.2 0     0     1005.9   NA       0.0000   9999     0     0     0    
2019/08/01  11:53:01  BASE  0.63504  38   1.35828  31   -9.7  96    -10.2 0     0     1005.9   NA       0.0000   9999     0     0     0    
2019/08/01  11:54:01  BASE  0.7938   37   1.29948  36   -9.6  96    -10.2 0     0     1005.9   NA       0.0000   9999     0     0     0    
2019/08/01  11:55:01  BASE  0.87024  34   1.24068  19   -9.6  96    -10.1 0     0     1006.0   NA       0.0000   9999     0     0     0    
2019/08/01  11:56:01  BASE  0.89376  32   1.0878   23   -9.6  96    -10.1 0     0     1006.0   NA       0.0000   9999     0     0     0    
2019/08/01  11:58:00  BASE  0.89964  25   1.029    33   -9.6  96    -10.1 0     0     1006.0   NA       0.0000   9999     1380  0     0    
2019/08/01  11:59:00  BASE  0.89964  17   1.029    33   -9.6  96    -10.1 0     0     1006.0   NA       0.0000   9999     1350  0     0    
2019/08/01  12:00:00  BASE  0.86436  13   1.029    33   -9.6  96    -10.1 0     0     1006.1   NA       0.0000   9999     1310  0     0    
2019/08/01  12:01:00  BASE  0.79968  15   1.029    33   -9.6  96    -10.1 0     0     1006.1   NA       0.0000   9999     1250  0     0    
2019/08/01  12:02:00  BASE  0.8232   15   1.029    33   -9.6  96    -10.0 0     0     1006.0   NA       0.0000   9999     0     0     0    
2019/08/01  12:03:00  BASE  0.92316  16   1.1466   9    -9.6  97    -10.0 0     0     1005.9   NA       0.0000   9999     0     0     0    
2019/08/01  12:04:00  BASE  1.029    21   1.24068  17   -9.6  97    -10.0 0     0     1005.9   NA       0.0000   9999     0     0     0    
2019/08/01  12:05:00  BASE  1.1172   26   1.29948  35   -9.6  97    -10.0 0     0     1005.9   NA       0.0000   9999     0     0     0    
2019/08/01  12:06:00  BASE  1.21128  29   1.51116  26   -9.6  97    -10.0 0     0     1005.9   NA       0.0000   9999     1380  0     0    
2019/08/01  12:07:00  BASE  1.18776  30   1.51116  26   -9.6  97    -10.0 0     0     1005.9   NA       0.0000   9999     1410  0     0    
2019/08/01  12:08:00  BASE  1.30536  29   1.60524  29   -9.7  97    -10.1 0     0     1005.9   NA       0.0000   9999     0     0     0    
2019/08/01  12:09:00  BASE  1.34652  37   1.60524  29   -9.7  97    -10.1 0     0     1005.9   NA       0.0000   9999     0     0     0    
2019/08/01  12:10:00  BASE  1.14072  47   1.60524  29   -9.7  97    -10.1 0     0     1005.8   NA       0.0000   9999     0     0     0    
2019/08/01  12:11:00  BASE  1.07016  51   1.60524  29   -9.7  97    -10.1 0     0     1005.8   NA       0.0000   9999     0     0     0    
2019/08/01  12:12:00  BASE  1.00548  58   1.60524  29   -9.8  97    -10.1 0     0     1005.8   NA       0.0000   9999     0     0     0    
2019/08/01  12:13:00  BASE  0.97608  67   1.60524  29   -9.8  97    -10.2 0     0     1005.7   NA       0.0000   9999     0     0     0    
2019/08/01  12:14:00  BASE  0.9408   77   1.60524  29   -9.8  97    -10.2 0     0     1005.7   NA       0.0000   9999     0     0     0    
2019/08/01  12:15:00  BASE  0.95844  81   1.60524  29   -9.8  97    -10.2 0     0     1005.8   NA       0.0000   9999     0     0     0    
2019/08/01  12:16:00  BASE  1.01136  64   1.60524  29   -9.8  98    -10.2 0     0     1005.7   NA       0.0000   9999     0     0     0    
2019/08/01  12:17:00  BASE  1.13484  40   1.60524  29   -9.8  98    -10.1 0     0     1005.7   NA       0.0000   9999     0     0     0    
2019/08/01  12:18:00  BASE  1.39356  27   1.63464  24   -9.8  98    -10.1 0     0     1005.7   NA       0.0000   9999     0     0     0    
2019/08/01  12:19:00  BASE  1.5582   23   1.63464  24   -9.8  98    -10.1 0     0     1005.7   NA       0.0000   9999     0     0     0    
2019/08/01  12:20:00  BASE  1.617    23   1.69344  24   -9.8  98    -10.1 0     0     1005.7   NA       0.0000   9999     0     0     0    
2019/08/01  12:21:00  BASE  1.68168  24   1.81692  24   -9.8  98    -10.1 0     0     1005.7   NA       0.0000   9999     0     0     0    
2019/08/01  12:22:00  BASE  1.69344  23   1.81692  24   -9.9  98    -10.1 0     0     1005.7   NA       0.0000   9999     0     0     0    
2019/08/01  12:23:00  BASE  1.75224  18   2.058    15   -9.9  98    -10.1 0     0     1005.7   NA       0.0000   9999     0     0     0    
2019/08/01  12:24:00  BASE  1.81692  18   2.0874   17   -9.9  98    -10.1 0     0     1005.7   NA       0.0000   9999     0     0     0    
2019/08/01  12:25:00  BASE  1.72284  24   2.0874   17   -9.9  98    -10.1 0     0     1005.7   NA       0.0000   9999     0     0     0    
2019/08/01  12:26:00  BASE  1.7934   28   2.51076  27   -9.8  98    -10.1 0     0     1005.8   NA       0.0000   9999     0     0     0    
2019/08/01  12:27:00  BASE  2.16972  29   2.69304  27   -9.9  98    -10.1 0     0     1005.8   NA       0.0000   9999     0     0     0    
2019/08/01  12:28:00  BASE  2.36376  30   2.69304  28   -9.9  98    -10.2 1     0     1005.8   NA       0.0000   9999     0     0     0    
2019/08/01  12:29:00  BASE  2.0874   28   2.69304  28   -10.0 98    -10.3 1     0     1005.8   NA       0.0000   9999     0     0     0    
2019/08/01  12:30:00  BASE  1.92864  24   2.69304  28   -10.0 98    -10.3 1     0     1005.8   NA       0.0000   9999     0     0     0    
2019/08/01  12:31:00  BASE  2.12856  24   2.69304  28   -10.1 98    -10.4 1     0     1005.8   NA       0.0000   9999     0     0     0    
2019/08/01  12:32:00  BASE  2.24028  22   2.69304  28   -10.1 98    -10.4 1     0     1005.8   NA       0.0000   9999     0     0     0    
2019/08/01  12:33:00  BASE  2.25204  23   2.69304  28   -10.1 98    -10.4 1     0     1005.8   NA       0.0000   9999     0     0     0    
2019/08/01  12:34:00  BASE  2.1462   23   2.69304  28   -10.1 98    -10.4 1     0     1005.8   NA       0.0000   9999     0     0     0    
2019/08/01  12:35:00  BASE  2.0286   21   2.69304  28   -10.1 98    -10.4 1     0     1005.7   NA       0.0000   9999     0     0     0    
2019/08/01  12:36:00  BASE  1.92276  24   2.69304  28   -10.1 98    -10.4 1     0     1005.7   NA       0.0000   9999     0     0     0    
2019/08/01  12:37:00  BASE  2.00508  28   2.69304  28   -10.1 98    -10.3 1     0     1005.7   NA       0.0000   9999     0     0     0    
2019/08/01  12:38:00  BASE  2.09328  30   2.56956  24   -10.1 98    -10.3 1     0     1005.7   NA       0.0000   9999     0     0     0    
2019/08/01  12:39:00  BASE  1.84632  35   2.56956  24   -10.1 98    -10.3 1     0     1005.7   NA       0.0000   9999     0     0     0    
2019/08/01  12:40:00  BASE  1.55232  34   2.56956  24   -10.1 98    -10.3 1     0     1005.8   NA       0.0000   9999     0     0     0    
2019/08/01  12:41:00  BASE  1.42296  30   2.56956  24   -10.1 98    -10.3 1     0     1005.8   NA       0.0000   9999     0     0     0    
2019/08/01  12:42:00  BASE  1.54056  32   2.56956  24   -10.1 98    -10.4 2     0     1005.7   NA       0.0000   9999     0     0     0    
2019/08/01  12:43:00  BASE  1.86396  34   2.56956  24   -10.1 98    -10.3 2     0     1005.7   NA       0.0000   9999     0     0     0    
2019/08/01  12:44:00  BASE  2.27556  34   3.02232  32   -10.1 98    -10.3 2     0     1005.7   NA       0.0000   9999     0     0     0    
2019/08/01  12:45:00  BASE  2.36376  34   3.02232  32   -10.1 98    -10.4 2     0     1005.7   NA       0.0000   9999     0     0     0    
2019/08/01  12:46:00  BASE  2.12268  33   3.02232  32   -10.2 98    -10.4 2     0     1005.6   NA       0.0000   9999     0     0     0    
2019/08/01  12:47:00  BASE  2.16972  30   3.02232  32   -10.3 98    -10.5 2     0     1005.7   NA       0.0000   9999     0     0     0    
2019/08/01  12:48:00  BASE  2.21088  31   3.02232  32   -10.3 98    -10.6 2     0     1005.8   NA       0.0000   9999     0     0     0    
2019/08/01  12:49:00  BASE  1.95804  32   3.02232  32   -10.3 98    -10.6 2     0     1005.8   NA       0.0000   9999     0     0     0    
2019/08/01  12:50:00  BASE  1.92864  33   3.02232  32   -10.3 98    -10.5 2     0     1005.8   NA       0.0000   9999     0     0     0    
2019/08/01  12:51:00  BASE  1.8816   34   3.02232  32   -10.2 98    -10.4 3     0     1005.7   NA       0.0000   9999     0     0     0    
2019/08/01  12:52:00  BASE  1.06428  25   3.02232  32   -10.1 98    -10.3 3     0     1005.7   NA       0.0000   9999     0     0     0    
2019/08/01  12:53:00  BASE  0.99372  35   3.02232  32   -10.1 98    -10.3 3     0     1005.7   NA       0.0000   9999     0     0     0    
2019/08/01  12:54:00  BASE  1.55232  42   2.63424  35   -10.0 98    -10.2 3     0     1005.7   NA       0.0000   9999     0     0     0    
2019/08/01  12:55:00  BASE  1.47588  37   2.63424  35   -10.0 98    -10.2 3     0     1005.7   NA       0.0000   9999     0     0     0    
2019/08/01  12:56:00  BASE  1.81692  45   2.63424  35   -10.0 98    -10.2 3     0     1005.7   NA       0.0000   9999     0     0     0    
2019/08/01  12:57:00  BASE  1.80516  45   2.56956  35   -10.0 98    -10.3 3     0     1005.7   NA       0.0000   9999     0     0     0    
2019/08/01  12:58:00  BASE  1.47588  32   2.48136  49   -10.0 98    -10.3 4     0     1005.6   NA       0.0000   9999     0     0     0    
2019/08/01  12:59:00  BASE  1.3524   37   2.48136  49   -10.1 98    -10.4 4     0     1005.6   NA       0.0000   9999     0     0     0    
2019/08/01  13:00:00  BASE  1.45236  50   2.48136  49   -10.1 97    -10.4 4     0     1005.6   NA       0.0000   9999     0     0     0    
2019/08/01  13:01:00  BASE  1.8228   52   2.48136  49   -10.1 97    -10.4 4     0     1005.6   NA       0.0000   9999     0     0     0    
2019/08/01  13:02:00  BASE  2.04036  56   2.48136  49   -10.1 97    -10.4 4     0     1005.6   NA       0.0000   9999     0     0     0    
2019/08/01  13:03:00  BASE  2.18148  57   2.48136  59   -10.1 97    -10.4 4     0     1005.6   NA       0.0000   9999     0     0     0    
2019/08/01  13:04:00  BASE  1.96392  46   2.48136  59   -10.0 97    -10.4 4     0     1005.6   NA       0.0000   9999     0     0     0    
2019/08/01  13:05:00  BASE  1.68756  36   2.48136  59   -10.0 97    -10.4 5     0     1005.6   NA       0.0000   9999     0     0     0    
2019/08/01  13:06:00  BASE  1.69344  39   2.48136  59   -10.1 97    -10.4 5     0     1005.6   NA       0.0000   9999     0     0     0    
2019/08/01  13:07:00  BASE  1.7934   48   2.48136  59   -10.1 97    -10.5 5     0     1005.6   NA       0.0000   9999     0     0     0    
2019/08/01  13:08:00  BASE  1.78752  55   2.48136  59   -10.2 97    -10.6 5     0     1005.5   NA       0.0000   9999     0     0     0    
2019/08/01  13:09:00  BASE  1.72872  57   2.48136  59   -10.2 97    -10.6 5     0     1005.4   NA       0.0000   9999     0     0     0    
2019/08/01  13:10:00  BASE  1.4994   60   2.48136  59   -10.2 97    -10.6 5     0     1005.4   NA       0.0000   9999     0     0     0    
2019/08/01  13:11:00  BASE  1.34064  57   2.48136  59   -10.1 97    -10.6 6     0     1005.4   NA       0.0000   9999     0     0     0    
2019/08/01  13:12:00  BASE  1.4994   50   2.48136  59   -10.1 97    -10.5 6     0     1005.4   NA       0.0000   9999     0     0     0    
2019/08/01  13:13:00  BASE  1.56996  44   2.1462   52   -10.0 97    -10.5 6     0     1005.3   NA       0.0000   9999     0     0     0    
2019/08/01  13:14:00  BASE  1.69344  39   2.1462   52   -10.0 97    -10.5 6     0     1005.4   NA       0.0000   9999     0     0     0    
2019/08/01  13:15:00  BASE  1.764    39   2.1462   52   -10.1 96    -10.5 6     0     1005.4   NA       0.0000   9999     0     0     0    
2019/08/01  13:16:00  BASE  1.8522   42   2.1756   45   -10.1 96    -10.6 6     0     1005.4   NA       0.0000   9999     0     0     0    
2019/08/01  13:17:00  BASE  1.81692  42   2.1756   45   -10.1 96    -10.6 7     0     1005.4   NA       0.0000   9999     0     0     0    
2019/08/01  13:18:00  BASE  1.69344  45   2.1756   56   -10.1 96    -10.6 7     0     1005.4   NA       0.0000   9999     0     0     0    
2019/08/01  13:19:00  BASE  1.75812  47   2.1756   56   -10.1 96    -10.6 7     0     1005.3   NA       0.0000   9999     0     0     0    
2019/08/01  13:20:00  BASE  1.7052   45   2.1756   56   -10.1 96    -10.6 7     0     1005.3   NA       0.0000   9999     0     0     0    
2019/08/01  13:21:00  BASE  1.65816  46   2.1756   56   -10.0 96    -10.5 7     0     1005.3   NA       0.0000   9999     0     0     0    
2019/08/01  13:22:01  BASE  1.7346   48   2.1756   56   -10.0 96    -10.5 7     0     1005.3   NA       0.0000   9999     0     0     0    
2019/08/01  13:23:00  BASE  1.79928  48   2.1756   56   -10.0 96    -10.5 8     0     1005.3   NA       0.0000   9999     0     0     0    
2019/08/01  13:24:00  BASE  1.74636  45   2.1756   56   -10.0 96    -10.6 8     0     1005.3   NA       0.0000   9999     0     0     0    
2019/08/01  13:25:01  BASE  1.63464  40   2.1756   56   -10.0 96    -10.6 8     0     1005.3   NA       0.0000   9999     0     0     0    
2019/08/01  13:26:00  BASE  1.43472  34   2.1756   56   -10.0 96    -10.5 8     0     1005.3   NA       0.0000   9999     0     0     0    
2019/08/01  13:27:00  BASE  1.27596  32   2.1756   56   -10.0 96    -10.5 8     0     1005.3   NA       0.0000   9999     0     0     0    
2019/08/01  13:28:00  BASE  1.22304  43   1.9992   44   -10.0 96    -10.5 8     0     1005.3   NA       0.0000   9999     0     0     0    
2019/08/01  13:29:00  BASE  1.27596  53   1.9992   44   -9.9  96    -10.4 9     0     1005.3   NA       0.0000   9999     0     0     0    
2019/08/01  13:30:01  BASE  1.61112  52   1.9992   44   -9.9  96    -10.4 9     0     1005.3   NA       0.0000   9999     0     0     0    
2019/08/01  13:31:00  BASE  1.72284  49   1.9992   44   -9.9  96    -10.4 9     0     1005.3   NA       0.0000   9999     0     0     0    
2019/08/01  13:32:00  BASE  1.6464   49   2.058    50   -9.9  96    -10.4 9     0     1005.3   NA       0.0000   9999     0     0     0    
2019/08/01  13:33:00  BASE  1.92276  54   2.51076  54   -9.9  96    -10.5 9     0     1005.3   NA       0.0000   9999     0     0     0    
2019/08/01  13:34:00  BASE  2.13444  57   2.51076  54   -10.0 96    -10.5 10    0     1005.3   NA       0.0000   9999     0     0     0    
2019/08/01  13:35:00  BASE  2.22852  60   2.63424  59   -10.0 95    -10.6 10    0     1005.3   NA       0.0000   9999     0     0     0    
2019/08/01  13:36:00  BASE  2.44608  60   2.63424  52   -10.1 95    -10.7 10    0     1005.3   NA       0.0000   9999     0     0     0    
2019/08/01  13:37:00  BASE  2.53428  59   2.87532  62   -10.1 95    -10.8 10    0     1005.3   NA       0.0000   9999     0     0     0    
2019/08/01  13:38:00  BASE  2.45784  62   2.87532  62   -10.1 95    -10.8 10    0     1005.3   NA       0.0000   9999     0     0     0    
2019/08/01  13:39:00  BASE  2.38728  62   2.87532  56   -10.2 95    -10.8 11    0     1005.3   NA       0.0000   9999     0     0     0    
2019/08/01  13:40:00  BASE  2.31672  60   2.87532  56   -10.1 95    -10.8 11    0     1005.3   NA       0.0000   9999     0     0     0    
2019/08/01  13:41:00  BASE  2.05212  64   2.87532  56   -10.1 95    -10.7 11    0     1005.2   NA       0.0000   9999     0     0     0    
2019/08/01  13:42:00  BASE  1.89336  75   2.87532  56   -10.1 95    -10.8 11    0     1005.2   NA       0.0000   9999     0     0     0    
2019/08/01  13:43:00  BASE  1.87572  76   2.87532  56   -10.1 95    -10.8 11    0     1005.2   NA       0.0000   9999     0     0     0    
2019/08/01  13:44:00  BASE  1.911    71   2.87532  56   -10.1 94    -10.8 11    0     1005.2   NA       0.0000   9999     0     0     0    
2019/08/01  13:45:00  BASE  1.95216  68   2.87532  56   -10.1 94    -10.8 12    0     1005.2   NA       0.0000   9999     0     0     0    
2019/08/01  13:46:00  BASE  1.92864  67   2.87532  56   -10.0 94    -10.8 12    0     1005.2   NA       0.0000   9999     0     0     0    
2019/08/01  13:47:00  BASE  1.92276  66   2.87532  56   -9.9  94    -10.8 12    0     1005.2   NA       0.0000   9999     0     0     0    
2019/08/01  13:48:00  BASE  1.89336  61   2.87532  56   -9.8  93    -10.7 12    0     1005.1   NA       0.0000   9999     0     0     0    
2019/08/01  13:49:00  BASE  1.90512  60   2.48136  55   -9.8  93    -10.7 12    0     1005.1   NA       0.0000   9999     0     0     0    
2019/08/01  13:50:00  BASE  1.9698   59   2.26968  58   -9.7  93    -10.7 12    0     1005.1   NA       0.0000   9999     0     0     0    
2019/08/01  13:51:00  BASE  2.01096  58   2.35788  64   -9.7  92    -10.7 12    0     1005.1   NA       0.0000   9999     0     0     0    
2019/08/01  13:52:01  BASE  2.1756   59   2.63424  60   -9.7  92    -10.7 13    0     1005.1   NA       0.0000   9999     0     0     0    
2019/08/01  13:53:01  BASE  2.51664  59   2.90472  57   -9.7  92    -10.8 13    0     1005.1   NA       0.0000   9999     0     0     0    
2019/08/01  13:54:01  BASE  2.74596  60   2.96352  59   -9.8  92    -10.9 13    0     1005.1   NA       0.0000   9999     0     0     0    
2019/08/01  13:55:01  BASE  2.69304  60   2.96352  59   -9.8  91    -11.0 13    0     1005.1   NA       0.0000   9999     0     0     0    
2019/08/01  13:56:01  BASE  2.74008  64   3.234    61   -10.0 91    -11.1 13    0     1005.1   NA       0.0000   9999     0     0     0    
2019/08/01  13:57:01  BASE  3.23988  68   3.83964  71   -10.1 91    -11.3 13    0     1004.9   NA       0.0000   9999     0     0     0    
2019/08/01  13:58:01  BASE  3.4986   67   3.99252  56   -10.2 91    -11.4 13    0     1005.0   NA       0.0000   9999     0     0     0    
2019/08/01  13:59:01  BASE  3.3516   68   3.99252  56   -10.3 91    -11.5 14    0     1005.1   NA       0.0000   9999     0     0     0    
2019/08/01  14:00:01  BASE  3.234    70   3.99252  56   -10.4 91    -11.6 14    0     1005.1   NA       0.0000   9999     0     0     0    
2019/08/01  14:01:01  BASE  3.22224  67   3.99252  56   -10.4 91    -11.6 14    0     1005.1   NA       0.0000   9999     0     0     0    
2019/08/01  14:02:01  BASE  3.2634   64   3.99252  56   -10.4 90    -11.6 14    0     1005.1   NA       0.0000   9999     0     0     0    
2019/08/01  14:03:01  BASE  3.25752  67   3.99252  56   -10.3 90    -11.6 14    0     1005.1   NA       0.0000   9999     0     0     0    
2019/08/01  14:04:01  BASE  3.25752  71   3.99252  56   -10.3 90    -11.6 14    0     1005.1   NA       0.0000   9999     0     0     0    
2019/08/01  14:05:01  BASE  2.94588  65   3.99252  56   -10.3 89    -11.8 14    0     1005.1   NA       0.0000   9999     0     0     0    
2019/08/01  14:06:01  BASE  2.793    66   3.99252  56   -10.4 88    -12.0 14    0     1005.0   NA       0.0000   9999     0     0     0    
2019/08/01  14:07:01  BASE  2.98116  71   3.99252  56   -10.5 87    -12.3 15    0     1004.9   NA       0.0000   9999     0     0     0    
2019/08/01  14:08:01  BASE  3.03408  69   4.02192  60   -10.6 86    -12.4 15    0     1004.9   NA       0.0000   9999     0     0     0    
2019/08/01  14:09:01  BASE  2.69304  66   4.02192  60   -10.5 85    -12.5 15    0     1004.9   NA       0.0000   9999     0     0     0    
2019/08/01  14:10:01  BASE  2.39316  62   4.02192  60   -10.5 85    -12.6 15    0     1004.9   NA       0.0000   9999     0     0     0    
2019/08/01  14:11:01  BASE  2.42256  60   4.02192  60   -10.3 84    -12.5 15    0     1004.9   NA       0.0000   9999     0     0     0    
2019/08/01  14:12:01  BASE  2.54016  61   4.02192  60   -10.1 83    -12.4 15    0     1004.9   NA       0.0000   9999     0     0     0    
2019/08/01  14:13:01  BASE  2.6754   61   4.02192  60   -10.0 82    -12.5 15    0     1004.9   NA       0.0000   9999     0     0     0    
2019/08/01  14:14:01  BASE  2.58132  59   4.02192  60   -9.9  81    -12.6 15    0     1004.9   NA       0.0000   9999     0     0     0    
2019/08/01  14:15:01  BASE  2.39316  57   4.02192  60   -9.9  81    -12.6 15    0     1004.8   NA       0.0000   9999     0     0     0    
2019/08/01  14:16:01  BASE  2.15208  61   4.02192  60   -9.9  80    -12.6 16    0     1004.8   NA       0.0000   9999     0     0     0    
2019/08/01  14:17:01  BASE  2.21676  69   4.02192  60   -9.8  80    -12.6 16    0     1004.8   NA       0.0000   9999     0     0     0    
2019/08/01  14:18:01  BASE  2.7636   76   3.51036  85   -9.9  80    -12.7 16    0     1004.8   NA       0.0000   9999     0     0     0    
2019/08/01  14:19:01  BASE  3.19872  77   3.75144  78   -10.0 80    -12.7 16    0     1004.8   NA       0.0000   9999     0     0     0    
2019/08/01  14:20:01  BASE  3.45744  76   4.41588  70   -10.0 81    -12.7 16    0     1004.7   NA       0.0000   9999     0     0     0    
2019/08/01  14:21:01  BASE  3.82788  80   4.41588  70   -10.1 81    -12.8 16    0     1004.7   NA       0.0000   9999     0     0     0    
2019/08/01  14:22:01  BASE  3.81612  87   4.41588  70   -10.3 81    -12.9 16    0     1004.7   NA       0.0000   9999     0     0     0    
2019/08/01  14:23:01  BASE  3.48684  81   4.41588  70   -10.3 81    -13.0 16    0     1004.7   NA       0.0000   9999     0     0     0    
2019/08/01  14:24:01  BASE  3.34572  74   4.41588  70   -10.3 81    -12.9 18    0     1004.7   NA       0.0000   9999     0     0     0    
2019/08/01  14:25:01  BASE  3.22224  73   4.41588  70   -10.2 82    -12.7 21    0     1004.7   NA       0.0000   9999     0     0     0    
2019/08/01  14:26:01  BASE  3.12816  66   4.41588  70   -10.1 82    -12.6 25    0     1004.7   NA       0.0000   9999     0     0     0    
2019/08/01  14:27:01  BASE  3.13992  73   4.41588  70   -10.0 82    -12.5 31    0     1004.7   NA       0.0000   9999     0     0     0    
2019/08/01  14:28:01  BASE  2.90472  73   4.41588  70   -10.0 82    -12.5 38    0     1004.7   NA       0.0000   9999     0     0     0    
2019/08/01  14:29:01  BASE  2.16384  61   4.41588  70   -9.9  81    -12.5 44    0     1004.7   NA       0.0000   9999     0     0     0    
2019/08/01  14:30:01  BASE  1.52292  64   4.38648  89   -10.0 81    -12.6 50    0     1004.7   NA       0.0000   9999     0     0     0    
2019/08/01  14:31:01  BASE  1.176    73   4.35708  76   -10.0 81    -12.7 55    0     1004.7   NA       0.0000   9999     0     0     0    
2019/08/01  14:32:01  BASE  1.02312  90   4.35708  76   -9.9  80    -12.6 60    0     1004.7   NA       0.0000   9999     0     0     0    
2019/08/01  14:33:01  BASE  1.31124  100  4.35708  76   -9.7  80    -12.5 63    0     1004.7   NA       0.0000   9999     0     0     0    
2019/08/01  14:34:01  BASE  1.911    99   3.65736  63   -9.6  79    -12.7 65    0     1004.7   NA       0.0000   9999     0     0     0    
2019/08/01  14:35:01  BASE  2.29908  99   3.59856  71   -9.7  78    -12.9 65    0     1004.7   NA       0.0000   9999     0     0     0    
2019/08/01  14:36:01  BASE  2.55192  100  3.59856  71   -9.8  77    -13.1 67    0     1004.7   NA       0.0000   9999     0     0     0    
2019/08/01  14:37:01  BASE  2.61072  100  3.29868  95   -10.0 76    -13.3 67    0     1004.6   NA       0.0000   9999     0     0     0    
2019/08/01  14:38:01  BASE  2.28732  100  3.29868  95   -10.0 77    -13.3 68    0     1004.7   NA       0.0000   9999     0     0     0    
2019/08/01  14:39:01  BASE  1.76988  102  3.29868  95   -10.0 77    -13.2 69    0     1004.6   NA       0.0000   9999     0     0     0    
2019/08/01  14:40:01  BASE  1.24656  98   3.29868  95   -9.8  77    -13.0 70    0     1004.6   NA       0.0000   9999     0     0     0    
2019/08/01  14:41:01  BASE  0.98784  86   3.29868  95   -9.7  78    -12.8 71    0     1004.6   NA       0.0000   9999     0     0     0    
2019/08/01  14:42:01  BASE  0.84084  73   3.29868  95   -9.5  78    -12.6 72    0     1004.6   NA       0.0000   9999     0     0     0    
2019/08/01  14:43:01  BASE  0.77028  63   3.29868  95   -9.3  78    -12.4 73    0     1004.6   NA       0.0000   9999     0     0     0    
2019/08/01  14:44:01  BASE  1.08192  58   3.29868  95   -9.2  78    -12.3 73    0     1004.5   NA       0.0000   9999     0     0     0    
2019/08/01  14:45:01  BASE  1.71108  63   3.29868  95   -9.2  78    -12.3 74    0     1004.5   NA       0.0000   9999     0     0     0    
2019/08/01  14:46:01  BASE  1.89924  69   2.75184  95   -9.2  78    -12.4 75    0     1004.5   NA       0.0000   9999     0     0     0    
2019/08/01  14:47:01  BASE  1.81692  69   2.35788  98   -9.3  78    -12.5 76    0     1004.5   NA       0.0000   9999     0     0     0    
2019/08/01  14:48:01  BASE  1.764    66   2.1462   63   -9.5  78    -12.7 77    0     1004.5   NA       0.0000   9999     0     0     0    
2019/08/01  14:49:01  BASE  1.57584  63   2.1462   63   -9.6  78    -12.8 77    0     1004.5   NA       0.0000   9999     0     0     0    
2019/08/01  14:50:01  BASE  1.323    56   2.1462   63   -9.7  78    -12.8 78    0     1004.5   NA       0.0000   9999     0     0     0    
2019/08/01  14:51:01  BASE  1.04076  31   2.1462   63   -9.7  78    -12.7 78    0     1004.5   NA       0.0000   9999     0     0     0    
2019/08/01  14:52:01  BASE  0.63504  29   2.1462   63   -9.6  79    -12.6 80    0     1004.5   NA       0.0000   9999     0     0     0    
2019/08/01  14:53:01  BASE  0.19992  20   2.1462   63   -9.5  79    -12.5 80    0     1004.5   NA       0.0000   9999     0     0     0    
2019/08/01  14:54:01  BASE  0.09408  314  2.1462   63   -9.4  79    -12.4 81    0     1004.5   NA       0.0000   9999     0     0     0    
2019/08/01  14:55:01  BASE  1.16424  298  2.56956  289  -9.4  79    -12.4 82    0     1004.5   NA       0.0000   9999     0     0     0    
2019/08/01  14:56:01  BASE  2.0286   300  2.56956  289  -9.4  78    -12.5 83    0     1004.5   NA       0.0000   9999     0     0     0    
2019/08/01  14:57:01  BASE  1.5876   317  2.56956  289  -9.5  78    -12.7 84    0     1004.4   NA       0.0000   9999     0     0     0    
2019/08/01  14:58:01  BASE  0.78204  358  2.56956  289  -9.6  77    -12.9 85    0     1004.5   NA       0.0000   9999     0     0     0    
2019/08/01  14:59:01  BASE  0.58212  39   2.56956  289  -9.7  77    -13.0 88    0     1004.5   NA       0.0000   9999     0     0     0    
2019/08/01  15:00:01  BASE  1.07604  70   2.56956  289  -9.7  76    -13.2 91    0     1004.5   NA       0.0000   9999     1440  0     0    
2019/08/01  15:01:01  BASE  1.37004  72   2.56956  289  -9.8  76    -13.2 95    0     1004.5   NA       0.0000   9999     1410  0     0    
2019/08/01  15:02:01  BASE  1.57584  71   2.56956  289  -9.7  76    -13.2 98    0     1004.5   NA       0.0000   9999     0     0     0    
2019/08/01  15:03:01  BASE  1.84044  55   3.51036  24   -9.7  76    -13.2 100   0     1004.5   NA       0.0000   9999     1480  0     0    
2019/08/01  15:04:01  BASE  3.38688  34   5.86824  35   -9.7  76    -13.2 99    0     1004.4   NA       0.0000   9999     1480  0     0    
2019/08/01  15:05:01  BASE  4.25124  32   5.86824  35   -9.6  76    -13.0 99    0     1004.5   NA       0.0000   9999     1380  0     0    
2019/08/01  15:06:01  BASE  3.71616  33   5.86824  35   -9.5  76    -12.9 95    0     1004.4   NA       0.0000   9999     1310  0     0    
2019/08/01  15:07:01  BASE  3.07524  27   5.86824  35   -9.4  76    -12.9 92    0     1004.4   NA       0.0000   9999     0     0     0    
2019/08/01  15:08:01  BASE  2.65776  23   5.86824  35   -9.4  76    -12.9 93    0     1004.4   NA       0.0000   9999     0     0     0    
2019/08/01  15:09:01  BASE  2.9988   27   5.86824  35   -9.3  75    -12.9 93    0     1004.4   NA       0.0000   9999     0     0     0    
2019/08/01  15:10:00  BASE  2.94588  35   5.86824  35   -9.4  75    -13.0 94    0     1004.4   NA       0.0000   9999     0     0     0    
2019/08/01  15:11:01  BASE  2.4402   37   5.86824  35   -9.5  75    -13.1 95    0     1004.4   NA       0.0000   9999     0     0     0    
2019/08/01  15:12:01  BASE  1.75224  41   5.86824  35   -9.5  74    -13.2 96    0     1004.4   NA       0.0000   9999     0     0     0    
2019/08/01  15:13:01  BASE  1.2936   53   5.86824  35   -9.6  74    -13.4 97    0     1004.4   NA       0.0000   9999     0     0     0    
2019/08/01  15:14:01  BASE  1.0878   71   4.56876  43   -9.7  74    -13.5 97    0     1004.2   NA       0.0000   9999     0     0     0    
2019/08/01  15:15:01  BASE  1.1172   83   4.02192  37   -9.7  73    -13.6 98    0     1004.2   NA       0.0000   9999     0     0     0    
2019/08/01  15:16:01  BASE  1.28772  83   3.59856  18   -9.7  73    -13.6 98    0     1004.2   NA       0.0000   9999     0     0     0    
2019/08/01  15:17:01  BASE  1.24656  83   3.59856  18   -9.7  73    -13.7 99    0     1004.2   NA       0.0000   9999     0     0     0    
2019/08/01  15:18:01  BASE  1.25832  79   3.59856  18   -9.7  73    -13.7 101   0     1004.2   NA       0.0000   9999     0     0     0    
2019/08/01  15:19:01  BASE  1.69932  79   3.1458   41   -9.7  72    -13.8 101   0     1004.2   NA       0.0000   9999     0     0     0    
2019/08/01  15:20:01  BASE  2.61072  80   3.44568  79   -9.7  72    -13.8 101   0     1004.2   NA       0.0000   9999     0     0     0    
2019/08/01  15:21:01  BASE  3.1164   79   3.44568  79   -9.6  71    -13.8 102   0     1004.2   NA       0.0000   9999     0     0     0    
2019/08/01  15:22:01  BASE  2.98116  77   3.44568  79   -9.5  71    -13.8 102   0     1004.2   NA       0.0000   9999     0     0     0    
2019/08/01  15:23:01  BASE  2.89884  80   3.44568  79   -9.4  71    -13.8 103   0     1004.2   NA       0.0000   9999     0     0     0    
2019/08/01  15:24:01  BASE  2.56368  80   3.44568  79   -9.4  70    -13.8 104   0     1004.2   NA       0.0000   9999     0     0     0    
2019/08/01  15:25:01  BASE  2.58132  76   3.44568  79   -9.3  70    -13.9 104   0     1004.2   NA       0.0000   9999     0     0     0    
2019/08/01  15:26:01  BASE  2.63424  74   3.44568  79   -9.3  69    -14.0 105   0     1004.2   NA       0.0000   9999     0     0     0    
2019/08/01  15:27:01  BASE  2.205    70   3.44568  79   -9.4  67    -14.3 106   0     1004.2   NA       0.0000   9999     0     0     0    
2019/08/01  15:28:01  BASE  2.06976  73   3.44568  79   -9.4  66    -14.6 106   0     1004.2   NA       0.0000   9999     0     0     0    
2019/08/01  15:29:01  BASE  1.95804  69   3.44568  79   -9.5  64    -14.9 107   0     1004.1   NA       0.0000   9999     0     0     0    
2019/08/01  15:30:01  BASE  1.94628  52   3.35748  70   -9.5  63    -15.2 107   0     1004.1   NA       0.0000   9999     0     0     0    
2019/08/01  15:31:01  BASE  2.68716  38   3.59856  24   -9.5  63    -15.3 108   0     1004.1   NA       0.0000   9999     0     0     0    
2019/08/01  15:32:01  BASE  2.90472  33   3.59856  24   -9.6  63    -15.4 109   0     1004.1   NA       0.0000   9999     0     0     0    
2019/08/01  15:33:01  BASE  2.36376  38   3.59856  24   -9.7  63    -15.4 109   0     1004.1   NA       0.0000   9999     0     0     0    
2019/08/01  15:34:01  BASE  2.3814   44   3.59856  24   -9.7  64    -15.3 109   0     1004.1   NA       0.0000   9999     0     0     0    
2019/08/01  15:35:01  BASE  2.84592  51   3.59856  24   -9.8  65    -15.1 110   0     1004.1   NA       0.0000   9999     0     0     0    
2019/08/01  15:36:01  BASE  3.05172  57   3.59856  24   -9.8  66    -15.0 111   0     1004.1   NA       0.0000   9999     0     0     0    
2019/08/01  15:37:01  BASE  2.98116  65   3.59856  24   -9.9  67    -15.0 111   0     1004.1   NA       0.0000   9999     0     0     0    
2019/08/01  15:38:01  BASE  3.33984  79   4.53936  93   -10.0 67    -14.9 111   0     1004.1   NA       0.0000   9999     0     0     0    
2019/08/01  15:39:00  BASE  3.78084  84   4.53936  93   -10.0 68    -14.9 112   0     1004.1   NA       0.0000   9999     0     0     0    
2019/08/01  15:40:00  BASE  3.98076  83   4.86864  82   -10.1 68    -14.8 112   0     1004.1   NA       0.0000   9999     0     0     0    
2019/08/01  15:41:00  BASE  4.18068  88   5.3214   87   -10.0 69    -14.7 112   0     1004.1   NA       0.0000   9999     0     0     0    
2019/08/01  15:42:01  BASE  4.36296  95   5.65656  94   -10.0 69    -14.7 113   0     1004.1   NA       0.0000   9999     0     0     0    
2019/08/01  15:43:00  BASE  4.7628   100  5.99172  94   -10.0 69    -14.6 113   0     1004.1   NA       0.0000   9999     0     0     0    
2019/08/01  15:44:01  BASE  4.43352  96   5.99172  94   -10.0 70    -14.5 113   0     1004.1   NA       0.0000   9999     0     0     0    
2019/08/01  15:45:00  BASE  3.65148  92   5.99172  94   -9.9  70    -14.3 114   0     1004.1   NA       0.0000   9999     0     0     0    
2019/08/01  15:46:01  BASE  3.56328  89   5.99172  94   -9.9  71    -14.2 114   0     1004.1   NA       0.0000   9999     0     0     0    
2019/08/01  15:47:00  BASE  3.86904  81   5.99172  94   -9.8  72    -14.0 115   0     1004.1   NA       0.0000   9999     0     0     0    
2019/08/01  15:48:01  BASE  3.94548  77   5.99172  94   -9.7  72    -13.7 116   0     1004.1   NA       0.0000   9999     0     0     0    
2019/08/01  15:49:01  BASE  3.528    82   5.99172  94   -9.5  73    -13.5 116   0     1004.1   NA       0.0000   9999     0     0     0    
2019/08/01  15:50:01  BASE  3.33984  86   5.99172  94   -9.5  73    -13.4 116   0     1004.1   NA       0.0000   9999     0     0     0    
2019/08/01  15:51:00  BASE  3.83964  78   5.99172  94   -9.5  74    -13.4 116   0     1004.0   NA       0.0000   9999     0     0     0    
2019/08/01  15:52:01  BASE  4.35708  75   5.99172  94   -9.5  74    -13.3 117   0     1004.0   NA       0.0000   9999     0     0     0    
2019/08/01  15:53:00  BASE  4.62168  77   5.1744   79   -9.5  74    -13.2 117   0     1004.0   NA       0.0000   9999     0     0     0    
2019/08/01  15:54:01  BASE  4.56876  76   5.1744   79   -9.5  75    -13.2 117   0     1004.1   NA       0.0000   9999     0     0     0    
2019/08/01  15:55:01  BASE  4.3512   73   5.1744   79   -9.6  75    -13.2 118   0     1004.1   NA       0.0000   9999     0     0     0    
2019/08/01  15:56:01  BASE  4.29828  67   5.1744   79   -9.5  75    -13.1 118   0     1004.0   NA       0.0000   9999     0     0     0    
2019/08/01  15:57:01  BASE  4.69812  64   5.68596  60   -9.5  75    -13.1 118   0     1003.9   NA       0.0000   9999     0     0     0    
2019/08/01  15:58:00  BASE  5.21556  66   5.68596  59   -9.5  75    -13.1 118   0     1003.9   NA       0.0000   9999     0     0     0    
2019/08/01  15:59:01  BASE  4.62756  83   5.68596  59   -9.5  75    -13.1 119   0     1003.9   NA       0.0000   9999     0     0     0    
2019/08/01  16:00:00  BASE  3.84552  91   5.68596  59   -9.6  75    -13.2 119   0     1003.8   NA       0.0000   9999     0     0     0    
2019/08/01  16:01:00  BASE  3.93372  76   5.68596  59   -9.6  74    -13.3 119   0     1003.9   NA       0.0000   9999     0     0     0    
2019/08/01  16:02:01  BASE  4.12776  62   5.68596  59   -9.7  74    -13.4 119   0     1003.8   NA       0.0000   9999     0     0     0    
2019/08/01  16:03:00  BASE  4.39824  57   5.86824  57   -9.6  74    -13.4 119   0     1003.8   NA       0.0000   9999     0     0     0    
2019/08/01  16:04:01  BASE  4.63932  57   5.86824  57   -9.6  74    -13.4 119   0     1003.8   NA       0.0000   9999     0     0     0    
2019/08/01  16:05:00  BASE  4.263    57   5.86824  57   -9.4  74    -13.2 119   0     1003.8   NA       0.0000   9999     0     0     0    
2019/08/01  16:06:00  BASE  3.6456   55   5.86824  57   -9.3  73    -13.2 119   0     1003.8   NA       0.0000   9999     0     0     0    
2019/08/01  16:07:00  BASE  3.25752  54   5.86824  57   -9.2  73    -13.2 120   0     1003.8   NA       0.0000   9999     0     0     0    
2019/08/01  16:08:00  BASE  2.793    63   5.86824  57   -9.3  72    -13.3 120   0     1003.8   NA       0.0000   9999     0     0     0    
2019/08/01  16:09:00  BASE  2.11092  90   5.86824  57   -9.3  71    -13.5 120   0     1003.7   NA       0.0000   9999     0     0     0    
2019/08/01  16:10:00  BASE  1.99332  117  5.86824  57   -9.4  71    -13.7 120   0     1003.7   NA       0.0000   9999     0     0     0    
2019/08/01  16:11:00  BASE  2.21088  127  5.86824  57   -9.6  70    -14.0 120   0     1003.6   NA       0.0000   9999     0     0     0    
2019/08/01  16:12:00  BASE  2.34024  127  5.86824  57   -9.8  70    -14.2 120   0     1003.6   NA       0.0000   9999     0     0     0    
2019/08/01  16:13:00  BASE  2.57544  126  5.41548  64   -10.0 71    -14.3 120   0     1003.6   NA       0.0000   9999     0     0     0    
2019/08/01  16:14:00  BASE  2.80476  121  4.53936  59   -10.0 72    -14.2 120   0     1003.6   NA       0.0000   9999     0     0     0    
2019/08/01  16:15:00  BASE  2.99292  115  3.86904  61   -10.1 72    -14.1 102   0     1003.6   NA       0.0000   9999     0     0     0    
2019/08/01  16:16:01  BASE  3.4104   109  4.50996  99   -10.1 73    -13.9 96    0     1003.6   NA       0.0000   9999     0     0     0    
2019/08/01  16:17:00  BASE  3.89844  103  4.50996  99   -10.2 74    -13.9 118   0     1003.5   NA       0.0000   9999     0     0     0    
2019/08/01  16:18:01  BASE  4.05132  101  4.50996  99   -10.3 75    -13.9 118   0     1003.5   NA       0.0000   9999     0     0     0    
2019/08/01  16:19:00  BASE  3.95724  102  4.50996  99   -10.5 75    -14.1 119   0     1003.5   NA       0.0000   9999     0     0     0    
2019/08/01  16:20:00  BASE  3.7632   107  4.50996  99   -10.6 75    -14.1 119   0     1003.5   NA       0.0000   9999     0     0     0    
2019/08/01  16:21:00  BASE  3.69852  107  4.50996  99   -10.6 75    -14.1 120   0     1003.4   NA       0.0000   9999     0     0     0    
2019/08/01  16:22:00  BASE  3.92784  103  4.50996  99   -10.6 76    -14.0 120   0     1003.5   NA       0.0000   9999     0     0     0    
2019/08/01  16:23:00  BASE  4.09836  100  4.50996  99   -10.5 76    -14.0 120   0     1003.5   NA       0.0000   9999     0     0     0    
2019/08/01  16:24:00  BASE  4.05132  97   4.50996  99   -10.5 76    -13.9 120   0     1003.5   NA       0.0000   9999     0     0     0    
2019/08/01  16:25:00  BASE  3.95724  96   4.50996  99   -10.4 76    -13.8 120   0     1003.5   NA       0.0000   9999     0     0     0    
2019/08/01  16:26:01  BASE  4.09248  93   4.78044  89   -10.4 76    -13.8 120   0     1003.5   NA       0.0000   9999     0     0     0    
2019/08/01  16:27:00  BASE  4.22772  92   4.78044  89   -10.4 77    -13.7 121   0     1003.5   NA       0.0000   9999     0     0     0    
2019/08/01  16:28:00  BASE  4.12188  95   4.78044  89   -10.4 77    -13.7 120   0     1003.5   NA       0.0000   9999     0     0     0    
2019/08/01  16:29:00  BASE  4.13952  97   4.78044  89   -10.4 77    -13.6 120   0     1003.4   NA       0.0000   9999     0     0     0    
2019/08/01  16:30:00  BASE  4.24536  101  4.80984  108  -10.4 77    -13.5 120   0     1003.4   NA       0.0000   9999     0     0     0    
2019/08/01  16:31:00  BASE  4.19244  106  4.80984  108  -10.4 77    -13.6 120   0     1003.4   NA       0.0000   9999     0     0     0    
2019/08/01  16:32:00  BASE  3.95724  108  4.80984  108  -10.5 77    -13.8 120   0     1003.4   NA       0.0000   9999     0     0     0    
2019/08/01  16:33:00  BASE  3.77496  111  4.80984  108  -10.5 76    -13.9 121   0     1003.3   NA       0.0000   9999     0     0     0    
2019/08/01  16:34:00  BASE  3.6456   116  4.80984  108  -10.6 76    -14.0 121   0     1003.4   NA       0.0000   9999     0     0     0    
2019/08/01  16:35:00  BASE  3.66324  117  4.80984  108  -10.6 75    -14.2 121   0     1003.3   NA       0.0000   9999     0     0     0    
2019/08/01  16:36:00  BASE  3.85728  110  4.80984  108  -10.6 75    -14.2 120   0     1003.4   NA       0.0000   9999     0     0     0    
2019/08/01  16:37:00  BASE  4.0278   104  4.80984  108  -10.5 75    -14.1 120   0     1003.4   NA       0.0000   9999     0     0     0    
2019/08/01  16:38:00  BASE  4.19832  98   4.80984  108  -10.3 75    -14.0 120   0     1003.4   NA       0.0000   9999     0     0     0    
2019/08/01  16:39:00  BASE  4.09836  95   4.80984  108  -10.3 75    -13.9 120   0     1003.4   NA       0.0000   9999     0     0     0    
2019/08/01  16:40:00  BASE  3.76908  93   4.41588  98   -10.2 74    -13.9 120   0     1003.4   NA       0.0000   9999     0     0     0    
2019/08/01  16:41:00  BASE  3.52212  91   4.41588  98   -10.2 74    -13.9 120   0     1003.4   NA       0.0000   9999     0     0     0    
2019/08/01  16:42:00  BASE  3.33396  91   4.41588  98   -10.1 74    -13.9 120   0     1003.4   NA       0.0000   9999     0     0     0    
2019/08/01  16:43:00  BASE  3.07524  88   4.41588  98   -10.1 73    -14.0 119   0     1003.4   NA       0.0000   9999     0     0     0    
2019/08/01  16:44:00  BASE  2.78124  85   4.41588  98   -9.9  73    -13.9 120   0     1003.4   NA       0.0000   9999     0     0     0    
2019/08/01  16:45:00  BASE  2.53428  84   4.41588  98   -9.8  73    -13.7 120   0     1003.4   NA       0.0000   9999     0     0     0    
2019/08/01  16:46:00  BASE  2.3226   84   4.41588  98   -9.6  73    -13.6 120   0     1003.4   NA       0.0000   9999     0     0     0    
2019/08/01  16:47:00  BASE  2.06388  83   4.41588  98   -9.5  72    -13.5 120   0     1003.2   NA       0.0000   9999     0     0     0    
2019/08/01  16:48:00  BASE  1.81104  81   4.263    95   -9.4  72    -13.5 119   0     1003.2   NA       0.0000   9999     0     0     0    
2019/08/01  16:49:00  BASE  1.66404  79   3.75144  94   -9.3  72    -13.5 118   0     1003.2   NA       0.0000   9999     0     0     0    
2019/08/01  16:50:00  BASE  1.3818   77   3.53976  91   -9.2  71    -13.5 118   0     1003.2   NA       0.0000   9999     0     0     0    
2019/08/01  16:51:00  BASE  1.00548  74   3.53976  91   -9.2  71    -13.5 118   0     1003.1   NA       0.0000   9999     0     0     0    
2019/08/01  16:52:01  BASE  0.89964  77   3.087    88   -9.1  71    -13.5 117   0     1003.1   NA       0.0000   9999     0     0     0    
2019/08/01  16:53:00  BASE  0.99372  84   2.78124  83   -9.0  71    -13.4 118   0     1003.0   NA       0.0000   9999     0     0     0    
2019/08/01  16:54:00  BASE  1.07016  90   2.56956  83   -9.0  71    -13.4 117   0     1003.0   NA       0.0000   9999     0     0     0    
2019/08/01  16:55:00  BASE  1.13484  95   2.42256  83   -9.0  71    -13.4 117   0     1003.0   NA       0.0000   9999     0     0     0    
2019/08/01  16:56:00  BASE  1.55232  95   2.48136  87   -9.1  71    -13.4 116   0     1003.0   NA       0.0000   9999     0     0     0    
2019/08/01  16:57:00  BASE  2.42844  89   3.1458   87   -9.3  71    -13.6 116   0     1003.0   NA       0.0000   9999     0     0     0    
2019/08/01  16:58:01  BASE  3.6456   84   5.1744   79   -9.4  71    -13.7 116   0     1003.0   NA       0.0000   9999     0     0     0    
2019/08/01  16:59:00  BASE  4.60404  80   5.41548  88   -9.6  71    -13.9 115   0     1002.9   NA       0.0000   9999     0     0     0    
2019/08/01  17:00:00  BASE  4.54524  78   5.41548  88   -9.7  70    -14.2 115   0     1002.9   NA       0.0000   9999     0     0     0    
2019/08/01  17:01:00  BASE  4.38648  81   6.2328   88   -9.8  68    -14.6 115   0     1002.9   NA       0.0000   9999     0     0     0    
2019/08/01  17:02:01  BASE  4.2924   89   6.2328   88   -9.9  67    -15.0 114   0     1002.9   NA       0.0000   9999     0     0     0    
2019/08/01  17:03:00  BASE  3.55152  92   6.2328   88   -10.0 65    -15.3 114   0     1002.9   NA       0.0000   9999     0     0     0    
2019/08/01  17:04:00  BASE  3.31044  88   6.2328   88   -10.0 64    -15.4 113   0     1002.8   NA       0.0000   9999     0     0     0    
2019/08/01  17:05:00  BASE  4.01604  90   6.2328   88   -10.0 64    -15.6 113   0     1002.8   NA       0.0000   9999     0     0     0    
2019/08/01  17:06:00  BASE  5.0568   91   6.59148  73   -10.0 64    -15.5 113   0     1002.8   NA       0.0000   9999     0     0     0    
2019/08/01  17:07:00  BASE  5.51544  85   6.59148  73   -9.9  64    -15.5 112   0     1002.8   NA       0.0000   9999     0     0     0    
2019/08/01  17:08:00  BASE  5.18616  83   6.59148  73   -9.9  65    -15.3 111   0     1002.8   NA       0.0000   9999     0     0     0    
2019/08/01  17:09:00  BASE  4.60992  86   6.59148  73   -9.9  65    -15.2 111   0     1002.8   NA       0.0000   9999     0     0     0    
2019/08/01  17:10:00  BASE  4.7334   89   6.59148  73   -9.9  66    -15.0 110   0     1002.8   NA       0.0000   9999     0     0     0    
2019/08/01  17:11:00  BASE  5.65068  87   6.65616  90   -9.9  67    -14.8 111   0     1002.8   NA       0.0000   9999     0     0     0    
2019/08/01  17:12:00  BASE  5.6154   86   6.65616  90   -10.0 68    -14.7 110   0     1002.8   NA       0.0000   9999     0     0     0    
2019/08/01  17:13:00  BASE  4.998    86   6.65616  90   -10.0 69    -14.6 109   0     1002.8   NA       0.0000   9999     0     0     0    
2019/08/01  17:14:00  BASE  4.3512   88   6.65616  90   -10.1 70    -14.4 109   0     1002.8   NA       0.0000   9999     0     0     0    
2019/08/01  17:15:00  BASE  4.03956  91   6.65616  90   -10.1 71    -14.3 108   0     1002.8   NA       0.0000   9999     0     0     0    
2019/08/01  17:16:00  BASE  3.675    88   6.65616  90   -10.1 73    -14.1 108   0     1002.8   NA       0.0000   9999     0     0     0    
2019/08/01  17:17:00  BASE  2.90472  85   6.65616  90   -10.0 74    -13.8 107   0     1002.7   NA       0.0000   9999     0     0     0    
2019/08/01  17:18:00  BASE  2.95176  91   6.65616  90   -9.9  74    -13.7 107   0     1002.7   NA       0.0000   9999     0     0     0    
2019/08/01  17:19:00  BASE  3.23988  95   6.65616  90   -9.9  75    -13.5 106   0     1002.7   NA       0.0000   9999     0     0     0    
2019/08/01  17:20:00  BASE  2.9694   91   6.65616  90   -9.8  75    -13.3 106   0     1002.7   NA       0.0000   9999     0     0     0    
2019/08/01  17:21:00  BASE  2.75772  77   5.89764  81   -9.7  76    -13.2 105   0     1002.7   NA       0.0000   9999     0     0     0    
2019/08/01  17:22:00  BASE  2.58132  67   5.02152  87   -9.7  76    -13.2 105   0     1002.8   NA       0.0000   9999     0     0     0    
2019/08/01  17:23:00  BASE  2.0874   60   4.86864  88   -9.7  76    -13.0 104   0     1002.7   NA       0.0000   9999     0     0     0    
2019/08/01  17:24:00  BASE  1.81692  59   4.65696  96   -9.6  77    -12.9 103   0     1002.7   NA       0.0000   9999     0     0     0    
2019/08/01  17:25:00  BASE  1.77576  64   3.86904  85   -9.5  77    -12.8 103   0     1002.7   NA       0.0000   9999     0     0     0    
2019/08/01  17:26:00  BASE  1.72872  71   3.69264  95   -9.4  78    -12.6 102   0     1002.6   NA       0.0000   9999     0     0     0    
2019/08/01  17:27:00  BASE  1.68756  77   3.69264  95   -9.3  78    -12.5 101   0     1002.6   NA       0.0000   9999     0     0     0    
2019/08/01  17:28:00  BASE  1.5582   80   3.69264  95   -9.3  78    -12.4 100   0     1002.6   NA       0.0000   9999     0     0     0    
2019/08/01  17:29:00  BASE  1.42296  83   3.41628  96   -9.3  78    -12.4 100   0     1002.5   NA       0.0000   9999     0     0     0    
2019/08/01  17:30:00  BASE  1.21716  83   3.02232  64   -9.3  78    -12.5 99    0     1002.5   NA       0.0000   9999     0     0     0    
2019/08/01  17:31:01  BASE  0.7056   87   2.63424  62   -9.2  77    -12.5 99    0     1002.5   NA       0.0000   9999     0     0     0    
2019/08/01  17:32:00  BASE  0.18816  99   2.058    70   -9.2  77    -12.5 98    0     1002.5   NA       0.0000   9999     0     0     0    
2019/08/01  17:33:00  BASE  0.18816  108  2.058    70   -9.2  77    -12.5 97    0     1002.4   NA       0.0000   9999     0     0     0    
2019/08/01  17:34:00  BASE  0.84672  103  1.93452  67   -9.2  77    -12.5 96    0     1002.4   NA       0.0000   9999     0     0     0    
2019/08/01  17:35:00  BASE  1.4112   99   1.84632  79   -9.2  77    -12.5 96    0     1002.4   NA       0.0000   9999     0     0     0    
2019/08/01  17:36:00  BASE  1.58172  97   1.81692  75   -9.2  77    -12.5 96    0     1002.3   NA       0.0000   9999     0     0     0    
2019/08/01  17:37:01  BASE  1.8228   97   2.24028  94   -9.2  77    -12.6 95    0     1002.3   NA       0.0000   9999     0     0     0    
2019/08/01  17:38:00  BASE  2.15208  96   2.54016  90   -9.3  77    -12.7 95    0     1002.3   NA       0.0000   9999     0     0     0    
2019/08/01  17:39:00  BASE  2.3226   93   2.56956  91   -9.4  77    -12.7 93    0     1002.3   NA       0.0000   9999     0     0     0    
2019/08/01  17:40:00  BASE  2.24028  91   2.56956  91   -9.4  77    -12.7 93    0     1002.3   NA       0.0000   9999     0     0     0    
2019/08/01  17:41:00  BASE  1.83456  90   2.56956  91   -9.3  77    -12.7 92    0     1002.3   NA       0.0000   9999     0     0     0    
2019/08/01  17:42:00  BASE  1.16424  95   2.56956  91   -9.3  77    -12.5 91    0     1002.2   NA       0.0000   9999     0     0     0    
2019/08/01  17:43:00  BASE  0.71148  105  2.56956  91   -9.2  78    -12.4 90    0     1002.2   NA       0.0000   9999     0     0     0    
2019/08/01  17:44:00  BASE  1.2054   106  2.56956  91   -9.1  78    -12.3 90    0     1002.2   NA       0.0000   9999     0     0     0    
2019/08/01  17:45:00  BASE  1.7346   104  2.56956  91   -9.1  78    -12.3 89    0     1002.2   NA       0.0000   9999     0     0     0    
2019/08/01  17:46:00  BASE  1.51704  110  2.56956  91   -9.1  77    -12.4 88    0     1002.2   NA       0.0000   9999     0     0     0    
2019/08/01  17:47:00  BASE  1.24068  140  2.56956  91   -9.1  77    -12.4 87    0     1002.2   NA       0.0000   9999     0     0     0    
2019/08/01  17:48:00  BASE  1.13484  173  2.56956  91   -9.1  77    -12.4 86    0     1002.2   NA       0.0000   9999     0     0     0    
2019/08/01  17:49:00  BASE  1.22304  176  2.56956  91   -9.1  77    -12.4 85    0     1002.1   NA       0.0000   9999     0     0     0    
2019/08/01  17:50:00  BASE  1.35828  154  1.93452  108  -9.1  78    -12.3 84    0     1002.1   NA       0.0000   9999     0     0     0    
2019/08/01  17:51:00  BASE  1.5582   124  2.0874   106  -9.2  78    -12.4 84    0     1002.2   NA       0.0000   9999     0     0     0    
2019/08/01  17:52:00  BASE  1.84044  105  2.0874   97   -9.4  78    -12.5 83    0     1002.2   NA       0.0000   9999     0     0     0    
2019/08/01  17:53:00  BASE  1.87572  102  2.0874   97   -9.5  78    -12.6 82    0     1002.2   NA       0.0000   9999     0     0     0    
2019/08/01  17:54:00  BASE  1.71108  110  2.0874   97   -9.5  78    -12.6 81    0     1002.2   NA       0.0000   9999     0     0     0    
2019/08/01  17:55:00  BASE  1.56408  117  2.0874   97   -9.6  79    -12.6 81    0     1002.2   NA       0.0000   9999     0     0     0    
2019/08/01  17:56:00  BASE  1.59936  117  2.0874   97   -9.5  79    -12.4 79    0     1002.2   NA       0.0000   9999     0     0     0    
2019/08/01  17:57:00  BASE  1.69344  111  2.0874   97   -9.4  80    -12.3 79    0     1002.2   NA       0.0000   9999     0     0     0    
2019/08/01  17:58:00  BASE  1.66404  108  2.0874   97   -9.3  80    -12.2 78    0     1002.2   NA       0.0000   9999     0     0     0    
2019/08/01  17:59:00  BASE  1.86984  106  2.29908  99   -9.4  80    -12.2 78    0     1002.2   NA       0.0000   9999     0     0     0    
2019/08/01  18:00:00  BASE  2.2638   99   2.56956  88   -9.4  80    -12.3 77    0     1002.2   NA       0.0000   9999     0     0     0    
2019/08/01  18:01:00  BASE  2.32848  95   2.56956  88   -9.5  80    -12.3 76    0     1002.2   NA       0.0000   9999     0     0     0    
2019/08/01  18:02:00  BASE  2.19912  92   2.56956  88   -9.5  80    -12.3 75    0     1002.2   NA       0.0000   9999     0     0     0    
2019/08/01  18:03:00  BASE  2.0874   92   2.56956  88   -9.6  80    -12.4 75    0     1002.2   NA       0.0000   9999     0     0     0    
2019/08/01  18:04:00  BASE  1.911    91   2.56956  88   -9.6  80    -12.4 74    0     1002.2   NA       0.0000   9999     0     0     0    
2019/08/01  18:05:00  BASE  1.81104  90   2.56956  88   -9.6  80    -12.5 73    0     1002.2   NA       0.0000   9999     0     0     0    
2019/08/01  18:06:00  BASE  1.71108  89   2.56956  88   -9.7  80    -12.5 72    0     1002.1   NA       0.0000   9999     0     0     0    
2019/08/01  18:07:00  BASE  1.91688  85   2.56956  78   -9.8  80    -12.6 71    0     1002.2   NA       0.0000   9999     0     0     0    
2019/08/01  18:08:00  BASE  2.44608  82   2.87532  86   -9.8  80    -12.7 70    0     1002.2   NA       0.0000   9999     0     0     0    
2019/08/01  18:09:00  BASE  2.65776  81   2.87532  86   -9.8  80    -12.6 69    0     1002.2   NA       0.0000   9999     0     0     0    
2019/08/01  18:10:00  BASE  2.48724  82   2.87532  86   -9.7  80    -12.5 69    0     1002.1   NA       0.0000   9999     0     0     0    
2019/08/01  18:11:00  BASE  2.14032  86   2.87532  86   -9.6  80    -12.4 67    0     1002.1   NA       0.0000   9999     0     0     0    
2019/08/01  18:12:00  BASE  2.08152  88   2.87532  86   -9.5  80    -12.4 67    0     1002.1   NA       0.0000   9999     0     0     0    
2019/08/01  18:13:00  BASE  2.1756   88   2.87532  86   -9.4  79    -12.3 65    0     1002.1   NA       0.0000   9999     0     0     0    
2019/08/01  18:14:00  BASE  2.14032  86   2.87532  86   -9.4  79    -12.3 65    0     1002.1   NA       0.0000   9999     0     0     0    
2019/08/01  18:15:00  BASE  2.29908  86   2.87532  86   -9.4  79    -12.4 64    0     1002.1   NA       0.0000   9999     0     0     0    
2019/08/01  18:16:00  BASE  2.28732  88   2.87532  86   -9.4  79    -12.4 63    0     1002.1   NA       0.0000   9999     0     0     0    
2019/08/01  18:17:00  BASE  2.1756   86   2.87532  86   -9.4  79    -12.4 62    0     1002.1   NA       0.0000   9999     0     0     0    
2019/08/01  18:18:00  BASE  2.34612  83   2.81064  80   -9.4  79    -12.3 62    0     1002.1   NA       0.0000   9999     0     0     0    
2019/08/01  18:19:00  BASE  2.66952  80   2.99292  79   -9.4  79    -12.3 61    0     1002.1   NA       0.0000   9999     0     0     0    
2019/08/01  18:20:00  BASE  3.0576   83   3.53976  85   -9.4  79    -12.4 60    0     1002.1   NA       0.0000   9999     0     0     0    
2019/08/01  18:21:00  BASE  3.33984  88   3.81024  92   -9.6  78    -12.6 59    0     1002.1   NA       0.0000   9999     0     0     0    
2019/08/01  18:22:00  BASE  3.3222   91   3.81024  92   -9.8  78    -12.8 58    0     1002.0   NA       0.0000   9999     0     0     0    
2019/08/01  18:23:00  BASE  3.087    91   3.81024  92   -10.0 78    -13.1 57    0     1002.0   NA       0.0000   9999     0     0     0    
2019/08/01  18:24:01  BASE  2.94     93   3.81024  92   -10.2 78    -13.3 55    0     1002.0   NA       0.0000   9999     0     0     0    
2019/08/01  18:25:00  BASE  2.84004  96   3.81024  92   -10.3 79    -13.3 55    0     1002.0   NA       0.0000   9999     0     0     0    
2019/08/01  18:26:00  BASE  2.97528  100  3.81024  92   -10.3 79    -13.2 54    0     1002.0   NA       0.0000   9999     0     0     0    
2019/08/01  18:27:00  BASE  3.18108  100  3.81024  92   -10.2 80    -12.9 53    0     1002.0   NA       0.0000   9999     0     0     0    
2019/08/01  18:28:00  BASE  2.8224   105  3.81024  92   -10.0 81    -12.6 51    0     1001.9   NA       0.0000   9999     0     0     0    
2019/08/01  18:29:00  BASE  2.19324  115  3.81024  92   -9.8  81    -12.3 50    0     1001.9   NA       0.0000   9999     0     0     0    
2019/08/01  18:30:00  BASE  2.06976  123  3.81024  92   -9.6  82    -12.2 49    0     1001.8   NA       0.0000   9999     0     0     0    
2019/08/01  18:31:00  BASE  2.42844  129  3.35748  96   -9.6  82    -12.1 48    0     1001.8   NA       0.0000   9999     0     0     0    
2019/08/01  18:32:00  BASE  2.793    121  3.35748  96   -9.7  82    -12.2 47    0     1001.8   NA       0.0000   9999     0     0     0    
2019/08/01  18:33:00  BASE  3.12816  106  3.44568  103  -9.7  82    -12.2 46    0     1001.8   NA       0.0000   9999     0     0     0    
2019/08/01  18:34:00  BASE  3.36336  101  3.72204  113  -9.9  82    -12.3 45    0     1001.8   NA       0.0000   9999     0     0     0    
2019/08/01  18:35:00  BASE  3.35748  103  3.72204  113  -9.9  83    -12.3 43    0     1001.8   NA       0.0000   9999     0     0     0    
2019/08/01  18:36:00  BASE  3.1458   103  3.72204  113  -9.9  83    -12.2 42    0     1001.8   NA       0.0000   9999     0     0     0    
2019/08/01  18:37:00  BASE  2.74596  106  3.72204  113  -9.8  84    -12.0 41    0     1001.8   NA       0.0000   9999     0     0     0    
2019/08/01  18:38:00  BASE  2.31084  122  3.72204  113  -9.7  84    -11.9 40    0     1001.7   NA       0.0000   9999     0     0     0    
2019/08/01  18:39:00  BASE  1.91688  141  3.72204  113  -9.6  84    -11.8 39    0     1001.7   NA       0.0000   9999     0     0     0    
2019/08/01  18:40:00  BASE  1.7934   158  3.72204  113  -9.5  84    -11.7 38    0     1001.7   NA       0.0000   9999     0     0     0    
2019/08/01  18:41:00  BASE  1.65816  163  3.72204  113  -9.5  84    -11.6 38    0     1001.7   NA       0.0000   9999     0     0     0    
2019/08/01  18:42:01  BASE  1.47588  158  3.72204  113  -9.5  85    -11.6 37    0     1001.6   NA       0.0000   9999     0     0     0    
2019/08/01  18:43:00  BASE  1.4112   139  3.72204  113  -9.5  85    -11.6 34    0     1001.7   NA       0.0000   9999     0     0     0    
2019/08/01  18:44:00  BASE  1.22892  107  3.53976  98   -9.6  85    -11.7 33    0     1001.7   NA       0.0000   9999     0     0     0    
2019/08/01  18:45:00  BASE  1.06428  85   3.38688  100  -9.6  85    -11.7 32    0     1001.7   NA       0.0000   9999     0     0     0    
2019/08/01  18:46:00  BASE  1.06428  71   2.84592  107  -9.6  85    -11.7 29    0     1001.7   NA       0.0000   9999     0     0     0    
2019/08/01  18:47:00  BASE  0.85848  50   2.45196  130  -9.6  85    -11.6 27    0     1001.6   NA       0.0000   9999     0     0     0    
2019/08/01  18:48:00  BASE  0.294    47   2.1168   166  -9.5  86    -11.4 26    0     1001.6   NA       0.0000   9999     0     0     0    
2019/08/01  18:49:00  BASE  0.3234   87   2.1168   166  -9.3  86    -11.3 22    0     1001.6   NA       0.0000   9999     0     0     0    
2019/08/01  18:50:00  BASE  1.06428  102  2.0286   161  -9.2  86    -11.2 19    0     1001.6   NA       0.0000   9999     0     0     0    
2019/08/01  18:51:00  BASE  1.6758   93   2.1462   80   -9.2  86    -11.2 14    0     1001.6   NA       0.0000   9999     0     0     0    
2019/08/01  18:52:00  BASE  1.8816   100  2.1462   80   -9.3  86    -11.2 17    0     1001.6   NA       0.0000   9999     0     0     0    
2019/08/01  18:53:00  BASE  1.78752  136  2.1462   80   -9.3  86    -11.2 18    0     1001.5   NA       0.0000   9999     0     0     0    
2019/08/01  18:54:00  BASE  1.98156  180  2.78124  198  -9.2  86    -11.1 16    0     1001.3   NA       0.0000   9999     0     0     0    
2019/08/01  18:55:00  BASE  2.31672  199  2.87532  210  -9.2  86    -11.1 13    0     1001.3   NA       0.0000   9999     0     0     0    
2019/08/01  18:56:00  BASE  1.64052  200  2.87532  210  -9.2  86    -11.1 13    0     1001.4   NA       0.0000   9999     0     0     0    
2019/08/01  18:57:00  BASE  1.41708  136  2.87532  210  -9.3  86    -11.2 13    0     1001.4   NA       0.0000   9999     0     0     0    
2019/08/01  18:58:00  BASE  2.1756   62   2.87532  210  -9.5  86    -11.4 12    0     1001.4   NA       0.0000   9999     0     0     0    
2019/08/01  18:59:00  BASE  2.46372  64   2.96352  69   -9.6  86    -11.5 11    0     1001.4   NA       0.0000   9999     0     0     0    
2019/08/01  19:00:00  BASE  1.72872  47   2.96352  69   -9.6  86    -11.5 11    0     1001.3   NA       0.0000   9999     0     0     0    
2019/08/01  19:01:00  BASE  0.9114   279  2.96352  69   -9.5  87    -11.3 11    0     1001.2   NA       0.0000   9999     0     0     0    
2019/08/01  19:02:00  BASE  1.6464   231  2.96352  69   -9.3  87    -11.0 10    0     1001.1   NA       0.0000   9999     0     0     0    
2019/08/01  19:03:00  BASE  2.6754   226  3.2046   223  -9.1  87    -10.8 10    0     1001.1   NA       0.0000   9999     0     0     0    
2019/08/01  19:04:01  BASE  3.15756  222  3.96312  216  -9.0  87    -10.7 10    0     1001.1   NA       0.0000   9999     0     0     0    
2019/08/01  19:05:00  BASE  3.71616  221  4.2042   221  -8.9  87    -10.6 9     0     1001.0   NA       0.0000   9999     0     0     0    
2019/08/01  19:06:00  BASE  3.85728  221  4.2042   221  -8.9  87    -10.6 9     0     1001.0   NA       0.0000   9999     0     0     0    
2019/08/01  19:07:00  BASE  3.48096  224  4.2042   221  -8.9  87    -10.6 9     0     1001.0   NA       0.0000   9999     0     0     0    
2019/08/01  19:08:00  BASE  3.1752   222  4.2042   221  -8.8  88    -10.5 9     0     1001.0   NA       0.0000   9999     0     0     0    
2019/08/01  19:09:00  BASE  3.06348  211  4.2042   221  -8.8  88    -10.4 8     0     1000.9   NA       0.0000   9999     0     0     0    
2019/08/01  19:10:00  BASE  2.90472  194  4.2042   221  -8.7  88    -10.3 8     0     1000.9   NA       0.0000   9999     0     0     0    
2019/08/01  19:11:00  BASE  2.78124  176  4.2042   221  -8.7  88    -10.3 8     0     1000.8   NA       0.0000   9999     0     0     0    
2019/08/01  19:12:00  BASE  2.88708  172  4.2042   221  -8.7  88    -10.4 8     0     1000.8   NA       0.0000   9999     0     0     0    
2019/08/01  19:13:00  BASE  3.5574   166  5.3214   162  -8.8  88    -10.5 8     0     1000.7   NA       0.0000   9999     0     0     0    
2019/08/01  19:14:00  BASE  4.9098   161  6.321    162  -9.0  87    -10.7 7     0     1000.5   NA       0.0000   9999     0     0     0    
2019/08/01  19:15:00  BASE  6.30924  161  8.04384  162  -9.1  87    -10.8 7     0     1000.6   NA       0.0000   9999     0     0     0    
2019/08/01  19:16:00  BASE  6.86784  155  8.04384  162  -9.2  88    -10.8 7     0     1000.7   NA       0.0000   9999     0     0     0    
2019/08/01  19:17:00  BASE  6.94428  145  8.07912  140  -9.2  88    -10.8 7     0     1000.8   NA       0.0000   9999     0     0     0    
2019/08/01  19:18:00  BASE  7.44996  135  8.07912  131  -9.2  88    -10.8 7     0     1000.8   NA       0.0000   9999     0     0     0    
2019/08/01  19:19:00  BASE  7.57344  126  8.19672  130  -9.1  88    -10.7 6     0     1000.8   NA       0.0000   9999     0     0     0    
2019/08/01  19:20:00  BASE  7.65576  108  8.4672   94   -9.2  88    -10.7 6     0     1000.8   NA       0.0000   9999     0     0     0    
2019/08/01  19:21:00  BASE  8.15556  96   8.83176  96   -9.4  88    -11.1 6     0     1000.8   NA       0.0000   9999     0     0     0    
2019/08/01  19:22:00  BASE  8.085    96   8.83176  96   -9.8  87    -11.5 6     0     1000.7   NA       0.0000   9999     0     0     0    
2019/08/01  19:23:00  BASE  7.938    97   8.83176  96   -10.2 87    -12.0 6     0     1000.7   NA       0.0000   9999     0     0     0    
2019/08/01  19:24:00  BASE  7.9674   97   8.83176  96   -10.7 87    -12.5 5     0     1000.7   NA       0.0000   9999     0     0     0    
2019/08/01  19:25:00  BASE  7.80864  95   8.83176  96   -11.0 86    -12.9 5     0     1000.7   NA       0.0000   9999     0     0     0    
2019/08/01  19:26:00  BASE  7.53816  95   8.83176  96   -11.2 87    -12.9 5     0     1000.7   NA       0.0000   9999     0     0     0    
2019/08/01  19:27:00  BASE  7.22064  98   8.83176  96   -11.1 88    -12.7 5     0     1000.7   NA       0.0000   9999     0     0     0    
2019/08/01  19:28:00  BASE  6.98544  99   8.83176  96   -10.9 88    -12.5 5     0     1000.8   NA       0.0000   9999     0     0     0    
2019/08/01  19:29:00  BASE  6.77376  97   8.83176  96   -10.8 88    -12.4 5     0     1000.8   NA       0.0000   9999     0     0     0    
2019/08/01  19:30:00  BASE  6.6738   92   8.83176  96   -10.7 88    -12.3 4     0     1000.8   NA       0.0000   9999     0     0     0    
2019/08/01  19:31:00  BASE  6.29748  88   8.59068  98   -10.7 88    -12.3 4     0     1000.8   NA       0.0000   9999     0     0     0    
2019/08/01  19:32:00  BASE  5.80944  86   8.59068  98   -10.8 88    -12.4 4     0     1000.7   NA       0.0000   9999     0     0     0    
2019/08/01  19:33:00  BASE  5.69184  88   8.59068  98   -10.8 88    -12.5 4     0     1000.7   NA       0.0000   9999     0     0     0    
2019/08/01  19:34:00  BASE  5.6154   91   8.16732  94   -10.9 88    -12.5 4     0     1000.7   NA       0.0000   9999     0     0     0    
2019/08/01  19:35:00  BASE  5.9388   90   7.77336  95   -10.9 87    -12.6 4     0     1000.7   NA       0.0000   9999     0     0     0    
2019/08/01  19:36:00  BASE  6.43272  88   7.56168  96   -11.0 87    -12.7 4     0     1000.7   NA       0.0000   9999     0     0     0    
2019/08/01  19:37:00  BASE  6.45036  88   7.2912   95   -10.9 87    -12.7 3     0     1000.7   NA       0.0000   9999     0     0     0    
2019/08/01  19:38:00  BASE  6.29748  90   7.16772  90   -10.9 87    -12.7 3     0     1000.7   NA       0.0000   9999     0     0     0    
2019/08/01  19:39:00  BASE  6.19752  92   7.16772  90   -10.9 87    -12.6 3     0     1000.7   NA       0.0000   9999     0     0     0    
2019/08/01  19:40:00  BASE  6.00936  90   7.16772  90   -10.7 87    -12.5 3     0     1000.7   NA       0.0000   9999     0     0     0    
2019/08/01  19:41:00  BASE  5.7624   82   7.16772  90   -10.5 87    -12.3 3     0     1000.7   NA       0.0000   9999     0     0     0    
2019/08/01  19:42:00  BASE  5.36256  73   7.16772  90   -10.3 87    -12.0 3     0     1000.7   NA       0.0000   9999     0     0     0    
2019/08/01  19:43:00  BASE  4.89804  76   7.16772  90   -10.1 87    -11.8 3     0     1000.7   NA       0.0000   9999     0     0     0    
2019/08/01  19:44:00  BASE  4.56288  83   7.16772  90   -9.9  87    -11.7 3     0     1000.7   NA       0.0000   9999     0     0     0    
2019/08/01  19:45:00  BASE  4.33356  83   7.16772  90   -9.9  87    -11.7 2     0     1000.6   NA       0.0000   9999     0     0     0    
2019/08/01  19:46:00  BASE  4.03368  82   6.92664  85   -9.8  86    -11.7 2     0     1000.7   NA       0.0000   9999     0     0     0    
2019/08/01  19:47:00  BASE  4.05132  81   6.53268  92   -9.8  86    -11.8 2     0     1000.6   NA       0.0000   9999     0     0     0    
2019/08/01  19:48:00  BASE  4.03956  76   6.47388  94   -9.7  85    -11.8 2     0     1000.7   NA       0.0000   9999     0     0     0    
2019/08/01  19:49:00  BASE  3.76908  64   6.3504   95   -9.6  85    -11.7 2     0     1000.6   NA       0.0000   9999     0     0     0    
2019/08/01  19:50:00  BASE  3.60444  57   6.07992  76   -9.4  85    -11.5 2     0     1000.6   NA       0.0000   9999     0     0     0    
2019/08/01  19:51:00  BASE  3.1752   50   5.3214   66   -9.2  84    -11.3 2     0     1000.5   NA       0.0000   9999     0     0     0    
2019/08/01  19:52:00  BASE  2.53428  38   5.1744   81   -9.0  83    -11.3 2     0     1000.5   NA       0.0000   9999     0     0     0    
2019/08/01  19:53:00  BASE  2.19324  45   4.86864  86   -9.0  82    -11.4 2     0     1000.5   NA       0.0000   9999     0     0     0    
2019/08/01  19:54:00  BASE  2.25204  53   4.80984  79   -8.9  82    -11.4 1     0     1000.5   NA       0.0000   9999     0     0     0    
2019/08/01  19:55:00  BASE  2.1756   47   4.47468  79   -8.8  81    -11.5 1     0     1000.5   NA       0.0000   9999     0     0     0    
2019/08/01  19:56:00  BASE  2.41668  48   4.47468  79   -8.7  80    -11.6 1     0     1000.5   NA       0.0000   9999     0     0     0    
2019/08/01  19:57:00  BASE  2.52252  47   4.02192  59   -8.6  79    -11.6 1     0     1000.6   NA       0.0000   9999     0     0     0    
2019/08/01  19:58:00  BASE  2.78712  34   4.68636  19   -8.6  78    -11.8 1     0     1000.6   NA       0.0000   9999     0     0     0    
2019/08/01  19:59:00  BASE  4.2336   25   5.47428  25   -8.6  76    -12.0 1     0     1000.5   NA       0.0000   9999     0     0     0    
2019/08/01  20:00:00  BASE  4.69224  24   5.47428  25   -8.6  75    -12.2 1     0     1000.5   NA       0.0000   9999     0     0     0    
2019/08/01  20:01:00  BASE  3.56328  20   5.47428  25   -8.6  74    -12.4 1     0     1000.5   NA       0.0000   9999     0     0     0    
2019/08/01  20:02:00  BASE  2.31672  22   5.47428  25   -8.6  73    -12.5 1     0     1000.5   NA       0.0000   9999     0     0     0    
2019/08/01  20:03:00  BASE  1.18188  23   5.47428  25   -8.4  72    -12.5 1     0     1000.5   NA       0.0000   9999     0     0     0    
2019/08/01  20:04:00  BASE  0.40572  16   5.47428  25   -8.2  71    -12.5 1     0     1000.5   NA       0.0000   9999     0     0     0    
2019/08/01  20:05:00  BASE  0.0882   7    5.47428  25   -8.1  70    -12.6 1     0     1000.5   NA       0.0000   9999     0     0     0    
2019/08/01  20:06:00  BASE  0.37044  323  5.47428  25   -8.0  69    -12.7 1     0     1000.6   NA       0.0000   9999     0     0     0    
2019/08/01  20:07:00  BASE  0.72912  287  5.47428  25   -7.9  68    -12.9 1     0     1000.7   NA       0.0000   9999     0     0     0    
2019/08/01  20:08:00  BASE  0.4116   281  5.47428  25   -8.0  67    -13.1 1     0     1000.7   NA       0.0000   9999     0     0     0    
2019/08/01  20:09:00  BASE  0.08232  263  4.75104  23   -8.1  66    -13.4 1     0     1000.7   NA       0.0000   9999     0     0     0    
2019/08/01  20:10:00  BASE  0.16464  231  3.51036  24   -8.3  66    -13.6 1     0     1000.7   NA       0.0000   9999     0     0     0    
2019/08/01  20:11:00  BASE  0.15876  213  2.35788  17   -8.5  66    -13.8 0     0     1000.6   NA       0.0000   9999     0     0     0    
2019/08/01  20:12:00  BASE  0.5292   203  1.24068  190  -8.8  66    -14.0 0     0     1000.5   NA       0.0000   9999     0     0     0    
2019/08/01  20:13:00  BASE  1.2936   200  2.32848  228  -8.9  67    -14.0 0     0     1000.5   NA       0.0000   9999     0     0     0    
2019/08/01  20:14:00  BASE  1.68168  203  2.38728  198  -9.0  67    -14.0 0     0     1000.5   NA       0.0000   9999     0     0     0    
2019/08/01  20:15:00  BASE  1.911    198  2.69304  202  -9.1  68    -13.9 0     0     1000.4   NA       0.0000   9999     0     0     0    
2019/08/01  20:16:00  BASE  2.26968  198  2.81064  210  -9.1  68    -13.9 0     0     1000.4   NA       0.0000   9999     0     0     0    
2019/08/01  20:17:00  BASE  2.61072  203  3.2046   208  -9.2  69    -13.8 0     0     1000.4   NA       0.0000   9999     0     0     0    
2019/08/01  20:18:00  BASE  2.76948  198  3.2046   208  -9.2  70    -13.8 0     0     1000.4   NA       0.0000   9999     0     0     0    
2019/08/01  20:19:00  BASE  2.87532  193  3.2046   187  -9.3  71    -13.7 0     0     1000.4   NA       0.0000   9999     0     0     0    
2019/08/01  20:20:00  BASE  2.96352  194  3.90432  198  -9.4  72    -13.5 0     0     1000.4   NA       0.0000   9999     0     0     0    
2019/08/01  20:21:00  BASE  3.22812  193  3.90432  198  -9.4  73    -13.4 0     0     1000.4   NA       0.0000   9999     0     0     0    
2019/08/01  20:22:00  BASE  3.53388  189  4.02192  194  -9.4  74    -13.2 0     0     1000.4   NA       0.0000   9999     0     0     0    
2019/08/01  20:23:00  BASE  3.5574   185  4.02192  194  -9.5  75    -13.1 0     0     1000.4   NA       0.0000   9999     0     0     0    
2019/08/01  20:24:00  BASE  3.62208  177  4.1454   176  -9.5  76    -12.9 0     0     1000.4   NA       0.0000   9999     0     0     0    
2019/08/01  20:25:00  BASE  3.72792  173  4.1454   176  -9.4  77    -12.6 0     0     1000.4   NA       0.0000   9999     0     0     0    
2019/08/01  20:26:00  BASE  3.72792  169  4.1454   176  -9.3  78    -12.4 0     0     1000.4   NA       0.0000   9999     0     0     0    
2019/08/01  20:27:00  BASE  3.83964  170  4.2042   173  -9.2  79    -12.3 0     0     1000.4   NA       0.0000   9999     0     0     0    
2019/08/01  20:28:00  BASE  3.94548  175  4.2336   176  -9.1  79    -12.1 0     0     1000.3   NA       0.0000   9999     0     0     0    
2019/08/01  20:29:00  BASE  4.05132  179  4.29828  182  -9.1  79    -12.1 0     0     1000.3   NA       0.0000   9999     0     0     0    
2019/08/01  20:30:00  BASE  4.07484  178  4.35708  175  -9.1  79    -12.1 0     0     1000.3   NA       0.0000   9999     0     0     0    
2019/08/01  20:31:00  BASE  4.0278   173  4.35708  175  -9.1  79    -12.1 0     0     1000.3   NA       0.0000   9999     0     0     0    
2019/08/01  20:32:00  BASE  4.1748   170  4.56876  170  -9.1  79    -12.0 0     0     1000.3   NA       0.0000   9999     0     0     0    
2019/08/01  20:33:00  BASE  4.16304  167  4.56876  170  -9.1  79    -12.0 0     0     1000.3   NA       0.0000   9999     0     0     0    
2019/08/01  20:34:00  BASE  3.96312  165  4.56876  170  -9.1  79    -12.0 0     0     1000.3   NA       0.0000   9999     0     0     0    
2019/08/01  20:35:00  BASE  3.53388  170  4.56876  170  -9.1  79    -12.1 0     0     1000.3   NA       0.0000   9999     0     0     0    
2019/08/01  20:36:00  BASE  3.19284  177  4.56876  170  -9.2  79    -12.2 0     0     1000.3   NA       0.0000   9999     0     0     0    
2019/08/01  20:37:00  BASE  3.32808  183  4.56876  170  -9.2  79    -12.2 0     0     1000.3   NA       0.0000   9999     0     0     0    
2019/08/01  20:38:00  BASE  3.66324  186  4.56876  170  -9.3  79    -12.3 0     0     1000.3   NA       0.0000   9999     0     0     0    
2019/08/01  20:39:00  BASE  3.91608  182  4.56876  170  -9.3  78    -12.4 0     0     1000.3   NA       0.0000   9999     0     0     0    
2019/08/01  20:40:00  BASE  3.80436  179  4.56876  170  -9.3  78    -12.4 0     0     1000.3   NA       0.0000   9999     0     0     0    
2019/08/01  20:41:00  BASE  3.30456  178  4.56876  170  -9.2  78    -12.3 0     0     1000.3   NA       0.0000   9999     0     0     0    
2019/08/01  20:42:00  BASE  2.646    176  4.38648  193  -9.2  78    -12.3 0     0     1000.3   NA       0.0000   9999     0     0     0    
2019/08/01  20:43:00  BASE  2.2344   178  4.38648  193  -9.1  77    -12.3 0     0     1000.3   NA       0.0000   9999     0     0     0    
2019/08/01  20:44:00  BASE  2.06388  191  4.38648  193  -9.0  77    -12.3 0     0     1000.3   NA       0.0000   9999     0     0     0    
2019/08/01  20:45:00  BASE  2.18148  207  4.38648  193  -8.9  76    -12.3 0     0     1000.3   NA       0.0000   9999     0     0     0    
2019/08/01  20:46:00  BASE  2.65776  215  4.38648  193  -8.8  76    -12.3 0     0     1000.3   NA       0.0000   9999     0     0     0    
2019/08/01  20:47:00  BASE  3.05172  219  4.38648  193  -8.7  75    -12.3 0     0     1000.3   NA       0.0000   9999     0     0     0    
2019/08/01  20:48:00  BASE  3.1164   215  4.2336   176  -8.6  75    -12.3 0     0     1000.3   NA       0.0000   9999     0     0     0    
2019/08/01  20:49:00  BASE  3.06936  205  4.2336   176  -8.6  74    -12.3 0     0     1000.3   NA       0.0000   9999     0     0     0    
2019/08/01  20:50:00  BASE  2.87532  200  3.41628  220  -8.5  74    -12.4 0     0     1000.3   NA       0.0000   9999     0     0     0    
2019/08/01  20:51:00  BASE  2.56368  194  3.41628  220  -8.5  73    -12.5 0     0     1000.3   NA       0.0000   9999     0     0     0    
2019/08/01  20:52:00  BASE  2.16972  189  3.41628  220  -8.5  72    -12.6 0     0     1000.3   NA       0.0000   9999     0     0     0    
2019/08/01  20:53:00  BASE  1.69932  200  3.41628  220  -8.6  72    -12.7 0     0     1000.3   NA       0.0000   9999     0     0     0    
2019/08/01  20:54:00  BASE  1.5582   214  3.41628  220  -8.6  71    -12.8 0     0     1000.2   NA       0.0000   9999     0     0     0    
2019/08/01  20:55:00  BASE  1.8816   223  3.41628  220  -8.6  71    -12.8 0     0     1000.2   NA       0.0000   9999     0     0     0    
2019/08/01  20:56:00  BASE  2.48724  226  3.86904  211  -8.6  71    -12.9 0     0     1000.2   NA       0.0000   9999     0     0     0    
2019/08/01  20:57:00  BASE  3.16932  217  3.86904  211  -8.6  71    -12.9 0     0     1000.2   NA       0.0000   9999     0     0     0    
2019/08/01  20:58:00  BASE  3.03996  207  3.86904  211  -8.6  71    -12.9 0     0     1000.2   NA       0.0000   9999     0     0     0    
2019/08/01  20:59:00  BASE  2.2638   207  3.86904  211  -8.7  71    -13.0 0     0     1000.3   NA       0.0000   9999     0     0     0    
2019/08/01  21:00:00  BASE  1.29948  194  3.86904  211  -8.7  71    -13.1 0     0     1000.3   NA       0.0000   9999     0     0     0    
2019/08/01  21:01:00  BASE  0.8526   147  3.86904  211  -8.9  70    -13.4 0     0     1000.3   NA       0.0000   9999     0     0     0    
2019/08/01  21:02:00  BASE  1.39356  21   3.86904  211  -9.0  70    -13.6 0     0     1000.2   NA       0.0000   9999     0     0     0    
2019/08/01  21:03:00  BASE  1.28772  5    3.86904  211  -9.1  70    -13.6 0     0     1000.1   NA       0.0000   9999     0     0     0    
2019/08/01  21:04:00  BASE  0.78204  314  3.86904  211  -9.0  70    -13.4 0     0     1000.0   NA       0.0000   9999     0     0     0    
2019/08/01  21:05:00  BASE  1.2936   258  3.86904  211  -9.0  71    -13.2 0     0     1000.0   NA       0.0000   9999     0     0     0    
2019/08/01  21:06:00  BASE  2.06976  240  3.69264  220  -8.8  73    -12.8 0     0     999.9    NA       0.0000   9999     0     0     0    
2019/08/01  21:07:00  BASE  2.09328  240  3.35748  197  -8.6  73    -12.6 0     0     999.9    NA       0.0000   9999     0     0     0    
2019/08/01  21:08:00  BASE  1.42884  242  2.35788  247  -8.6  72    -12.7 0     0     1000.0   NA       0.0000   9999     0     0     0    
2019/08/01  21:09:00  BASE  0.7938   280  2.35788  247  -8.7  71    -12.9 0     0     1000.1   NA       0.0000   9999     0     0     0    
2019/08/01  21:10:00  BASE  0.93492  352  2.35788  247  -8.8  70    -13.2 0     0     1000.1   NA       0.0000   9999     0     0     0    
2019/08/01  21:11:00  BASE  1.18776  26   2.35788  247  -8.9  69    -13.5 0     0     1000.1   NA       0.0000   9999     0     0     0    
2019/08/01  21:12:00  BASE  1.09956  31   2.35788  247  -8.9  69    -13.6 0     0     1000.1   NA       0.0000   9999     0     0     0    
2019/08/01  21:13:00  BASE  1.03488  28   2.35788  247  -8.9  70    -13.4 0     0     1000.0   NA       0.0000   9999     0     0     0    
2019/08/01  21:14:00  BASE  0.96432  24   2.35788  247  -8.8  71    -13.2 0     0     1000.1   NA       0.0000   9999     0     0     0    
2019/08/01  21:15:00  BASE  0.81144  22   2.35788  247  -8.7  72    -12.9 0     0     1000.1   NA       0.0000   9999     0     0     0    
2019/08/01  21:16:00  BASE  0.39396  20   2.21088  239  -8.7  72    -12.8 0     0     1000.1   NA       0.0000   9999     0     0     0    
2019/08/01  21:17:00  BASE  0.0882   31   1.63464  10   -8.7  73    -12.7 0     0     1000.1   NA       0.0000   9999     0     0     0    
2019/08/01  21:18:00  BASE  0.67032  78   1.63464  10   -8.6  73    -12.6 0     0     1000.1   NA       0.0000   9999     0     0     0    
2019/08/01  21:19:00  BASE  1.24656  106  1.63464  10   -8.7  73    -12.6 0     0     1000.0   NA       0.0000   9999     0     0     0    
2019/08/01  21:20:00  BASE  1.02312  123  1.63464  10   -8.8  73    -12.8 0     0     999.9    NA       0.0000   9999     0     0     0    
2019/08/01  21:21:00  BASE  0.51156  162  1.63464  10   -8.9  73    -12.9 0     0     999.8    NA       0.0000   9999     0     0     0    
2019/08/01  21:22:00  BASE  0.79968  228  2.0286   242  -8.9  73    -12.9 0     0     999.7    NA       0.0000   9999     0     0     0    
2019/08/01  21:23:00  BASE  2.00508  242  3.1752   235  -9.0  73    -13.0 0     0     999.5    NA       0.0000   9999     0     0     0    
2019/08/01  21:24:00  BASE  3.1458   231  4.1748   229  -9.0  73    -13.0 0     0     999.5    NA       0.0000   9999     0     0     0    
2019/08/01  21:25:00  BASE  3.42216  218  4.1748   229  -8.9  73    -12.8 0     0     999.5    NA       0.0000   9999     0     0     0    
2019/08/01  21:26:00  BASE  2.7342   199  4.1748   229  -8.8  73    -12.8 0     0     999.7    NA       0.0000   9999     0     0     0    
2019/08/01  21:27:00  BASE  1.98744  178  4.1748   229  -8.9  73    -12.9 0     0     999.7    NA       0.0000   9999     0     0     0    
2019/08/01  21:28:00  BASE  1.66992  156  4.1748   229  -9.0  73    -12.9 0     0     999.7    NA       0.0000   9999     0     0     0    
2019/08/01  21:29:00  BASE  1.34652  155  4.1748   229  -9.1  73    -13.0 0     0     999.7    NA       0.0000   9999     0     0     0    
2019/08/01  21:30:00  BASE  0.75264  162  4.1748   229  -9.2  73    -13.0 0     0     999.7    NA       0.0000   9999     0     0     0    
2019/08/01  21:31:00  BASE  0.82908  171  4.1748   229  -9.1  74    -12.9 0     0     999.7    NA       0.0000   9999     0     0     0    
2019/08/01  21:32:00  BASE  1.62876  183  4.1748   229  -9.0  74    -12.8 0     0     999.7    NA       0.0000   9999     0     0     0    
2019/08/01  21:33:00  BASE  2.07564  179  4.1748   229  -8.8  74    -12.6 0     0     999.7    NA       0.0000   9999     0     0     0    
2019/08/01  21:34:00  BASE  2.03448  163  4.02192  223  -8.7  74    -12.5 0     0     999.7    NA       0.0000   9999     0     0     0    
2019/08/01  21:35:00  BASE  2.41668  136  3.48096  115  -8.7  74    -12.5 0     0     999.6    NA       0.0000   9999     0     0     0    
2019/08/01  21:36:00  BASE  3.1164   120  4.02192  128  -8.9  73    -12.9 0     0     999.6    NA       0.0000   9999     0     0     0    
2019/08/01  21:37:00  BASE  3.8514   130  4.83924  141  -9.2  73    -13.2 0     0     999.5    NA       0.0000   9999     0     0     0    
2019/08/01  21:38:00  BASE  4.10424  146  4.83924  141  -9.3  73    -13.3 0     0     999.5    NA       0.0000   9999     0     0     0    
2019/08/01  21:39:00  BASE  3.59856  152  4.83924  141  -9.5  73    -13.4 0     0     999.5    NA       0.0000   9999     0     0     0    
2019/08/01  21:40:00  BASE  3.37512  136  4.83924  141  -9.6  73    -13.5 0     0     999.6    NA       0.0000   9999     0     0     0    
2019/08/01  21:41:00  BASE  3.60444  114  4.83924  141  -9.5  74    -13.3 0     0     999.6    NA       0.0000   9999     0     0     0    
2019/08/01  21:42:00  BASE  3.4986   113  4.83924  141  -9.4  74    -13.2 0     0     999.6    NA       0.0000   9999     0     0     0    
2019/08/01  21:43:00  BASE  3.59268  124  4.83924  141  -9.5  74    -13.3 0     0     999.6    NA       0.0000   9999     0     0     0    
2019/08/01  21:44:00  BASE  3.97488  130  4.83924  141  -9.5  74    -13.2 0     0     999.6    NA       0.0000   9999     0     0     0    
2019/08/01  21:45:00  BASE  3.68088  134  4.83924  141  -9.3  75    -13.0 0     0     999.6    NA       0.0000   9999     0     0     0    
2019/08/01  21:46:00  BASE  3.22224  132  4.83924  141  -9.2  75    -12.9 0     0     999.6    NA       0.0000   9999     0     0     0    
2019/08/01  21:47:00  BASE  3.25164  124  4.32768  133  -9.2  75    -12.8 0     0     999.6    NA       0.0000   9999     0     0     0    
2019/08/01  21:48:00  BASE  3.62208  114  4.32768  133  -9.1  75    -12.8 0     0     999.7    NA       0.0000   9999     0     0     0    
2019/08/01  21:49:00  BASE  4.00428  106  4.38648  106  -9.2  74    -12.9 0     0     999.7    NA       0.0000   9999     0     0     0    
2019/08/01  21:50:00  BASE  4.11012  102  4.38648  106  -9.3  74    -13.1 0     0     999.6    NA       0.0000   9999     0     0     0    
2019/08/01  21:51:00  BASE  4.02192  99   4.38648  102  -9.5  74    -13.2 0     0     999.6    NA       0.0000   9999     0     0     0    
2019/08/01  21:52:00  BASE  4.02192  100  4.38648  102  -9.6  74    -13.4 0     0     999.6    NA       0.0000   9999     0     0     0    
2019/08/01  21:53:00  BASE  4.15128  104  4.78044  112  -9.7  74    -13.5 0     0     999.5    NA       0.0000   9999     0     0     0    
2019/08/01  21:54:00  BASE  4.58052  110  5.50368  111  -9.7  74    -13.5 0     0     999.5    NA       0.0000   9999     0     0     0    
2019/08/01  21:55:00  BASE  4.43352  109  5.50368  111  -9.8  74    -13.6 0     0     999.6    NA       0.0000   9999     0     0     0    
2019/08/01  21:56:00  BASE  3.6456   101  5.50368  111  -9.7  74    -13.5 0     0     999.6    NA       0.0000   9999     0     0     0    
2019/08/01  21:57:00  BASE  3.36336  98   5.50368  111  -9.6  73    -13.5 0     0     999.6    NA       0.0000   9999     0     0     0    
2019/08/01  21:58:00  BASE  3.52212  93   5.50368  111  -9.5  73    -13.4 0     0     999.5    NA       0.0000   9999     0     0     0    
2019/08/01  21:59:00  BASE  3.28692  85   5.50368  111  -9.5  73    -13.5 0     0     999.4    NA       0.0000   9999     0     0     0    
2019/08/01  22:00:00  BASE  2.98116  89   5.50368  111  -9.6  73    -13.6 0     0     999.4    NA       0.0000   9999     0     0     0    
2019/08/01  22:01:00  BASE  3.42216  97   5.50368  111  -9.7  72    -13.8 0     0     999.3    NA       0.0000   9999     0     0     0    
2019/08/01  22:02:00  BASE  4.03956  102  5.50368  111  -9.8  72    -13.9 0     0     999.2    NA       0.0000   9999     0     0     0    
2019/08/01  22:03:00  BASE  3.91608  110  5.50368  111  -9.9  72    -14.0 0     0     999.2    NA       0.0000   9999     0     0     0    
2019/08/01  22:04:00  BASE  3.38688  122  4.53936  111  -9.8  72    -13.9 0     0     999.2    NA       0.0000   9999     0     0     0    
2019/08/01  22:05:00  BASE  3.11052  136  4.53936  111  -9.6  72    -13.7 0     0     999.1    NA       0.0000   9999     0     0     0    
2019/08/01  22:06:00  BASE  2.75772  141  4.53936  111  -9.3  72    -13.4 0     0     999.1    NA       0.0000   9999     0     0     0    
2019/08/01  22:07:00  BASE  2.3814   134  4.53936  111  -9.2  72    -13.3 0     0     999.2    NA       0.0000   9999     0     0     0    
2019/08/01  22:08:00  BASE  1.9992   116  4.53936  111  -9.2  71    -13.4 0     0     999.2    NA       0.0000   9999     0     0     0    
2019/08/01  22:09:00  BASE  1.45236  114  4.53936  111  -9.2  71    -13.5 0     0     999.2    NA       0.0000   9999     0     0     0    
2019/08/01  22:10:00  BASE  0.99372  121  4.53936  111  -9.2  71    -13.6 0     0     999.2    NA       0.0000   9999     0     0     0    
2019/08/01  22:11:00  BASE  0.95256  111  4.53936  111  -9.3  71    -13.7 0     0     999.3    NA       0.0000   9999     0     0     0    
2019/08/01  22:12:00  BASE  1.16424  99   4.02192  112  -9.4  71    -13.7 0     0     999.3    NA       0.0000   9999     0     0     0    
2019/08/01  22:13:00  BASE  1.4994   93   3.48096  120  -9.3  71    -13.6 0     0     999.2    NA       0.0000   9999     0     0     0    
2019/08/01  22:14:00  BASE  2.04036  93   3.2046   154  -9.3  71    -13.6 0     0     999.2    NA       0.0000   9999     0     0     0    
2019/08/01  22:15:00  BASE  1.95804  102  2.72244  143  -9.4  71    -13.7 0     0     999.1    NA       0.0000   9999     0     0     0    
2019/08/01  22:16:00  BASE  1.3524   124  2.66364  136  -9.4  71    -13.7 0     0     999.1    NA       0.0000   9999     0     0     0    
2019/08/01  22:17:00  BASE  1.08192  146  2.48136  95   -9.4  71    -13.7 0     0     999.0    NA       0.0000   9999     0     0     0    
2019/08/01  22:18:00  BASE  1.0878   145  2.48136  95   -9.4  71    -13.7 0     0     999.1    NA       0.0000   9999     0     0     0    
2019/08/01  22:19:00  BASE  1.11132  110  2.48136  95   -9.3  70    -13.7 0     0     999.1    NA       0.0000   9999     0     0     0    
2019/08/01  22:20:00  BASE  2.07564  64   4.32768  61   -9.2  70    -13.7 0     0     999.1    NA       0.0000   9999     0     0     0    
2019/08/01  22:21:00  BASE  3.40452  55   4.65696  69   -9.2  70    -13.7 0     0     999.1    NA       0.0000   9999     0     0     0    
2019/08/01  22:22:00  BASE  3.2046   64   4.65696  69   -9.3  70    -13.7 0     0     999.1    NA       0.0000   9999     0     0     0    
2019/08/01  22:23:00  BASE  2.205    83   4.65696  69   -9.2  70    -13.6 0     0     999.0    NA       0.0000   9999     0     0     0    
2019/08/01  22:24:00  BASE  2.1756   112  4.65696  69   -9.2  71    -13.6 0     0     998.9    NA       0.0000   9999     0     0     0    
2019/08/01  22:25:00  BASE  3.33984  133  4.68636  143  -9.2  71    -13.6 0     0     998.8    NA       0.0000   9999     0     0     0    
2019/08/01  22:26:00  BASE  3.89256  141  4.68636  143  -9.2  71    -13.6 0     0     998.8    NA       0.0000   9999     0     0     0    
2019/08/01  22:27:00  BASE  3.90432  142  4.68636  143  -9.2  70    -13.6 0     0     998.8    NA       0.0000   9999     0     0     0    
2019/08/01  22:28:00  BASE  3.87492  153  4.68636  143  -9.3  70    -13.8 0     0     998.7    NA       0.0000   9999     0     0     0    
2019/08/01  22:29:00  BASE  3.99252  177  4.75104  190  -9.3  69    -13.9 0     0     998.5    NA       0.0000   9999     0     0     0    
2019/08/01  22:30:00  BASE  3.675    181  4.75104  190  -9.4  69    -14.0 0     0     998.6    NA       0.0000   9999     0     0     0    
2019/08/01  22:31:00  BASE  2.5284   158  4.75104  190  -9.4  69    -14.0 0     0     998.6    NA       0.0000   9999     0     0     0    
2019/08/01  22:32:00  BASE  2.0874   105  4.75104  190  -9.3  69    -13.9 0     0     998.6    NA       0.0000   9999     0     0     0    
2019/08/01  22:33:00  BASE  2.27556  92   4.75104  190  -9.2  69    -13.7 0     0     998.6    NA       0.0000   9999     0     0     0    
2019/08/01  22:34:00  BASE  2.59896  109  5.2332   136  -9.0  69    -13.7 0     0     998.5    NA       0.0000   9999     0     0     0    
2019/08/01  22:35:00  BASE  4.03956  124  6.02112  132  -8.9  67    -13.8 0     0     998.4    NA       0.0000   9999     0     0     0    
2019/08/01  22:36:00  BASE  5.49192  140  6.98544  139  -8.8  66    -14.0 0     0     998.3    NA       0.0000   9999     0     0     0    
2019/08/01  22:37:00  BASE  5.48016  142  6.98544  139  -8.7  65    -14.2 0     0     998.4    NA       0.0000   9999     0     0     0    
2019/08/01  22:38:00  BASE  5.50368  148  6.98544  159  -8.7  63    -14.5 0     0     998.3    NA       0.0000   9999     0     0     0    
2019/08/01  22:39:00  BASE  5.13324  170  6.98544  159  -8.7  62    -14.7 0     0     998.3    NA       0.0000   9999     0     0     0    
2019/08/01  22:40:00  BASE  4.75692  187  6.98544  159  -8.6  62    -14.5 0     0     998.2    NA       0.0000   9999     0     0     0    
2019/08/01  22:41:00  BASE  4.5276   181  6.98544  159  -8.4  63    -14.3 0     0     998.3    NA       0.0000   9999     0     0     0    
2019/08/01  22:42:00  BASE  4.66284  161  6.98544  159  -8.4  62    -14.3 0     0     998.3    NA       0.0000   9999     0     0     0    
2019/08/01  22:43:00  BASE  5.01564  149  6.98544  159  -8.4  63    -14.2 0     0     998.3    NA       0.0000   9999     0     0     0    
2019/08/01  22:44:00  BASE  4.07484  132  6.98544  159  -8.4  64    -14.1 0     0     998.5    NA       0.0000   9999     0     0     0    
2019/08/01  22:45:00  BASE  3.62796  109  6.98544  159  -8.6  64    -14.1 0     0     998.5    NA       0.0000   9999     0     0     0    
2019/08/01  22:46:00  BASE  4.2042   106  6.98544  159  -8.8  65    -14.2 0     0     998.5    NA       0.0000   9999     0     0     0    
2019/08/01  22:47:00  BASE  5.02152  109  6.98544  159  -9.0  66    -14.2 0     0     998.5    NA       0.0000   9999     0     0     0    
2019/08/01  22:48:00  BASE  5.18616  117  6.2916   192  -9.2  67    -14.2 0     0     998.5    NA       0.0000   9999     0     0     0    
2019/08/01  22:49:00  BASE  4.8216   129  6.02112  150  -9.3  67    -14.3 0     0     998.4    NA       0.0000   9999     0     0     0    
2019/08/01  22:50:00  BASE  4.99212  135  6.2034   134  -9.3  67    -14.4 0     0     998.4    NA       0.0000   9999     0     0     0    
2019/08/01  22:51:00  BASE  5.56248  136  6.50328  143  -9.3  66    -14.4 0     0     998.3    NA       0.0000   9999     0     0     0    
2019/08/01  22:52:00  BASE  5.89176  132  6.59148  124  -9.2  66    -14.4 0     0     998.3    NA       0.0000   9999     0     0     0    
2019/08/01  22:53:00  BASE  6.41508  126  7.83216  120  -9.3  66    -14.5 0     0     998.2    NA       0.0000   9999     0     0     0    
2019/08/01  22:54:00  BASE  7.26768  123  7.92624  122  -9.3  65    -14.6 0     0     998.2    NA       0.0000   9999     0     0     0    
2019/08/01  22:55:00  BASE  7.79688  123  8.64948  126  -9.3  66    -14.6 0     0     998.2    NA       0.0000   9999     0     0     0    
2019/08/01  22:56:00  BASE  7.57932  125  8.64948  126  -9.3  66    -14.5 0     0     998.2    NA       0.0000   9999     0     0     0    
2019/08/01  22:57:00  BASE  6.59148  128  8.64948  126  -9.3  67    -14.3 0     0     998.3    NA       0.0000   9999     0     0     0    
2019/08/01  22:58:00  BASE  6.23868  133  8.64948  126  -9.2  67    -14.1 0     0     998.3    NA       0.0000   9999     0     0     0    
2019/08/01  22:59:00  BASE  6.30336  129  8.64948  126  -9.1  68    -14.0 0     0     998.3    NA       0.0000   9999     0     0     0    
2019/08/01  23:00:00  BASE  6.27396  122  8.64948  126  -9.1  69    -13.8 0     0     998.4    NA       0.0000   9999     0     0     0    
2019/08/01  23:01:00  BASE  6.26808  120  8.64948  126  -9.1  69    -13.7 0     0     998.4    NA       0.0000   9999     0     0     0    
2019/08/01  23:02:00  BASE  5.83884  118  8.64948  126  -9.1  70    -13.7 0     0     998.4    NA       0.0000   9999     0     0     0    
2019/08/01  23:03:00  BASE  5.42136  115  8.64948  126  -9.1  70    -13.6 0     0     998.5    NA       0.0000   9999     0     0     0    
2019/08/01  23:04:00  BASE  5.26848  109  8.64948  126  -9.2  70    -13.7 0     0     998.5    NA       0.0000   9999     0     0     0    
2019/08/01  23:05:00  BASE  5.06268  105  7.86744  124  -9.2  70    -13.7 0     0     998.5    NA       0.0000   9999     0     0     0    
2019/08/01  23:06:00  BASE  4.851    96   7.53228  134  -9.2  70    -13.6 0     0     998.6    NA       0.0000   9999     0     0     0    
2019/08/01  23:07:00  BASE  4.75104  87   7.2618   116  -9.3  70    -13.7 0     0     998.6    NA       0.0000   9999     0     0     0    
2019/08/01  23:08:00  BASE  4.44528  92   7.2618   116  -9.4  70    -13.9 0     0     998.6    NA       0.0000   9999     0     0     0    
2019/08/01  23:09:00  BASE  4.09836  100  7.2618   116  -9.5  70    -14.0 0     0     998.5    NA       0.0000   9999     0     0     0    
2019/08/01  23:10:00  BASE  3.88668  103  6.86784  122  -9.6  70    -14.2 0     0     998.5    NA       0.0000   9999     0     0     0    
2019/08/01  23:11:00  BASE  3.65736  103  6.02112  116  -9.8  69    -14.5 0     0     998.5    NA       0.0000   9999     0     0     0    
2019/08/01  23:12:00  BASE  3.51036  106  5.68596  98   -9.9  68    -14.6 0     0     998.5    NA       0.0000   9999     0     0     0    
2019/08/01  23:13:00  BASE  3.42216  108  5.68596  98   -9.8  68    -14.7 0     0     998.5    NA       0.0000   9999     0     0     0    
2019/08/01  23:14:00  BASE  3.32808  109  5.68596  98   -9.8  67    -14.7 0     0     998.4    NA       0.0000   9999     0     0     0    
2019/08/01  23:15:00  BASE  3.07524  109  5.2626   109  -9.6  67    -14.7 0     0     998.4    NA       0.0000   9999     0     0     0    
2019/08/01  23:16:00  BASE  2.83416  100  5.08032  85   -9.5  66    -14.6 0     0     998.4    NA       0.0000   9999     0     0     0    
2019/08/01  23:17:00  BASE  3.02232  81   4.44528  95   -9.4  66    -14.6 0     0     998.4    NA       0.0000   9999     0     0     0    
2019/08/01  23:18:00  BASE  3.45156  66   4.1454   103  -9.3  65    -14.7 0     0     998.5    NA       0.0000   9999     0     0     0    
2019/08/01  23:19:00  BASE  3.36924  63   4.08072  103  -9.3  64    -14.7 0     0     998.5    NA       0.0000   9999     0     0     0    
2019/08/01  23:20:00  BASE  2.79888  75   3.78084  62   -9.2  64    -14.8 0     0     998.4    NA       0.0000   9999     0     0     0    
2019/08/01  23:21:00  BASE  2.32848  97   3.78084  62   -9.1  63    -14.8 0     0     998.4    NA       0.0000   9999     0     0     0    
2019/08/01  23:22:00  BASE  2.32848  117  3.78084  62   -9.0  63    -14.7 0     0     998.3    NA       0.0000   9999     0     0     0    
2019/08/01  23:23:00  BASE  2.27556  134  3.78084  62   -8.8  63    -14.7 0     0     998.3    NA       0.0000   9999     0     0     0    
2019/08/01  23:24:00  BASE  2.0286   143  3.78084  62   -8.6  62    -14.6 0     0     998.3    NA       0.0000   9999     0     0     0    
2019/08/01  23:25:00  BASE  1.96392  143  3.78084  62   -8.6  62    -14.7 0     0     998.3    NA       0.0000   9999     0     0     0    
2019/08/01  23:26:00  BASE  1.7052   146  3.78084  62   -8.6  61    -14.7 0     0     998.3    NA       0.0000   9999     0     0     0    
2019/08/01  23:27:00  BASE  1.12308  167  3.78084  62   -8.6  61    -14.7 0     0     998.3    NA       0.0000   9999     0     0     0    
2019/08/01  23:28:00  BASE  0.38808  210  3.38688  60   -8.5  61    -14.7 0     0     998.2    NA       0.0000   9999     0     0     0    
2019/08/01  23:29:00  BASE  0.3528   276  2.78124  71   -8.4  60    -14.7 0     0     998.2    NA       0.0000   9999     0     0     0    
2019/08/01  23:30:00  BASE  0.84084  315  2.56956  127  -8.3  60    -14.6 0     0     998.2    NA       0.0000   9999     0     0     0    
2019/08/01  23:31:00  BASE  0.96432  334  2.56956  127  -8.1  60    -14.5 0     0     998.2    NA       0.0000   9999     0     0     0    
2019/08/01  23:32:00  BASE  0.68796  2    2.42256  138  -8.1  59    -14.6 0     0     998.2    NA       0.0000   9999     0     0     0    
2019/08/01  23:33:00  BASE  0.21168  31   2.0874   148  -8.1  59    -14.7 0     0     998.2    NA       0.0000   9999     0     0     0    
2019/08/01  23:34:00  BASE  0        54   2.0286   140  -8.1  59    -14.8 0     0     998.0    NA       0.0000   9999     0     0     0    
2019/08/01  23:35:00  BASE  0.3822   115  1.75224  147  -8.2  59    -14.8 0     0     998.0    NA       0.0000   9999     0     0     0    
2019/08/01  23:36:00  BASE  1.75812  117  3.2046   85   -8.3  59    -15.0 0     0     998.2    NA       0.0000   9999     0     0     0    
2019/08/01  23:37:00  BASE  3.13404  90   3.81024  87   -8.4  59    -15.0 0     0     998.2    NA       0.0000   9999     0     0     0    
2019/08/01  23:38:00  BASE  3.03996  98   3.81024  87   -8.4  60    -14.9 0     0     998.2    NA       0.0000   9999     0     0     0    
2019/08/01  23:39:00  BASE  2.61072  122  3.81024  87   -8.4  60    -14.8 0     0     998.2    NA       0.0000   9999     0     0     0    
2019/08/01  23:40:00  BASE  2.5872   137  3.81024  87   -8.4  60    -14.8 0     0     998.1    NA       0.0000   9999     0     0     0    
2019/08/01  23:41:00  BASE  2.45784  146  3.81024  87   -8.4  61    -14.6 0     0     998.0    NA       0.0000   9999     0     0     0    
2019/08/01  23:42:00  BASE  2.64012  160  3.81024  87   -8.2  60    -14.6 0     0     997.9    NA       0.0000   9999     0     0     0    
2019/08/01  23:43:00  BASE  3.18108  149  4.05132  139  -8.2  59    -14.9 0     0     998.0    NA       0.0000   9999     0     0     0    
2019/08/01  23:44:00  BASE  3.2634   125  4.05132  139  -8.3  58    -15.2 0     0     997.9    NA       0.0000   9999     0     0     0    
2019/08/01  23:45:00  BASE  3.32808  128  4.05132  139  -8.4  57    -15.3 0     0     997.9    NA       0.0000   9999     0     0     0    
2019/08/01  23:46:00  BASE  3.528    136  4.05132  139  -8.3  57    -15.4 0     0     997.9    NA       0.0000   9999     0     0     0    
2019/08/01  23:47:00  BASE  3.78672  130  4.78044  128  -8.3  56    -15.5 0     0     997.8    NA       0.0000   9999     0     0     0    
2019/08/01  23:48:00  BASE  3.98664  117  4.78044  128  -8.3  56    -15.6 0     0     997.8    NA       0.0000   9999     0     0     0    
2019/08/01  23:49:00  BASE  3.9984   109  5.38608  103  -8.1  55    -15.5 0     0     997.9    NA       0.0000   9999     0     0     0    
2019/08/01  23:50:00  BASE  4.8804   108  8.379    97   -8.1  55    -15.7 0     0     997.7    NA       0.0000   9999     0     0     0    
2019/08/01  23:51:00  BASE  7.13832  99   10.8604  90   -8.2  54    -15.8 0     0     997.6    NA       0.0000   9999     0     0     0    
2019/08/01  23:52:00  BASE  8.92584  94   10.8604  90   -8.3  55    -15.7 0     0     997.6    NA       0.0000   9999     0     0     0    
2019/08/01  23:53:00  BASE  8.75532  104  10.8604  90   -8.4  56    -15.7 0     0     997.5    NA       0.0000   9999     0     0     0    
2019/08/01  23:54:00  BASE  8.91996  103  11.9188  98   -8.4  56    -15.6 0     0     997.5    NA       0.0000   9999     0     0     0    
2019/08/01  23:55:00  BASE  8.76708  104  11.9188  98   -8.4  57    -15.4 0     0     997.5    NA       0.0000   9999     0     0     0    
2019/08/01  23:56:00  BASE  6.5562   120  11.9188  98   -8.3  58    -15.1 0     0     997.7    NA       0.0000   9999     0     0     0    
2019/08/01  23:57:00  BASE  5.19792  124  11.9188  98   -8.2  59    -14.9 0     0     997.8    NA       0.0000   9999     0     0     0    
2019/08/01  23:58:00  BASE  5.2626   125  11.9188  98   -8.1  59    -14.6 0     0     997.8    NA       0.0000   9999     0     0     0    
2019/08/01  23:59:00  BASE  5.6742   136  11.9188  98   -8.0  59    -14.5 0     0     997.7    NA       0.0000   9999     0     0     0